<?xml version="1.0" encoding="UTF-8" standalone="no" ?>
<gpx xmlns="http://www.topografix.com/GPX/1/1" xmlns:xsi="http://www.w3.org/2001/XMLSchema-instance" xsi:schemaLocation="http://www.topografix.com/GPX/1/1 http://www.topografix.com/GPX/1/1/gpx.xsd" version="1.1" creator="VisuGPX - https://www.visugpx.com">
  <metadata>
    <name>83-Me-Chateaudouble</name>
    <desc><![CDATA[83-Me-Chateaudouble : château de la Garde
2024-05-08]]></desc>
  </metadata>
  <trk>
    <name><![CDATA[chateaudouble -12-05-24]]></name>
    <desc><![CDATA[comment ...]]></desc>
    <extensions>
      <line xmlns="http://www.topografix.com/GPX/gpx_style/0/2">
        <width>4</width>
      </line>
    </extensions>
    <trkseg>
      <trkpt lat="43.5918" lon="6.46945">
        <ele>467</ele>
        <time>2024-05-08T12:18:35.000Z</time>
      </trkpt>
      <trkpt lat="43.59178" lon="6.46947">
        <ele>469</ele>
        <time>2024-05-08T12:18:36.000Z</time>
      </trkpt>
      <trkpt lat="43.59176" lon="6.4695">
        <ele>469</ele>
        <time>2024-05-08T12:18:38.000Z</time>
      </trkpt>
      <trkpt lat="43.59172" lon="6.46953">
        <ele>470</ele>
        <time>2024-05-08T12:18:39.000Z</time>
      </trkpt>
      <trkpt lat="43.59165" lon="6.46958">
        <ele>470</ele>
        <time>2024-05-08T12:18:44.000Z</time>
      </trkpt>
      <trkpt lat="43.59163" lon="6.46958">
        <ele>470</ele>
        <time>2024-05-08T12:18:47.000Z</time>
      </trkpt>
      <trkpt lat="43.59162" lon="6.46957">
        <ele>470</ele>
        <time>2024-05-08T12:18:50.000Z</time>
      </trkpt>
      <trkpt lat="43.5916" lon="6.46956">
        <ele>469</ele>
        <time>2024-05-08T12:18:57.000Z</time>
      </trkpt>
      <trkpt lat="43.59161" lon="6.46954">
        <ele>469</ele>
        <time>2024-05-08T12:19:33.000Z</time>
      </trkpt>
      <trkpt lat="43.59155" lon="6.46954">
        <ele>470</ele>
        <time>2024-05-08T12:20:30.000Z</time>
      </trkpt>
      <trkpt lat="43.59154" lon="6.46953">
        <ele>471</ele>
        <time>2024-05-08T12:20:32.000Z</time>
      </trkpt>
      <trkpt lat="43.59152" lon="6.4695">
        <ele>471</ele>
        <time>2024-05-08T12:20:34.000Z</time>
      </trkpt>
      <trkpt lat="43.59151" lon="6.46948">
        <ele>471</ele>
        <time>2024-05-08T12:20:36.000Z</time>
      </trkpt>
      <trkpt lat="43.59148" lon="6.46945">
        <ele>472</ele>
        <time>2024-05-08T12:20:40.000Z</time>
      </trkpt>
      <trkpt lat="43.59147" lon="6.46944">
        <ele>473</ele>
        <time>2024-05-08T12:20:42.000Z</time>
      </trkpt>
      <trkpt lat="43.59142" lon="6.46937">
        <ele>473</ele>
        <time>2024-05-08T12:20:48.000Z</time>
      </trkpt>
      <trkpt lat="43.59138" lon="6.46932">
        <ele>474</ele>
        <time>2024-05-08T12:20:55.000Z</time>
      </trkpt>
      <trkpt lat="43.59137" lon="6.4693">
        <ele>475</ele>
        <time>2024-05-08T12:20:57.000Z</time>
      </trkpt>
      <trkpt lat="43.59136" lon="6.46928">
        <ele>475</ele>
        <time>2024-05-08T12:20:59.000Z</time>
      </trkpt>
      <trkpt lat="43.59134" lon="6.46926">
        <ele>475</ele>
        <time>2024-05-08T12:21:01.000Z</time>
      </trkpt>
      <trkpt lat="43.5913" lon="6.4692">
        <ele>476</ele>
        <time>2024-05-08T12:21:07.000Z</time>
      </trkpt>
      <trkpt lat="43.59124" lon="6.46888">
        <ele>471</ele>
        <time>2024-05-08T12:21:27.000Z</time>
      </trkpt>
      <trkpt lat="43.59121" lon="6.46885">
        <ele>471</ele>
        <time>2024-05-08T12:21:31.000Z</time>
      </trkpt>
      <trkpt lat="43.59117" lon="6.46879">
        <ele>471</ele>
        <time>2024-05-08T12:21:37.000Z</time>
      </trkpt>
      <trkpt lat="43.59109" lon="6.46873">
        <ele>474</ele>
        <time>2024-05-08T12:21:45.000Z</time>
      </trkpt>
      <trkpt lat="43.59108" lon="6.46871">
        <ele>474</ele>
        <time>2024-05-08T12:21:47.000Z</time>
      </trkpt>
      <trkpt lat="43.59105" lon="6.46858">
        <ele>474</ele>
        <time>2024-05-08T12:21:55.000Z</time>
      </trkpt>
      <trkpt lat="43.59104" lon="6.46855">
        <ele>474</ele>
        <time>2024-05-08T12:21:57.000Z</time>
      </trkpt>
      <trkpt lat="43.59106" lon="6.4685">
        <ele>473</ele>
        <time>2024-05-08T12:22:01.000Z</time>
      </trkpt>
      <trkpt lat="43.59106" lon="6.46847">
        <ele>473</ele>
        <time>2024-05-08T12:22:03.000Z</time>
      </trkpt>
      <trkpt lat="43.59126" lon="6.46832">
        <ele>477</ele>
        <time>2024-05-08T12:22:24.000Z</time>
      </trkpt>
      <trkpt lat="43.5913" lon="6.46828">
        <ele>478</ele>
        <time>2024-05-08T12:22:29.000Z</time>
      </trkpt>
      <trkpt lat="43.59134" lon="6.46825">
        <ele>478</ele>
        <time>2024-05-08T12:22:33.000Z</time>
      </trkpt>
      <trkpt lat="43.59138" lon="6.46822">
        <ele>478</ele>
        <time>2024-05-08T12:22:37.000Z</time>
      </trkpt>
      <trkpt lat="43.5914" lon="6.46822">
        <ele>478</ele>
        <time>2024-05-08T12:22:39.000Z</time>
      </trkpt>
      <trkpt lat="43.59144" lon="6.46823">
        <ele>478</ele>
        <time>2024-05-08T12:22:43.000Z</time>
      </trkpt>
      <trkpt lat="43.59147" lon="6.46824">
        <ele>479</ele>
        <time>2024-05-08T12:22:45.000Z</time>
      </trkpt>
      <trkpt lat="43.59157" lon="6.46822">
        <ele>481</ele>
        <time>2024-05-08T12:22:56.000Z</time>
      </trkpt>
      <trkpt lat="43.59159" lon="6.46823">
        <ele>482</ele>
        <time>2024-05-08T12:22:59.000Z</time>
      </trkpt>
      <trkpt lat="43.59161" lon="6.46823">
        <ele>483</ele>
        <time>2024-05-08T12:23:01.000Z</time>
      </trkpt>
      <trkpt lat="43.59173" lon="6.46815">
        <ele>486</ele>
        <time>2024-05-08T12:23:14.000Z</time>
      </trkpt>
      <trkpt lat="43.59176" lon="6.46811">
        <ele>486</ele>
        <time>2024-05-08T12:23:18.000Z</time>
      </trkpt>
      <trkpt lat="43.59177" lon="6.46808">
        <ele>486</ele>
        <time>2024-05-08T12:23:21.000Z</time>
      </trkpt>
      <trkpt lat="43.59181" lon="6.46791">
        <ele>489</ele>
        <time>2024-05-08T12:23:33.000Z</time>
      </trkpt>
      <trkpt lat="43.59183" lon="6.46785">
        <ele>488</ele>
        <time>2024-05-08T12:23:38.000Z</time>
      </trkpt>
      <trkpt lat="43.59183" lon="6.46783">
        <ele>488</ele>
        <time>2024-05-08T12:23:40.000Z</time>
      </trkpt>
      <trkpt lat="43.59184" lon="6.4677">
        <ele>488</ele>
        <time>2024-05-08T12:23:50.000Z</time>
      </trkpt>
      <trkpt lat="43.59184" lon="6.46764">
        <ele>489</ele>
        <time>2024-05-08T12:23:55.000Z</time>
      </trkpt>
      <trkpt lat="43.59187" lon="6.46755">
        <ele>490</ele>
        <time>2024-05-08T12:24:01.000Z</time>
      </trkpt>
      <trkpt lat="43.59188" lon="6.46753">
        <ele>490</ele>
        <time>2024-05-08T12:24:03.000Z</time>
      </trkpt>
      <trkpt lat="43.59189" lon="6.46747">
        <ele>490</ele>
        <time>2024-05-08T12:24:07.000Z</time>
      </trkpt>
      <trkpt lat="43.59193" lon="6.46738">
        <ele>491</ele>
        <time>2024-05-08T12:24:16.000Z</time>
      </trkpt>
      <trkpt lat="43.59197" lon="6.46731">
        <ele>491</ele>
        <time>2024-05-08T12:24:22.000Z</time>
      </trkpt>
      <trkpt lat="43.59199" lon="6.4673">
        <ele>491</ele>
        <time>2024-05-08T12:24:24.000Z</time>
      </trkpt>
      <trkpt lat="43.59202" lon="6.46725">
        <ele>491</ele>
        <time>2024-05-08T12:24:29.000Z</time>
      </trkpt>
      <trkpt lat="43.59205" lon="6.46721">
        <ele>492</ele>
        <time>2024-05-08T12:24:33.000Z</time>
      </trkpt>
      <trkpt lat="43.59208" lon="6.46717">
        <ele>494</ele>
        <time>2024-05-08T12:24:37.000Z</time>
      </trkpt>
      <trkpt lat="43.59213" lon="6.46707">
        <ele>494</ele>
        <time>2024-05-08T12:24:45.000Z</time>
      </trkpt>
      <trkpt lat="43.59213" lon="6.46705">
        <ele>494</ele>
        <time>2024-05-08T12:24:47.000Z</time>
      </trkpt>
      <trkpt lat="43.59214" lon="6.46703">
        <ele>494</ele>
        <time>2024-05-08T12:24:49.000Z</time>
      </trkpt>
      <trkpt lat="43.59215" lon="6.467">
        <ele>494</ele>
        <time>2024-05-08T12:24:51.000Z</time>
      </trkpt>
      <trkpt lat="43.59216" lon="6.46697">
        <ele>494</ele>
        <time>2024-05-08T12:24:53.000Z</time>
      </trkpt>
      <trkpt lat="43.59216" lon="6.46694">
        <ele>495</ele>
        <time>2024-05-08T12:24:55.000Z</time>
      </trkpt>
      <trkpt lat="43.59217" lon="6.46692">
        <ele>495</ele>
        <time>2024-05-08T12:24:57.000Z</time>
      </trkpt>
      <trkpt lat="43.59217" lon="6.46689">
        <ele>496</ele>
        <time>2024-05-08T12:24:59.000Z</time>
      </trkpt>
      <trkpt lat="43.59218" lon="6.4668">
        <ele>495</ele>
        <time>2024-05-08T12:25:05.000Z</time>
      </trkpt>
      <trkpt lat="43.59217" lon="6.46678">
        <ele>495</ele>
        <time>2024-05-08T12:25:07.000Z</time>
      </trkpt>
      <trkpt lat="43.59218" lon="6.46676">
        <ele>495</ele>
        <time>2024-05-08T12:25:09.000Z</time>
      </trkpt>
      <trkpt lat="43.59218" lon="6.46673">
        <ele>495</ele>
        <time>2024-05-08T12:25:11.000Z</time>
      </trkpt>
      <trkpt lat="43.59219" lon="6.46659">
        <ele>495</ele>
        <time>2024-05-08T12:25:21.000Z</time>
      </trkpt>
      <trkpt lat="43.59225" lon="6.4664">
        <ele>497</ele>
        <time>2024-05-08T12:25:35.000Z</time>
      </trkpt>
      <trkpt lat="43.59226" lon="6.46637">
        <ele>497</ele>
        <time>2024-05-08T12:25:37.000Z</time>
      </trkpt>
      <trkpt lat="43.59228" lon="6.46632">
        <ele>498</ele>
        <time>2024-05-08T12:25:41.000Z</time>
      </trkpt>
      <trkpt lat="43.59231" lon="6.46627">
        <ele>499</ele>
        <time>2024-05-08T12:25:45.000Z</time>
      </trkpt>
      <trkpt lat="43.59233" lon="6.46622">
        <ele>499</ele>
        <time>2024-05-08T12:25:49.000Z</time>
      </trkpt>
      <trkpt lat="43.59235" lon="6.46618">
        <ele>500</ele>
        <time>2024-05-08T12:25:53.000Z</time>
      </trkpt>
      <trkpt lat="43.59237" lon="6.46614">
        <ele>502</ele>
        <time>2024-05-08T12:25:57.000Z</time>
      </trkpt>
      <trkpt lat="43.59246" lon="6.46591">
        <ele>505</ele>
        <time>2024-05-08T12:26:15.000Z</time>
      </trkpt>
      <trkpt lat="43.59246" lon="6.46584">
        <ele>505</ele>
        <time>2024-05-08T12:26:21.000Z</time>
      </trkpt>
      <trkpt lat="43.59246" lon="6.46578">
        <ele>506</ele>
        <time>2024-05-08T12:26:25.000Z</time>
      </trkpt>
      <trkpt lat="43.59246" lon="6.46574">
        <ele>506</ele>
        <time>2024-05-08T12:26:29.000Z</time>
      </trkpt>
      <trkpt lat="43.59239" lon="6.46551">
        <ele>505</ele>
        <time>2024-05-08T12:26:46.000Z</time>
      </trkpt>
      <trkpt lat="43.59238" lon="6.46548">
        <ele>505</ele>
        <time>2024-05-08T12:26:48.000Z</time>
      </trkpt>
      <trkpt lat="43.59235" lon="6.46535">
        <ele>506</ele>
        <time>2024-05-08T12:26:56.000Z</time>
      </trkpt>
      <trkpt lat="43.59235" lon="6.46532">
        <ele>506</ele>
        <time>2024-05-08T12:26:58.000Z</time>
      </trkpt>
      <trkpt lat="43.59228" lon="6.46517">
        <ele>506</ele>
        <time>2024-05-08T12:27:11.000Z</time>
      </trkpt>
      <trkpt lat="43.59226" lon="6.46514">
        <ele>505</ele>
        <time>2024-05-08T12:27:13.000Z</time>
      </trkpt>
      <trkpt lat="43.59215" lon="6.46501">
        <ele>506</ele>
        <time>2024-05-08T12:27:27.000Z</time>
      </trkpt>
      <trkpt lat="43.59214" lon="6.46498">
        <ele>506</ele>
        <time>2024-05-08T12:27:29.000Z</time>
      </trkpt>
      <trkpt lat="43.59213" lon="6.46495">
        <ele>506</ele>
        <time>2024-05-08T12:27:31.000Z</time>
      </trkpt>
      <trkpt lat="43.59211" lon="6.46481">
        <ele>510</ele>
        <time>2024-05-08T12:27:41.000Z</time>
      </trkpt>
      <trkpt lat="43.59211" lon="6.46478">
        <ele>510</ele>
        <time>2024-05-08T12:27:43.000Z</time>
      </trkpt>
      <trkpt lat="43.59213" lon="6.46469">
        <ele>513</ele>
        <time>2024-05-08T12:27:49.000Z</time>
      </trkpt>
      <trkpt lat="43.59213" lon="6.46461">
        <ele>514</ele>
        <time>2024-05-08T12:27:53.000Z</time>
      </trkpt>
      <trkpt lat="43.59214" lon="6.46459">
        <ele>514</ele>
        <time>2024-05-08T12:27:55.000Z</time>
      </trkpt>
      <trkpt lat="43.59215" lon="6.46456">
        <ele>514</ele>
        <time>2024-05-08T12:27:57.000Z</time>
      </trkpt>
      <trkpt lat="43.59215" lon="6.46453">
        <ele>514</ele>
        <time>2024-05-08T12:27:59.000Z</time>
      </trkpt>
      <trkpt lat="43.59213" lon="6.46431">
        <ele>514</ele>
        <time>2024-05-08T12:28:13.000Z</time>
      </trkpt>
      <trkpt lat="43.59212" lon="6.46428">
        <ele>513</ele>
        <time>2024-05-08T12:28:15.000Z</time>
      </trkpt>
      <trkpt lat="43.59211" lon="6.46408">
        <ele>513</ele>
        <time>2024-05-08T12:28:27.000Z</time>
      </trkpt>
      <trkpt lat="43.59211" lon="6.46405">
        <ele>513</ele>
        <time>2024-05-08T12:28:29.000Z</time>
      </trkpt>
      <trkpt lat="43.59211" lon="6.46402">
        <ele>513</ele>
        <time>2024-05-08T12:28:31.000Z</time>
      </trkpt>
      <trkpt lat="43.5921" lon="6.46399">
        <ele>513</ele>
        <time>2024-05-08T12:28:33.000Z</time>
      </trkpt>
      <trkpt lat="43.5921" lon="6.46395">
        <ele>513</ele>
        <time>2024-05-08T12:28:35.000Z</time>
      </trkpt>
      <trkpt lat="43.59209" lon="6.46392">
        <ele>513</ele>
        <time>2024-05-08T12:28:37.000Z</time>
      </trkpt>
      <trkpt lat="43.59209" lon="6.46389">
        <ele>513</ele>
        <time>2024-05-08T12:28:39.000Z</time>
      </trkpt>
      <trkpt lat="43.5921" lon="6.46386">
        <ele>513</ele>
        <time>2024-05-08T12:28:41.000Z</time>
      </trkpt>
      <trkpt lat="43.59206" lon="6.46371">
        <ele>511</ele>
        <time>2024-05-08T12:28:51.000Z</time>
      </trkpt>
      <trkpt lat="43.59205" lon="6.46369">
        <ele>512</ele>
        <time>2024-05-08T12:28:53.000Z</time>
      </trkpt>
      <trkpt lat="43.59199" lon="6.46359">
        <ele>513</ele>
        <time>2024-05-08T12:29:02.000Z</time>
      </trkpt>
      <trkpt lat="43.59188" lon="6.46348">
        <ele>516</ele>
        <time>2024-05-08T12:29:14.000Z</time>
      </trkpt>
      <trkpt lat="43.59184" lon="6.46345">
        <ele>515</ele>
        <time>2024-05-08T12:29:17.000Z</time>
      </trkpt>
      <trkpt lat="43.59182" lon="6.46343">
        <ele>515</ele>
        <time>2024-05-08T12:29:19.000Z</time>
      </trkpt>
      <trkpt lat="43.59181" lon="6.46341">
        <ele>515</ele>
        <time>2024-05-08T12:29:21.000Z</time>
      </trkpt>
      <trkpt lat="43.59179" lon="6.4634">
        <ele>514</ele>
        <time>2024-05-08T12:29:23.000Z</time>
      </trkpt>
      <trkpt lat="43.59176" lon="6.46336">
        <ele>514</ele>
        <time>2024-05-08T12:29:27.000Z</time>
      </trkpt>
      <trkpt lat="43.59175" lon="6.46335">
        <ele>514</ele>
        <time>2024-05-08T12:29:28.000Z</time>
      </trkpt>
      <trkpt lat="43.59173" lon="6.46334">
        <ele>515</ele>
        <time>2024-05-08T12:29:30.000Z</time>
      </trkpt>
      <trkpt lat="43.59168" lon="6.46327">
        <ele>516</ele>
        <time>2024-05-08T12:29:35.000Z</time>
      </trkpt>
      <trkpt lat="43.59166" lon="6.46326">
        <ele>516</ele>
        <time>2024-05-08T12:29:37.000Z</time>
      </trkpt>
      <trkpt lat="43.59165" lon="6.46324">
        <ele>516</ele>
        <time>2024-05-08T12:29:39.000Z</time>
      </trkpt>
      <trkpt lat="43.59164" lon="6.46322">
        <ele>516</ele>
        <time>2024-05-08T12:29:41.000Z</time>
      </trkpt>
      <trkpt lat="43.59162" lon="6.46319">
        <ele>516</ele>
        <time>2024-05-08T12:29:44.000Z</time>
      </trkpt>
      <trkpt lat="43.5916" lon="6.46317">
        <ele>516</ele>
        <time>2024-05-08T12:29:46.000Z</time>
      </trkpt>
      <trkpt lat="43.59158" lon="6.46316">
        <ele>517</ele>
        <time>2024-05-08T12:29:48.000Z</time>
      </trkpt>
      <trkpt lat="43.59156" lon="6.46314">
        <ele>517</ele>
        <time>2024-05-08T12:29:50.000Z</time>
      </trkpt>
      <trkpt lat="43.59154" lon="6.46313">
        <ele>518</ele>
        <time>2024-05-08T12:29:52.000Z</time>
      </trkpt>
      <trkpt lat="43.59152" lon="6.46312">
        <ele>518</ele>
        <time>2024-05-08T12:29:54.000Z</time>
      </trkpt>
      <trkpt lat="43.5915" lon="6.46311">
        <ele>517</ele>
        <time>2024-05-08T12:29:56.000Z</time>
      </trkpt>
      <trkpt lat="43.59147" lon="6.4631">
        <ele>517</ele>
        <time>2024-05-08T12:29:58.000Z</time>
      </trkpt>
      <trkpt lat="43.59144" lon="6.46309">
        <ele>517</ele>
        <time>2024-05-08T12:30:02.000Z</time>
      </trkpt>
      <trkpt lat="43.59137" lon="6.46306">
        <ele>520</ele>
        <time>2024-05-08T12:30:09.000Z</time>
      </trkpt>
      <trkpt lat="43.59135" lon="6.46305">
        <ele>521</ele>
        <time>2024-05-08T12:30:10.000Z</time>
      </trkpt>
      <trkpt lat="43.59133" lon="6.46304">
        <ele>521</ele>
        <time>2024-05-08T12:30:12.000Z</time>
      </trkpt>
      <trkpt lat="43.59132" lon="6.46302">
        <ele>521</ele>
        <time>2024-05-08T12:30:13.000Z</time>
      </trkpt>
      <trkpt lat="43.59131" lon="6.463">
        <ele>521</ele>
        <time>2024-05-08T12:30:14.000Z</time>
      </trkpt>
      <trkpt lat="43.59129" lon="6.46291">
        <ele>520</ele>
        <time>2024-05-08T12:30:18.000Z</time>
      </trkpt>
      <trkpt lat="43.59129" lon="6.46288">
        <ele>521</ele>
        <time>2024-05-08T12:30:19.000Z</time>
      </trkpt>
      <trkpt lat="43.59128" lon="6.46285">
        <ele>521</ele>
        <time>2024-05-08T12:30:21.000Z</time>
      </trkpt>
      <trkpt lat="43.59127" lon="6.46283">
        <ele>521</ele>
        <time>2024-05-08T12:30:22.000Z</time>
      </trkpt>
      <trkpt lat="43.59127" lon="6.46281">
        <ele>521</ele>
        <time>2024-05-08T12:30:23.000Z</time>
      </trkpt>
      <trkpt lat="43.59123" lon="6.4627">
        <ele>521</ele>
        <time>2024-05-08T12:30:29.000Z</time>
      </trkpt>
      <trkpt lat="43.59123" lon="6.46267">
        <ele>521</ele>
        <time>2024-05-08T12:30:31.000Z</time>
      </trkpt>
      <trkpt lat="43.59121" lon="6.4626">
        <ele>522</ele>
        <time>2024-05-08T12:30:37.000Z</time>
      </trkpt>
      <trkpt lat="43.5912" lon="6.46257">
        <ele>522</ele>
        <time>2024-05-08T12:30:39.000Z</time>
      </trkpt>
      <trkpt lat="43.5912" lon="6.46252">
        <ele>522</ele>
        <time>2024-05-08T12:30:42.000Z</time>
      </trkpt>
      <trkpt lat="43.59119" lon="6.4625">
        <ele>521</ele>
        <time>2024-05-08T12:30:44.000Z</time>
      </trkpt>
      <trkpt lat="43.59118" lon="6.46244">
        <ele>521</ele>
        <time>2024-05-08T12:30:48.000Z</time>
      </trkpt>
      <trkpt lat="43.59117" lon="6.46241">
        <ele>521</ele>
        <time>2024-05-08T12:30:50.000Z</time>
      </trkpt>
      <trkpt lat="43.59114" lon="6.46238">
        <ele>521</ele>
        <time>2024-05-08T12:30:53.000Z</time>
      </trkpt>
      <trkpt lat="43.59114" lon="6.46236">
        <ele>521</ele>
        <time>2024-05-08T12:30:55.000Z</time>
      </trkpt>
      <trkpt lat="43.59112" lon="6.46233">
        <ele>521</ele>
        <time>2024-05-08T12:30:57.000Z</time>
      </trkpt>
      <trkpt lat="43.5911" lon="6.4623">
        <ele>520</ele>
        <time>2024-05-08T12:30:59.000Z</time>
      </trkpt>
      <trkpt lat="43.59107" lon="6.46228">
        <ele>520</ele>
        <time>2024-05-08T12:31:01.000Z</time>
      </trkpt>
      <trkpt lat="43.59102" lon="6.46218">
        <ele>518</ele>
        <time>2024-05-08T12:31:09.000Z</time>
      </trkpt>
      <trkpt lat="43.59102" lon="6.46214">
        <ele>518</ele>
        <time>2024-05-08T12:31:11.000Z</time>
      </trkpt>
      <trkpt lat="43.59099" lon="6.46207">
        <ele>516</ele>
        <time>2024-05-08T12:31:15.000Z</time>
      </trkpt>
      <trkpt lat="43.59097" lon="6.46202">
        <ele>516</ele>
        <time>2024-05-08T12:31:19.000Z</time>
      </trkpt>
      <trkpt lat="43.59094" lon="6.46197">
        <ele>516</ele>
        <time>2024-05-08T12:31:23.000Z</time>
      </trkpt>
      <trkpt lat="43.59094" lon="6.46194">
        <ele>516</ele>
        <time>2024-05-08T12:31:25.000Z</time>
      </trkpt>
      <trkpt lat="43.59091" lon="6.46189">
        <ele>516</ele>
        <time>2024-05-08T12:31:29.000Z</time>
      </trkpt>
      <trkpt lat="43.5909" lon="6.46186">
        <ele>516</ele>
        <time>2024-05-08T12:31:31.000Z</time>
      </trkpt>
      <trkpt lat="43.5909" lon="6.46182">
        <ele>516</ele>
        <time>2024-05-08T12:31:33.000Z</time>
      </trkpt>
      <trkpt lat="43.59088" lon="6.46171">
        <ele>518</ele>
        <time>2024-05-08T12:31:41.000Z</time>
      </trkpt>
      <trkpt lat="43.59086" lon="6.46165">
        <ele>518</ele>
        <time>2024-05-08T12:31:45.000Z</time>
      </trkpt>
      <trkpt lat="43.59085" lon="6.46162">
        <ele>518</ele>
        <time>2024-05-08T12:31:47.000Z</time>
      </trkpt>
      <trkpt lat="43.59084" lon="6.46155">
        <ele>518</ele>
        <time>2024-05-08T12:31:51.000Z</time>
      </trkpt>
      <trkpt lat="43.59084" lon="6.46141">
        <ele>519</ele>
        <time>2024-05-08T12:31:59.000Z</time>
      </trkpt>
      <trkpt lat="43.59084" lon="6.46138">
        <ele>519</ele>
        <time>2024-05-08T12:32:01.000Z</time>
      </trkpt>
      <trkpt lat="43.59085" lon="6.46135">
        <ele>520</ele>
        <time>2024-05-08T12:32:03.000Z</time>
      </trkpt>
      <trkpt lat="43.59085" lon="6.46129">
        <ele>522</ele>
        <time>2024-05-08T12:32:07.000Z</time>
      </trkpt>
      <trkpt lat="43.59084" lon="6.46123">
        <ele>523</ele>
        <time>2024-05-08T12:32:11.000Z</time>
      </trkpt>
      <trkpt lat="43.59083" lon="6.46119">
        <ele>523</ele>
        <time>2024-05-08T12:32:13.000Z</time>
      </trkpt>
      <trkpt lat="43.59081" lon="6.46116">
        <ele>523</ele>
        <time>2024-05-08T12:32:15.000Z</time>
      </trkpt>
      <trkpt lat="43.5908" lon="6.46115">
        <ele>523</ele>
        <time>2024-05-08T12:32:17.000Z</time>
      </trkpt>
      <trkpt lat="43.59079" lon="6.46109">
        <ele>524</ele>
        <time>2024-05-08T12:32:21.000Z</time>
      </trkpt>
      <trkpt lat="43.59077" lon="6.46107">
        <ele>523</ele>
        <time>2024-05-08T12:32:23.000Z</time>
      </trkpt>
      <trkpt lat="43.59075" lon="6.46098">
        <ele>523</ele>
        <time>2024-05-08T12:32:30.000Z</time>
      </trkpt>
      <trkpt lat="43.59075" lon="6.46095">
        <ele>524</ele>
        <time>2024-05-08T12:32:32.000Z</time>
      </trkpt>
      <trkpt lat="43.5907" lon="6.46083">
        <ele>526</ele>
        <time>2024-05-08T12:32:40.000Z</time>
      </trkpt>
      <trkpt lat="43.59069" lon="6.46068">
        <ele>526</ele>
        <time>2024-05-08T12:32:50.000Z</time>
      </trkpt>
      <trkpt lat="43.59068" lon="6.46064">
        <ele>527</ele>
        <time>2024-05-08T12:32:52.000Z</time>
      </trkpt>
      <trkpt lat="43.59069" lon="6.46059">
        <ele>528</ele>
        <time>2024-05-08T12:32:56.000Z</time>
      </trkpt>
      <trkpt lat="43.59068" lon="6.46055">
        <ele>528</ele>
        <time>2024-05-08T12:32:58.000Z</time>
      </trkpt>
      <trkpt lat="43.59067" lon="6.46052">
        <ele>529</ele>
        <time>2024-05-08T12:33:00.000Z</time>
      </trkpt>
      <trkpt lat="43.59066" lon="6.46049">
        <ele>529</ele>
        <time>2024-05-08T12:33:02.000Z</time>
      </trkpt>
      <trkpt lat="43.59066" lon="6.46045">
        <ele>529</ele>
        <time>2024-05-08T12:33:04.000Z</time>
      </trkpt>
      <trkpt lat="43.59064" lon="6.46036">
        <ele>530</ele>
        <time>2024-05-08T12:33:10.000Z</time>
      </trkpt>
      <trkpt lat="43.59062" lon="6.4603">
        <ele>530</ele>
        <time>2024-05-08T12:33:14.000Z</time>
      </trkpt>
      <trkpt lat="43.59063" lon="6.46027">
        <ele>530</ele>
        <time>2024-05-08T12:33:16.000Z</time>
      </trkpt>
      <trkpt lat="43.59062" lon="6.46024">
        <ele>531</ele>
        <time>2024-05-08T12:33:18.000Z</time>
      </trkpt>
      <trkpt lat="43.59062" lon="6.46021">
        <ele>531</ele>
        <time>2024-05-08T12:33:20.000Z</time>
      </trkpt>
      <trkpt lat="43.59061" lon="6.46019">
        <ele>531</ele>
        <time>2024-05-08T12:33:22.000Z</time>
      </trkpt>
      <trkpt lat="43.59061" lon="6.46013">
        <ele>531</ele>
        <time>2024-05-08T12:33:26.000Z</time>
      </trkpt>
      <trkpt lat="43.59061" lon="6.46009">
        <ele>531</ele>
        <time>2024-05-08T12:33:28.000Z</time>
      </trkpt>
      <trkpt lat="43.59062" lon="6.46003">
        <ele>532</ele>
        <time>2024-05-08T12:33:32.000Z</time>
      </trkpt>
      <trkpt lat="43.59061" lon="6.46">
        <ele>532</ele>
        <time>2024-05-08T12:33:34.000Z</time>
      </trkpt>
      <trkpt lat="43.59061" lon="6.45997">
        <ele>532</ele>
        <time>2024-05-08T12:33:36.000Z</time>
      </trkpt>
      <trkpt lat="43.5906" lon="6.45995">
        <ele>531</ele>
        <time>2024-05-08T12:33:38.000Z</time>
      </trkpt>
      <trkpt lat="43.5906" lon="6.45988">
        <ele>531</ele>
        <time>2024-05-08T12:33:42.000Z</time>
      </trkpt>
      <trkpt lat="43.5906" lon="6.45984">
        <ele>531</ele>
        <time>2024-05-08T12:33:44.000Z</time>
      </trkpt>
      <trkpt lat="43.59058" lon="6.45975">
        <ele>531</ele>
        <time>2024-05-08T12:33:49.000Z</time>
      </trkpt>
      <trkpt lat="43.59055" lon="6.45971">
        <ele>531</ele>
        <time>2024-05-08T12:33:53.000Z</time>
      </trkpt>
      <trkpt lat="43.59054" lon="6.45964">
        <ele>532</ele>
        <time>2024-05-08T12:33:57.000Z</time>
      </trkpt>
      <trkpt lat="43.59054" lon="6.45961">
        <ele>532</ele>
        <time>2024-05-08T12:33:59.000Z</time>
      </trkpt>
      <trkpt lat="43.59055" lon="6.45955">
        <ele>533</ele>
        <time>2024-05-08T12:34:03.000Z</time>
      </trkpt>
      <trkpt lat="43.59056" lon="6.45944">
        <ele>534</ele>
        <time>2024-05-08T12:34:08.000Z</time>
      </trkpt>
      <trkpt lat="43.59057" lon="6.4594">
        <ele>535</ele>
        <time>2024-05-08T12:34:10.000Z</time>
      </trkpt>
      <trkpt lat="43.59057" lon="6.45938">
        <ele>535</ele>
        <time>2024-05-08T12:34:12.000Z</time>
      </trkpt>
      <trkpt lat="43.59057" lon="6.45935">
        <ele>536</ele>
        <time>2024-05-08T12:34:14.000Z</time>
      </trkpt>
      <trkpt lat="43.59057" lon="6.45931">
        <ele>537</ele>
        <time>2024-05-08T12:34:16.000Z</time>
      </trkpt>
      <trkpt lat="43.59057" lon="6.45928">
        <ele>537</ele>
        <time>2024-05-08T12:34:18.000Z</time>
      </trkpt>
      <trkpt lat="43.59059" lon="6.45919">
        <ele>537</ele>
        <time>2024-05-08T12:34:24.000Z</time>
      </trkpt>
      <trkpt lat="43.59057" lon="6.45915">
        <ele>538</ele>
        <time>2024-05-08T12:34:28.000Z</time>
      </trkpt>
      <trkpt lat="43.59056" lon="6.45912">
        <ele>538</ele>
        <time>2024-05-08T12:34:30.000Z</time>
      </trkpt>
      <trkpt lat="43.59056" lon="6.45908">
        <ele>538</ele>
        <time>2024-05-08T12:34:33.000Z</time>
      </trkpt>
      <trkpt lat="43.59055" lon="6.45905">
        <ele>537</ele>
        <time>2024-05-08T12:34:35.000Z</time>
      </trkpt>
      <trkpt lat="43.59056" lon="6.45902">
        <ele>537</ele>
        <time>2024-05-08T12:34:37.000Z</time>
      </trkpt>
      <trkpt lat="43.59055" lon="6.45893">
        <ele>538</ele>
        <time>2024-05-08T12:34:44.000Z</time>
      </trkpt>
      <trkpt lat="43.59052" lon="6.45871">
        <ele>541</ele>
        <time>2024-05-08T12:34:59.000Z</time>
      </trkpt>
      <trkpt lat="43.59046" lon="6.45862">
        <ele>541</ele>
        <time>2024-05-08T12:35:07.000Z</time>
      </trkpt>
      <trkpt lat="43.59046" lon="6.45859">
        <ele>541</ele>
        <time>2024-05-08T12:35:09.000Z</time>
      </trkpt>
      <trkpt lat="43.5904" lon="6.45844">
        <ele>540</ele>
        <time>2024-05-08T12:35:20.000Z</time>
      </trkpt>
      <trkpt lat="43.59039" lon="6.45841">
        <ele>539</ele>
        <time>2024-05-08T12:35:22.000Z</time>
      </trkpt>
      <trkpt lat="43.59038" lon="6.45836">
        <ele>538</ele>
        <time>2024-05-08T12:35:26.000Z</time>
      </trkpt>
      <trkpt lat="43.59036" lon="6.45827">
        <ele>538</ele>
        <time>2024-05-08T12:35:32.000Z</time>
      </trkpt>
      <trkpt lat="43.59037" lon="6.45819">
        <ele>539</ele>
        <time>2024-05-08T12:35:36.000Z</time>
      </trkpt>
      <trkpt lat="43.59036" lon="6.45813">
        <ele>541</ele>
        <time>2024-05-08T12:35:40.000Z</time>
      </trkpt>
      <trkpt lat="43.59036" lon="6.4581">
        <ele>541</ele>
        <time>2024-05-08T12:35:42.000Z</time>
      </trkpt>
      <trkpt lat="43.59037" lon="6.45807">
        <ele>542</ele>
        <time>2024-05-08T12:35:44.000Z</time>
      </trkpt>
      <trkpt lat="43.59039" lon="6.45788">
        <ele>545</ele>
        <time>2024-05-08T12:35:56.000Z</time>
      </trkpt>
      <trkpt lat="43.59039" lon="6.45786">
        <ele>545</ele>
        <time>2024-05-08T12:35:58.000Z</time>
      </trkpt>
      <trkpt lat="43.59041" lon="6.45784">
        <ele>545</ele>
        <time>2024-05-08T12:36:00.000Z</time>
      </trkpt>
      <trkpt lat="43.59042" lon="6.4578">
        <ele>546</ele>
        <time>2024-05-08T12:36:02.000Z</time>
      </trkpt>
      <trkpt lat="43.59042" lon="6.45777">
        <ele>546</ele>
        <time>2024-05-08T12:36:04.000Z</time>
      </trkpt>
      <trkpt lat="43.5904" lon="6.45772">
        <ele>544</ele>
        <time>2024-05-08T12:36:08.000Z</time>
      </trkpt>
      <trkpt lat="43.5904" lon="6.45769">
        <ele>543</ele>
        <time>2024-05-08T12:36:10.000Z</time>
      </trkpt>
      <trkpt lat="43.5904" lon="6.45767">
        <ele>543</ele>
        <time>2024-05-08T12:36:12.000Z</time>
      </trkpt>
      <trkpt lat="43.59037" lon="6.45762">
        <ele>541</ele>
        <time>2024-05-08T12:36:16.000Z</time>
      </trkpt>
      <trkpt lat="43.59036" lon="6.45762">
        <ele>541</ele>
        <time>2024-05-08T12:36:19.000Z</time>
      </trkpt>
      <trkpt lat="43.59035" lon="6.4576">
        <ele>541</ele>
        <time>2024-05-08T12:36:24.000Z</time>
      </trkpt>
      <trkpt lat="43.59035" lon="6.45756">
        <ele>541</ele>
        <time>2024-05-08T12:36:31.000Z</time>
      </trkpt>
      <trkpt lat="43.59034" lon="6.45756">
        <ele>540</ele>
        <time>2024-05-08T12:37:32.000Z</time>
      </trkpt>
      <trkpt lat="43.59032" lon="6.45755">
        <ele>543</ele>
        <time>2024-05-08T12:37:33.000Z</time>
      </trkpt>
      <trkpt lat="43.5903" lon="6.45756">
        <ele>544</ele>
        <time>2024-05-08T12:37:34.000Z</time>
      </trkpt>
      <trkpt lat="43.59028" lon="6.45757">
        <ele>545</ele>
        <time>2024-05-08T12:37:35.000Z</time>
      </trkpt>
      <trkpt lat="43.59025" lon="6.45757">
        <ele>545</ele>
        <time>2024-05-08T12:37:37.000Z</time>
      </trkpt>
      <trkpt lat="43.59024" lon="6.45756">
        <ele>545</ele>
        <time>2024-05-08T12:37:39.000Z</time>
      </trkpt>
      <trkpt lat="43.59021" lon="6.45757">
        <ele>545</ele>
        <time>2024-05-08T12:37:41.000Z</time>
      </trkpt>
      <trkpt lat="43.59018" lon="6.45756">
        <ele>544</ele>
        <time>2024-05-08T12:37:43.000Z</time>
      </trkpt>
      <trkpt lat="43.59014" lon="6.45753">
        <ele>544</ele>
        <time>2024-05-08T12:37:47.000Z</time>
      </trkpt>
      <trkpt lat="43.59008" lon="6.45751">
        <ele>545</ele>
        <time>2024-05-08T12:37:51.000Z</time>
      </trkpt>
      <trkpt lat="43.59005" lon="6.45749">
        <ele>546</ele>
        <time>2024-05-08T12:37:53.000Z</time>
      </trkpt>
      <trkpt lat="43.59" lon="6.45741">
        <ele>546</ele>
        <time>2024-05-08T12:37:58.000Z</time>
      </trkpt>
      <trkpt lat="43.58997" lon="6.45738">
        <ele>546</ele>
        <time>2024-05-08T12:38:02.000Z</time>
      </trkpt>
      <trkpt lat="43.58992" lon="6.45728">
        <ele>547</ele>
        <time>2024-05-08T12:38:08.000Z</time>
      </trkpt>
      <trkpt lat="43.5899" lon="6.45721">
        <ele>547</ele>
        <time>2024-05-08T12:38:12.000Z</time>
      </trkpt>
      <trkpt lat="43.58988" lon="6.45719">
        <ele>548</ele>
        <time>2024-05-08T12:38:14.000Z</time>
      </trkpt>
      <trkpt lat="43.58989" lon="6.45712">
        <ele>548</ele>
        <time>2024-05-08T12:38:18.000Z</time>
      </trkpt>
      <trkpt lat="43.58986" lon="6.45699">
        <ele>549</ele>
        <time>2024-05-08T12:38:26.000Z</time>
      </trkpt>
      <trkpt lat="43.58983" lon="6.45694">
        <ele>549</ele>
        <time>2024-05-08T12:38:30.000Z</time>
      </trkpt>
      <trkpt lat="43.5898" lon="6.45692">
        <ele>549</ele>
        <time>2024-05-08T12:38:32.000Z</time>
      </trkpt>
      <trkpt lat="43.58977" lon="6.45688">
        <ele>549</ele>
        <time>2024-05-08T12:38:35.000Z</time>
      </trkpt>
      <trkpt lat="43.58975" lon="6.45687">
        <ele>549</ele>
        <time>2024-05-08T12:38:36.000Z</time>
      </trkpt>
      <trkpt lat="43.58963" lon="6.45676">
        <ele>553</ele>
        <time>2024-05-08T12:38:48.000Z</time>
      </trkpt>
      <trkpt lat="43.58961" lon="6.45674">
        <ele>553</ele>
        <time>2024-05-08T12:38:50.000Z</time>
      </trkpt>
      <trkpt lat="43.58958" lon="6.45674">
        <ele>553</ele>
        <time>2024-05-08T12:38:52.000Z</time>
      </trkpt>
      <trkpt lat="43.58953" lon="6.4567">
        <ele>554</ele>
        <time>2024-05-08T12:38:56.000Z</time>
      </trkpt>
      <trkpt lat="43.58952" lon="6.4567">
        <ele>554</ele>
        <time>2024-05-08T12:38:57.000Z</time>
      </trkpt>
      <trkpt lat="43.5895" lon="6.45669">
        <ele>554</ele>
        <time>2024-05-08T12:38:58.000Z</time>
      </trkpt>
      <trkpt lat="43.58946" lon="6.45668">
        <ele>554</ele>
        <time>2024-05-08T12:39:00.000Z</time>
      </trkpt>
      <trkpt lat="43.58939" lon="6.45663">
        <ele>554</ele>
        <time>2024-05-08T12:39:06.000Z</time>
      </trkpt>
      <trkpt lat="43.58932" lon="6.45661">
        <ele>555</ele>
        <time>2024-05-08T12:39:12.000Z</time>
      </trkpt>
      <trkpt lat="43.58925" lon="6.45661">
        <ele>556</ele>
        <time>2024-05-08T12:39:18.000Z</time>
      </trkpt>
      <trkpt lat="43.58923" lon="6.45661">
        <ele>556</ele>
        <time>2024-05-08T12:39:20.000Z</time>
      </trkpt>
      <trkpt lat="43.58913" lon="6.45658">
        <ele>557</ele>
        <time>2024-05-08T12:39:28.000Z</time>
      </trkpt>
      <trkpt lat="43.58901" lon="6.45642">
        <ele>557</ele>
        <time>2024-05-08T12:39:39.000Z</time>
      </trkpt>
      <trkpt lat="43.589" lon="6.45641">
        <ele>557</ele>
        <time>2024-05-08T12:39:40.000Z</time>
      </trkpt>
      <trkpt lat="43.58897" lon="6.45632">
        <ele>556</ele>
        <time>2024-05-08T12:39:44.000Z</time>
      </trkpt>
      <trkpt lat="43.58896" lon="6.45625">
        <ele>557</ele>
        <time>2024-05-08T12:39:48.000Z</time>
      </trkpt>
      <trkpt lat="43.58896" lon="6.45622">
        <ele>557</ele>
        <time>2024-05-08T12:39:50.000Z</time>
      </trkpt>
      <trkpt lat="43.58895" lon="6.45612">
        <ele>558</ele>
        <time>2024-05-08T12:39:55.000Z</time>
      </trkpt>
      <trkpt lat="43.58895" lon="6.45606">
        <ele>558</ele>
        <time>2024-05-08T12:39:58.000Z</time>
      </trkpt>
      <trkpt lat="43.58895" lon="6.45601">
        <ele>558</ele>
        <time>2024-05-08T12:40:00.000Z</time>
      </trkpt>
      <trkpt lat="43.58895" lon="6.45595">
        <ele>558</ele>
        <time>2024-05-08T12:40:03.000Z</time>
      </trkpt>
      <trkpt lat="43.58896" lon="6.45589">
        <ele>558</ele>
        <time>2024-05-08T12:40:07.000Z</time>
      </trkpt>
      <trkpt lat="43.58896" lon="6.45586">
        <ele>558</ele>
        <time>2024-05-08T12:40:09.000Z</time>
      </trkpt>
      <trkpt lat="43.58895" lon="6.4558">
        <ele>558</ele>
        <time>2024-05-08T12:40:12.000Z</time>
      </trkpt>
      <trkpt lat="43.58895" lon="6.45575">
        <ele>558</ele>
        <time>2024-05-08T12:40:14.000Z</time>
      </trkpt>
      <trkpt lat="43.58895" lon="6.45569">
        <ele>558</ele>
        <time>2024-05-08T12:40:17.000Z</time>
      </trkpt>
      <trkpt lat="43.58895" lon="6.45565">
        <ele>558</ele>
        <time>2024-05-08T12:40:19.000Z</time>
      </trkpt>
      <trkpt lat="43.58893" lon="6.45557">
        <ele>560</ele>
        <time>2024-05-08T12:40:26.000Z</time>
      </trkpt>
      <trkpt lat="43.58893" lon="6.45555">
        <ele>560</ele>
        <time>2024-05-08T12:40:28.000Z</time>
      </trkpt>
      <trkpt lat="43.58893" lon="6.45543">
        <ele>562</ele>
        <time>2024-05-08T12:40:35.000Z</time>
      </trkpt>
      <trkpt lat="43.58893" lon="6.4554">
        <ele>562</ele>
        <time>2024-05-08T12:40:37.000Z</time>
      </trkpt>
      <trkpt lat="43.58891" lon="6.4552">
        <ele>562</ele>
        <time>2024-05-08T12:40:49.000Z</time>
      </trkpt>
      <trkpt lat="43.58891" lon="6.45516">
        <ele>563</ele>
        <time>2024-05-08T12:40:51.000Z</time>
      </trkpt>
      <trkpt lat="43.5889" lon="6.4551">
        <ele>564</ele>
        <time>2024-05-08T12:40:55.000Z</time>
      </trkpt>
      <trkpt lat="43.58888" lon="6.45502">
        <ele>563</ele>
        <time>2024-05-08T12:40:59.000Z</time>
      </trkpt>
      <trkpt lat="43.58886" lon="6.455">
        <ele>563</ele>
        <time>2024-05-08T12:41:01.000Z</time>
      </trkpt>
      <trkpt lat="43.58886" lon="6.45498">
        <ele>562</ele>
        <time>2024-05-08T12:41:03.000Z</time>
      </trkpt>
      <trkpt lat="43.58884" lon="6.45494">
        <ele>562</ele>
        <time>2024-05-08T12:41:05.000Z</time>
      </trkpt>
      <trkpt lat="43.58883" lon="6.45492">
        <ele>562</ele>
        <time>2024-05-08T12:41:07.000Z</time>
      </trkpt>
      <trkpt lat="43.58883" lon="6.45487">
        <ele>562</ele>
        <time>2024-05-08T12:41:09.000Z</time>
      </trkpt>
      <trkpt lat="43.5888" lon="6.45482">
        <ele>562</ele>
        <time>2024-05-08T12:41:12.000Z</time>
      </trkpt>
      <trkpt lat="43.58879" lon="6.45479">
        <ele>563</ele>
        <time>2024-05-08T12:41:14.000Z</time>
      </trkpt>
      <trkpt lat="43.58878" lon="6.45477">
        <ele>562</ele>
        <time>2024-05-08T12:41:16.000Z</time>
      </trkpt>
      <trkpt lat="43.58877" lon="6.45475">
        <ele>563</ele>
        <time>2024-05-08T12:41:18.000Z</time>
      </trkpt>
      <trkpt lat="43.58876" lon="6.45472">
        <ele>563</ele>
        <time>2024-05-08T12:41:20.000Z</time>
      </trkpt>
      <trkpt lat="43.58876" lon="6.45468">
        <ele>564</ele>
        <time>2024-05-08T12:41:22.000Z</time>
      </trkpt>
      <trkpt lat="43.58875" lon="6.45461">
        <ele>565</ele>
        <time>2024-05-08T12:41:26.000Z</time>
      </trkpt>
      <trkpt lat="43.58874" lon="6.45458">
        <ele>565</ele>
        <time>2024-05-08T12:41:28.000Z</time>
      </trkpt>
      <trkpt lat="43.5887" lon="6.45454">
        <ele>566</ele>
        <time>2024-05-08T12:41:32.000Z</time>
      </trkpt>
      <trkpt lat="43.58869" lon="6.45452">
        <ele>566</ele>
        <time>2024-05-08T12:41:33.000Z</time>
      </trkpt>
      <trkpt lat="43.58868" lon="6.4545">
        <ele>566</ele>
        <time>2024-05-08T12:41:34.000Z</time>
      </trkpt>
      <trkpt lat="43.58867" lon="6.45445">
        <ele>566</ele>
        <time>2024-05-08T12:41:37.000Z</time>
      </trkpt>
      <trkpt lat="43.58868" lon="6.45443">
        <ele>565</ele>
        <time>2024-05-08T12:41:43.000Z</time>
      </trkpt>
      <trkpt lat="43.58869" lon="6.45442">
        <ele>565</ele>
        <time>2024-05-08T12:41:45.000Z</time>
      </trkpt>
      <trkpt lat="43.58871" lon="6.45442">
        <ele>564</ele>
        <time>2024-05-08T12:41:48.000Z</time>
      </trkpt>
      <trkpt lat="43.5887" lon="6.45438">
        <ele>563</ele>
        <time>2024-05-08T12:41:53.000Z</time>
      </trkpt>
      <trkpt lat="43.5886" lon="6.45417">
        <ele>562</ele>
        <time>2024-05-08T12:42:04.000Z</time>
      </trkpt>
      <trkpt lat="43.58859" lon="6.45414">
        <ele>563</ele>
        <time>2024-05-08T12:42:06.000Z</time>
      </trkpt>
      <trkpt lat="43.58858" lon="6.45408">
        <ele>565</ele>
        <time>2024-05-08T12:42:10.000Z</time>
      </trkpt>
      <trkpt lat="43.58857" lon="6.45405">
        <ele>565</ele>
        <time>2024-05-08T12:42:12.000Z</time>
      </trkpt>
      <trkpt lat="43.58857" lon="6.45402">
        <ele>565</ele>
        <time>2024-05-08T12:42:14.000Z</time>
      </trkpt>
      <trkpt lat="43.58856" lon="6.45393">
        <ele>565</ele>
        <time>2024-05-08T12:42:18.000Z</time>
      </trkpt>
      <trkpt lat="43.58856" lon="6.4539">
        <ele>565</ele>
        <time>2024-05-08T12:42:20.000Z</time>
      </trkpt>
      <trkpt lat="43.58857" lon="6.45387">
        <ele>565</ele>
        <time>2024-05-08T12:42:21.000Z</time>
      </trkpt>
      <trkpt lat="43.58857" lon="6.45378">
        <ele>567</ele>
        <time>2024-05-08T12:42:26.000Z</time>
      </trkpt>
      <trkpt lat="43.58857" lon="6.45374">
        <ele>567</ele>
        <time>2024-05-08T12:42:28.000Z</time>
      </trkpt>
      <trkpt lat="43.5886" lon="6.45353">
        <ele>567</ele>
        <time>2024-05-08T12:42:42.000Z</time>
      </trkpt>
      <trkpt lat="43.5886" lon="6.4535">
        <ele>567</ele>
        <time>2024-05-08T12:42:47.000Z</time>
      </trkpt>
      <trkpt lat="43.58862" lon="6.45341">
        <ele>567</ele>
        <time>2024-05-08T12:43:07.000Z</time>
      </trkpt>
      <trkpt lat="43.58862" lon="6.45338">
        <ele>567</ele>
        <time>2024-05-08T12:43:09.000Z</time>
      </trkpt>
      <trkpt lat="43.58862" lon="6.45335">
        <ele>567</ele>
        <time>2024-05-08T12:43:11.000Z</time>
      </trkpt>
      <trkpt lat="43.58863" lon="6.45332">
        <ele>567</ele>
        <time>2024-05-08T12:43:13.000Z</time>
      </trkpt>
      <trkpt lat="43.58864" lon="6.4532">
        <ele>568</ele>
        <time>2024-05-08T12:43:22.000Z</time>
      </trkpt>
      <trkpt lat="43.58872" lon="6.45288">
        <ele>571</ele>
        <time>2024-05-08T12:43:43.000Z</time>
      </trkpt>
      <trkpt lat="43.58873" lon="6.45278">
        <ele>570</ele>
        <time>2024-05-08T12:43:48.000Z</time>
      </trkpt>
      <trkpt lat="43.58874" lon="6.45276">
        <ele>570</ele>
        <time>2024-05-08T12:43:49.000Z</time>
      </trkpt>
      <trkpt lat="43.58875" lon="6.45273">
        <ele>571</ele>
        <time>2024-05-08T12:43:51.000Z</time>
      </trkpt>
      <trkpt lat="43.58874" lon="6.4527">
        <ele>571</ele>
        <time>2024-05-08T12:43:53.000Z</time>
      </trkpt>
      <trkpt lat="43.58876" lon="6.45265">
        <ele>572</ele>
        <time>2024-05-08T12:43:57.000Z</time>
      </trkpt>
      <trkpt lat="43.58876" lon="6.45258">
        <ele>574</ele>
        <time>2024-05-08T12:44:01.000Z</time>
      </trkpt>
      <trkpt lat="43.58877" lon="6.45256">
        <ele>574</ele>
        <time>2024-05-08T12:44:03.000Z</time>
      </trkpt>
      <trkpt lat="43.58877" lon="6.45251">
        <ele>575</ele>
        <time>2024-05-08T12:44:05.000Z</time>
      </trkpt>
      <trkpt lat="43.58877" lon="6.45249">
        <ele>575</ele>
        <time>2024-05-08T12:44:06.000Z</time>
      </trkpt>
      <trkpt lat="43.58877" lon="6.45246">
        <ele>576</ele>
        <time>2024-05-08T12:44:08.000Z</time>
      </trkpt>
      <trkpt lat="43.58877" lon="6.45241">
        <ele>579</ele>
        <time>2024-05-08T12:44:12.000Z</time>
      </trkpt>
      <trkpt lat="43.58878" lon="6.45236">
        <ele>579</ele>
        <time>2024-05-08T12:44:16.000Z</time>
      </trkpt>
      <trkpt lat="43.58878" lon="6.45235">
        <ele>579</ele>
        <time>2024-05-08T12:44:19.000Z</time>
      </trkpt>
      <trkpt lat="43.58876" lon="6.45223">
        <ele>578</ele>
        <time>2024-05-08T12:46:55.000Z</time>
      </trkpt>
      <trkpt lat="43.58877" lon="6.45234">
        <ele>579</ele>
        <time>2024-05-08T12:48:20.000Z</time>
      </trkpt>
      <trkpt lat="43.58877" lon="6.45232">
        <ele>580</ele>
        <time>2024-05-08T12:49:33.000Z</time>
      </trkpt>
      <trkpt lat="43.58878" lon="6.45232">
        <ele>580</ele>
        <time>2024-05-08T12:49:36.000Z</time>
      </trkpt>
      <trkpt lat="43.58879" lon="6.4523">
        <ele>579</ele>
        <time>2024-05-08T12:49:38.000Z</time>
      </trkpt>
      <trkpt lat="43.58879" lon="6.45227">
        <ele>579</ele>
        <time>2024-05-08T12:49:40.000Z</time>
      </trkpt>
      <trkpt lat="43.5888" lon="6.45223">
        <ele>578</ele>
        <time>2024-05-08T12:49:45.000Z</time>
      </trkpt>
      <trkpt lat="43.58879" lon="6.4522">
        <ele>578</ele>
        <time>2024-05-08T12:49:48.000Z</time>
      </trkpt>
      <trkpt lat="43.58879" lon="6.45218">
        <ele>578</ele>
        <time>2024-05-08T12:49:52.000Z</time>
      </trkpt>
      <trkpt lat="43.5888" lon="6.45215">
        <ele>578</ele>
        <time>2024-05-08T12:49:55.000Z</time>
      </trkpt>
      <trkpt lat="43.58879" lon="6.45212">
        <ele>578</ele>
        <time>2024-05-08T12:49:57.000Z</time>
      </trkpt>
      <trkpt lat="43.5888" lon="6.45207">
        <ele>578</ele>
        <time>2024-05-08T12:50:00.000Z</time>
      </trkpt>
      <trkpt lat="43.5888" lon="6.45205">
        <ele>579</ele>
        <time>2024-05-08T12:50:02.000Z</time>
      </trkpt>
      <trkpt lat="43.5888" lon="6.45202">
        <ele>579</ele>
        <time>2024-05-08T12:50:05.000Z</time>
      </trkpt>
      <trkpt lat="43.5888" lon="6.452">
        <ele>579</ele>
        <time>2024-05-08T12:50:08.000Z</time>
      </trkpt>
      <trkpt lat="43.5888" lon="6.45195">
        <ele>579</ele>
        <time>2024-05-08T12:50:17.000Z</time>
      </trkpt>
      <trkpt lat="43.5888" lon="6.45193">
        <ele>580</ele>
        <time>2024-05-08T12:50:19.000Z</time>
      </trkpt>
      <trkpt lat="43.58879" lon="6.45189">
        <ele>579</ele>
        <time>2024-05-08T12:50:25.000Z</time>
      </trkpt>
      <trkpt lat="43.58878" lon="6.45187">
        <ele>579</ele>
        <time>2024-05-08T12:50:29.000Z</time>
      </trkpt>
      <trkpt lat="43.58877" lon="6.45185">
        <ele>579</ele>
        <time>2024-05-08T12:50:31.000Z</time>
      </trkpt>
      <trkpt lat="43.58877" lon="6.45182">
        <ele>579</ele>
        <time>2024-05-08T12:50:33.000Z</time>
      </trkpt>
      <trkpt lat="43.58876" lon="6.45177">
        <ele>579</ele>
        <time>2024-05-08T12:50:38.000Z</time>
      </trkpt>
      <trkpt lat="43.58874" lon="6.45173">
        <ele>579</ele>
        <time>2024-05-08T12:50:42.000Z</time>
      </trkpt>
      <trkpt lat="43.58873" lon="6.4517">
        <ele>579</ele>
        <time>2024-05-08T12:50:44.000Z</time>
      </trkpt>
      <trkpt lat="43.58871" lon="6.45168">
        <ele>579</ele>
        <time>2024-05-08T12:50:46.000Z</time>
      </trkpt>
      <trkpt lat="43.58865" lon="6.45159">
        <ele>579</ele>
        <time>2024-05-08T12:50:54.000Z</time>
      </trkpt>
      <trkpt lat="43.58864" lon="6.45156">
        <ele>579</ele>
        <time>2024-05-08T12:50:57.000Z</time>
      </trkpt>
      <trkpt lat="43.58862" lon="6.45154">
        <ele>579</ele>
        <time>2024-05-08T12:50:59.000Z</time>
      </trkpt>
      <trkpt lat="43.58859" lon="6.4515">
        <ele>580</ele>
        <time>2024-05-08T12:51:03.000Z</time>
      </trkpt>
      <trkpt lat="43.58858" lon="6.45147">
        <ele>580</ele>
        <time>2024-05-08T12:51:05.000Z</time>
      </trkpt>
      <trkpt lat="43.58855" lon="6.45143">
        <ele>580</ele>
        <time>2024-05-08T12:51:09.000Z</time>
      </trkpt>
      <trkpt lat="43.58851" lon="6.45138">
        <ele>580</ele>
        <time>2024-05-08T12:51:13.000Z</time>
      </trkpt>
      <trkpt lat="43.58844" lon="6.45127">
        <ele>580</ele>
        <time>2024-05-08T12:51:22.000Z</time>
      </trkpt>
      <trkpt lat="43.58843" lon="6.45124">
        <ele>580</ele>
        <time>2024-05-08T12:51:24.000Z</time>
      </trkpt>
      <trkpt lat="43.58842" lon="6.45122">
        <ele>580</ele>
        <time>2024-05-08T12:51:26.000Z</time>
      </trkpt>
      <trkpt lat="43.5884" lon="6.45119">
        <ele>580</ele>
        <time>2024-05-08T12:51:28.000Z</time>
      </trkpt>
      <trkpt lat="43.58836" lon="6.45115">
        <ele>580</ele>
        <time>2024-05-08T12:51:32.000Z</time>
      </trkpt>
      <trkpt lat="43.58834" lon="6.45112">
        <ele>579</ele>
        <time>2024-05-08T12:51:34.000Z</time>
      </trkpt>
      <trkpt lat="43.58832" lon="6.45107">
        <ele>579</ele>
        <time>2024-05-08T12:51:37.000Z</time>
      </trkpt>
      <trkpt lat="43.58831" lon="6.45105">
        <ele>579</ele>
        <time>2024-05-08T12:51:39.000Z</time>
      </trkpt>
      <trkpt lat="43.58829" lon="6.45103">
        <ele>579</ele>
        <time>2024-05-08T12:51:41.000Z</time>
      </trkpt>
      <trkpt lat="43.58828" lon="6.45101">
        <ele>579</ele>
        <time>2024-05-08T12:51:43.000Z</time>
      </trkpt>
      <trkpt lat="43.58827" lon="6.45098">
        <ele>579</ele>
        <time>2024-05-08T12:51:45.000Z</time>
      </trkpt>
      <trkpt lat="43.58825" lon="6.45096">
        <ele>579</ele>
        <time>2024-05-08T12:51:47.000Z</time>
      </trkpt>
      <trkpt lat="43.58821" lon="6.45092">
        <ele>579</ele>
        <time>2024-05-08T12:51:51.000Z</time>
      </trkpt>
      <trkpt lat="43.58815" lon="6.45082">
        <ele>579</ele>
        <time>2024-05-08T12:51:58.000Z</time>
      </trkpt>
      <trkpt lat="43.58813" lon="6.45079">
        <ele>579</ele>
        <time>2024-05-08T12:52:00.000Z</time>
      </trkpt>
      <trkpt lat="43.58812" lon="6.45077">
        <ele>579</ele>
        <time>2024-05-08T12:52:02.000Z</time>
      </trkpt>
      <trkpt lat="43.58812" lon="6.45074">
        <ele>579</ele>
        <time>2024-05-08T12:52:04.000Z</time>
      </trkpt>
      <trkpt lat="43.5881" lon="6.45072">
        <ele>579</ele>
        <time>2024-05-08T12:52:06.000Z</time>
      </trkpt>
      <trkpt lat="43.58809" lon="6.4507">
        <ele>579</ele>
        <time>2024-05-08T12:52:08.000Z</time>
      </trkpt>
      <trkpt lat="43.58795" lon="6.45062">
        <ele>582</ele>
        <time>2024-05-08T12:52:21.000Z</time>
      </trkpt>
      <trkpt lat="43.58792" lon="6.45061">
        <ele>583</ele>
        <time>2024-05-08T12:52:23.000Z</time>
      </trkpt>
      <trkpt lat="43.58789" lon="6.45061">
        <ele>584</ele>
        <time>2024-05-08T12:52:25.000Z</time>
      </trkpt>
      <trkpt lat="43.58787" lon="6.4506">
        <ele>585</ele>
        <time>2024-05-08T12:52:28.000Z</time>
      </trkpt>
      <trkpt lat="43.58785" lon="6.45059">
        <ele>586</ele>
        <time>2024-05-08T12:52:30.000Z</time>
      </trkpt>
      <trkpt lat="43.58776" lon="6.45055">
        <ele>586</ele>
        <time>2024-05-08T12:52:40.000Z</time>
      </trkpt>
      <trkpt lat="43.58773" lon="6.45053">
        <ele>587</ele>
        <time>2024-05-08T12:52:44.000Z</time>
      </trkpt>
      <trkpt lat="43.58771" lon="6.45051">
        <ele>587</ele>
        <time>2024-05-08T12:52:47.000Z</time>
      </trkpt>
      <trkpt lat="43.58766" lon="6.45051">
        <ele>589</ele>
        <time>2024-05-08T12:52:51.000Z</time>
      </trkpt>
      <trkpt lat="43.5876" lon="6.4505">
        <ele>589</ele>
        <time>2024-05-08T12:52:56.000Z</time>
      </trkpt>
      <trkpt lat="43.58758" lon="6.45047">
        <ele>590</ele>
        <time>2024-05-08T12:52:58.000Z</time>
      </trkpt>
      <trkpt lat="43.58756" lon="6.45039">
        <ele>588</ele>
        <time>2024-05-08T12:53:02.000Z</time>
      </trkpt>
      <trkpt lat="43.58757" lon="6.45033">
        <ele>587</ele>
        <time>2024-05-08T12:53:06.000Z</time>
      </trkpt>
      <trkpt lat="43.58757" lon="6.45031">
        <ele>586</ele>
        <time>2024-05-08T12:53:08.000Z</time>
      </trkpt>
      <trkpt lat="43.58757" lon="6.45029">
        <ele>586</ele>
        <time>2024-05-08T12:53:10.000Z</time>
      </trkpt>
      <trkpt lat="43.58758" lon="6.45023">
        <ele>585</ele>
        <time>2024-05-08T12:53:13.000Z</time>
      </trkpt>
      <trkpt lat="43.58757" lon="6.45019">
        <ele>584</ele>
        <time>2024-05-08T12:53:15.000Z</time>
      </trkpt>
      <trkpt lat="43.58758" lon="6.45017">
        <ele>584</ele>
        <time>2024-05-08T12:53:17.000Z</time>
      </trkpt>
      <trkpt lat="43.58757" lon="6.45014">
        <ele>584</ele>
        <time>2024-05-08T12:53:19.000Z</time>
      </trkpt>
      <trkpt lat="43.58757" lon="6.45009">
        <ele>586</ele>
        <time>2024-05-08T12:53:23.000Z</time>
      </trkpt>
      <trkpt lat="43.58757" lon="6.45007">
        <ele>586</ele>
        <time>2024-05-08T12:53:25.000Z</time>
      </trkpt>
      <trkpt lat="43.58755" lon="6.45001">
        <ele>588</ele>
        <time>2024-05-08T12:53:29.000Z</time>
      </trkpt>
      <trkpt lat="43.58756" lon="6.44997">
        <ele>589</ele>
        <time>2024-05-08T12:53:31.000Z</time>
      </trkpt>
      <trkpt lat="43.58753" lon="6.4499">
        <ele>590</ele>
        <time>2024-05-08T12:53:37.000Z</time>
      </trkpt>
      <trkpt lat="43.58746" lon="6.44974">
        <ele>592</ele>
        <time>2024-05-08T12:53:49.000Z</time>
      </trkpt>
      <trkpt lat="43.58745" lon="6.44971">
        <ele>592</ele>
        <time>2024-05-08T12:53:51.000Z</time>
      </trkpt>
      <trkpt lat="43.58745" lon="6.44968">
        <ele>592</ele>
        <time>2024-05-08T12:53:53.000Z</time>
      </trkpt>
      <trkpt lat="43.58744" lon="6.44961">
        <ele>593</ele>
        <time>2024-05-08T12:53:57.000Z</time>
      </trkpt>
      <trkpt lat="43.58743" lon="6.44956">
        <ele>593</ele>
        <time>2024-05-08T12:54:00.000Z</time>
      </trkpt>
      <trkpt lat="43.58739" lon="6.44947">
        <ele>594</ele>
        <time>2024-05-08T12:54:06.000Z</time>
      </trkpt>
      <trkpt lat="43.58737" lon="6.44943">
        <ele>594</ele>
        <time>2024-05-08T12:54:10.000Z</time>
      </trkpt>
      <trkpt lat="43.58735" lon="6.44936">
        <ele>593</ele>
        <time>2024-05-08T12:54:14.000Z</time>
      </trkpt>
      <trkpt lat="43.58734" lon="6.44934">
        <ele>594</ele>
        <time>2024-05-08T12:54:16.000Z</time>
      </trkpt>
      <trkpt lat="43.58732" lon="6.44934">
        <ele>594</ele>
        <time>2024-05-08T12:54:18.000Z</time>
      </trkpt>
      <trkpt lat="43.58726" lon="6.44927">
        <ele>596</ele>
        <time>2024-05-08T12:54:24.000Z</time>
      </trkpt>
      <trkpt lat="43.58725" lon="6.44925">
        <ele>596</ele>
        <time>2024-05-08T12:54:26.000Z</time>
      </trkpt>
      <trkpt lat="43.58723" lon="6.44922">
        <ele>597</ele>
        <time>2024-05-08T12:54:28.000Z</time>
      </trkpt>
      <trkpt lat="43.58721" lon="6.44921">
        <ele>597</ele>
        <time>2024-05-08T12:54:30.000Z</time>
      </trkpt>
      <trkpt lat="43.58716" lon="6.44919">
        <ele>597</ele>
        <time>2024-05-08T12:54:34.000Z</time>
      </trkpt>
      <trkpt lat="43.58714" lon="6.44918">
        <ele>597</ele>
        <time>2024-05-08T12:54:36.000Z</time>
      </trkpt>
      <trkpt lat="43.5871" lon="6.44914">
        <ele>597</ele>
        <time>2024-05-08T12:54:39.000Z</time>
      </trkpt>
      <trkpt lat="43.58698" lon="6.44906">
        <ele>597</ele>
        <time>2024-05-08T12:54:50.000Z</time>
      </trkpt>
      <trkpt lat="43.58696" lon="6.44904">
        <ele>597</ele>
        <time>2024-05-08T12:54:52.000Z</time>
      </trkpt>
      <trkpt lat="43.58695" lon="6.44903">
        <ele>598</ele>
        <time>2024-05-08T12:54:54.000Z</time>
      </trkpt>
      <trkpt lat="43.58693" lon="6.44901">
        <ele>599</ele>
        <time>2024-05-08T12:54:56.000Z</time>
      </trkpt>
      <trkpt lat="43.58691" lon="6.44899">
        <ele>600</ele>
        <time>2024-05-08T12:54:58.000Z</time>
      </trkpt>
      <trkpt lat="43.58686" lon="6.44897">
        <ele>601</ele>
        <time>2024-05-08T12:55:01.000Z</time>
      </trkpt>
      <trkpt lat="43.58683" lon="6.44896">
        <ele>600</ele>
        <time>2024-05-08T12:55:04.000Z</time>
      </trkpt>
      <trkpt lat="43.58678" lon="6.44893">
        <ele>600</ele>
        <time>2024-05-08T12:55:08.000Z</time>
      </trkpt>
      <trkpt lat="43.58674" lon="6.44891">
        <ele>600</ele>
        <time>2024-05-08T12:55:12.000Z</time>
      </trkpt>
      <trkpt lat="43.58665" lon="6.44885">
        <ele>600</ele>
        <time>2024-05-08T12:55:20.000Z</time>
      </trkpt>
      <trkpt lat="43.58664" lon="6.44885">
        <ele>600</ele>
        <time>2024-05-08T12:55:22.000Z</time>
      </trkpt>
      <trkpt lat="43.58662" lon="6.44883">
        <ele>599</ele>
        <time>2024-05-08T12:55:24.000Z</time>
      </trkpt>
      <trkpt lat="43.5866" lon="6.44881">
        <ele>599</ele>
        <time>2024-05-08T12:55:26.000Z</time>
      </trkpt>
      <trkpt lat="43.58654" lon="6.44877">
        <ele>600</ele>
        <time>2024-05-08T12:55:30.000Z</time>
      </trkpt>
      <trkpt lat="43.58652" lon="6.44876">
        <ele>600</ele>
        <time>2024-05-08T12:55:32.000Z</time>
      </trkpt>
      <trkpt lat="43.58645" lon="6.44874">
        <ele>599</ele>
        <time>2024-05-08T12:55:38.000Z</time>
      </trkpt>
      <trkpt lat="43.58644" lon="6.44873">
        <ele>599</ele>
        <time>2024-05-08T12:55:39.000Z</time>
      </trkpt>
      <trkpt lat="43.5864" lon="6.4487">
        <ele>601</ele>
        <time>2024-05-08T12:55:43.000Z</time>
      </trkpt>
      <trkpt lat="43.58638" lon="6.44869">
        <ele>601</ele>
        <time>2024-05-08T12:55:45.000Z</time>
      </trkpt>
      <trkpt lat="43.58634" lon="6.44866">
        <ele>602</ele>
        <time>2024-05-08T12:55:49.000Z</time>
      </trkpt>
      <trkpt lat="43.58632" lon="6.44865">
        <ele>602</ele>
        <time>2024-05-08T12:55:51.000Z</time>
      </trkpt>
      <trkpt lat="43.5863" lon="6.44864">
        <ele>603</ele>
        <time>2024-05-08T12:55:53.000Z</time>
      </trkpt>
      <trkpt lat="43.58628" lon="6.44863">
        <ele>604</ele>
        <time>2024-05-08T12:55:55.000Z</time>
      </trkpt>
      <trkpt lat="43.58626" lon="6.44862">
        <ele>605</ele>
        <time>2024-05-08T12:55:57.000Z</time>
      </trkpt>
      <trkpt lat="43.58624" lon="6.44861">
        <ele>605</ele>
        <time>2024-05-08T12:55:59.000Z</time>
      </trkpt>
      <trkpt lat="43.5862" lon="6.44858">
        <ele>605</ele>
        <time>2024-05-08T12:56:03.000Z</time>
      </trkpt>
      <trkpt lat="43.58618" lon="6.44857">
        <ele>605</ele>
        <time>2024-05-08T12:56:05.000Z</time>
      </trkpt>
      <trkpt lat="43.58616" lon="6.44855">
        <ele>604</ele>
        <time>2024-05-08T12:56:07.000Z</time>
      </trkpt>
      <trkpt lat="43.58614" lon="6.44854">
        <ele>604</ele>
        <time>2024-05-08T12:56:09.000Z</time>
      </trkpt>
      <trkpt lat="43.58611" lon="6.44852">
        <ele>603</ele>
        <time>2024-05-08T12:56:11.000Z</time>
      </trkpt>
      <trkpt lat="43.58609" lon="6.44849">
        <ele>602</ele>
        <time>2024-05-08T12:56:13.000Z</time>
      </trkpt>
      <trkpt lat="43.58606" lon="6.44846">
        <ele>602</ele>
        <time>2024-05-08T12:56:17.000Z</time>
      </trkpt>
      <trkpt lat="43.58593" lon="6.44834">
        <ele>601</ele>
        <time>2024-05-08T12:56:29.000Z</time>
      </trkpt>
      <trkpt lat="43.58589" lon="6.44832">
        <ele>601</ele>
        <time>2024-05-08T12:56:33.000Z</time>
      </trkpt>
      <trkpt lat="43.58586" lon="6.4483">
        <ele>600</ele>
        <time>2024-05-08T12:56:35.000Z</time>
      </trkpt>
      <trkpt lat="43.58585" lon="6.44829">
        <ele>600</ele>
        <time>2024-05-08T12:56:36.000Z</time>
      </trkpt>
      <trkpt lat="43.58583" lon="6.44826">
        <ele>600</ele>
        <time>2024-05-08T12:56:38.000Z</time>
      </trkpt>
      <trkpt lat="43.58582" lon="6.44825">
        <ele>600</ele>
        <time>2024-05-08T12:56:39.000Z</time>
      </trkpt>
      <trkpt lat="43.5858" lon="6.44824">
        <ele>600</ele>
        <time>2024-05-08T12:56:40.000Z</time>
      </trkpt>
      <trkpt lat="43.58572" lon="6.4482">
        <ele>600</ele>
        <time>2024-05-08T12:56:47.000Z</time>
      </trkpt>
      <trkpt lat="43.58571" lon="6.44817">
        <ele>600</ele>
        <time>2024-05-08T12:56:49.000Z</time>
      </trkpt>
      <trkpt lat="43.58568" lon="6.44813">
        <ele>600</ele>
        <time>2024-05-08T12:56:52.000Z</time>
      </trkpt>
      <trkpt lat="43.58566" lon="6.44812">
        <ele>600</ele>
        <time>2024-05-08T12:56:53.000Z</time>
      </trkpt>
      <trkpt lat="43.58565" lon="6.44811">
        <ele>601</ele>
        <time>2024-05-08T12:56:54.000Z</time>
      </trkpt>
      <trkpt lat="43.58563" lon="6.44809">
        <ele>600</ele>
        <time>2024-05-08T12:56:56.000Z</time>
      </trkpt>
      <trkpt lat="43.58561" lon="6.44806">
        <ele>600</ele>
        <time>2024-05-08T12:56:58.000Z</time>
      </trkpt>
      <trkpt lat="43.5856" lon="6.44804">
        <ele>600</ele>
        <time>2024-05-08T12:57:00.000Z</time>
      </trkpt>
      <trkpt lat="43.58557" lon="6.44799">
        <ele>601</ele>
        <time>2024-05-08T12:57:04.000Z</time>
      </trkpt>
      <trkpt lat="43.58555" lon="6.44796">
        <ele>601</ele>
        <time>2024-05-08T12:57:06.000Z</time>
      </trkpt>
      <trkpt lat="43.58552" lon="6.44794">
        <ele>601</ele>
        <time>2024-05-08T12:57:08.000Z</time>
      </trkpt>
      <trkpt lat="43.58549" lon="6.44789">
        <ele>601</ele>
        <time>2024-05-08T12:57:13.000Z</time>
      </trkpt>
      <trkpt lat="43.58547" lon="6.44787">
        <ele>601</ele>
        <time>2024-05-08T12:57:15.000Z</time>
      </trkpt>
      <trkpt lat="43.58541" lon="6.44778">
        <ele>600</ele>
        <time>2024-05-08T12:57:22.000Z</time>
      </trkpt>
      <trkpt lat="43.58537" lon="6.44771">
        <ele>601</ele>
        <time>2024-05-08T12:57:27.000Z</time>
      </trkpt>
      <trkpt lat="43.58534" lon="6.44765">
        <ele>602</ele>
        <time>2024-05-08T12:57:31.000Z</time>
      </trkpt>
      <trkpt lat="43.58531" lon="6.4476">
        <ele>601</ele>
        <time>2024-05-08T12:57:35.000Z</time>
      </trkpt>
      <trkpt lat="43.5853" lon="6.44758">
        <ele>601</ele>
        <time>2024-05-08T12:57:36.000Z</time>
      </trkpt>
      <trkpt lat="43.58529" lon="6.44757">
        <ele>601</ele>
        <time>2024-05-08T12:57:37.000Z</time>
      </trkpt>
      <trkpt lat="43.58528" lon="6.44755">
        <ele>600</ele>
        <time>2024-05-08T12:57:38.000Z</time>
      </trkpt>
      <trkpt lat="43.58522" lon="6.44744">
        <ele>599</ele>
        <time>2024-05-08T12:57:45.000Z</time>
      </trkpt>
      <trkpt lat="43.58517" lon="6.44735">
        <ele>599</ele>
        <time>2024-05-08T12:57:52.000Z</time>
      </trkpt>
      <trkpt lat="43.58515" lon="6.44733">
        <ele>599</ele>
        <time>2024-05-08T12:57:54.000Z</time>
      </trkpt>
      <trkpt lat="43.58513" lon="6.4473">
        <ele>599</ele>
        <time>2024-05-08T12:57:56.000Z</time>
      </trkpt>
      <trkpt lat="43.58508" lon="6.44725">
        <ele>601</ele>
        <time>2024-05-08T12:58:02.000Z</time>
      </trkpt>
      <trkpt lat="43.58506" lon="6.44723">
        <ele>601</ele>
        <time>2024-05-08T12:58:04.000Z</time>
      </trkpt>
      <trkpt lat="43.58505" lon="6.44722">
        <ele>601</ele>
        <time>2024-05-08T12:58:05.000Z</time>
      </trkpt>
      <trkpt lat="43.58504" lon="6.4472">
        <ele>601</ele>
        <time>2024-05-08T12:58:06.000Z</time>
      </trkpt>
      <trkpt lat="43.58501" lon="6.44715">
        <ele>601</ele>
        <time>2024-05-08T12:58:09.000Z</time>
      </trkpt>
      <trkpt lat="43.585" lon="6.44713">
        <ele>601</ele>
        <time>2024-05-08T12:58:10.000Z</time>
      </trkpt>
      <trkpt lat="43.58498" lon="6.44711">
        <ele>601</ele>
        <time>2024-05-08T12:58:12.000Z</time>
      </trkpt>
      <trkpt lat="43.58492" lon="6.44701">
        <ele>600</ele>
        <time>2024-05-08T12:58:20.000Z</time>
      </trkpt>
      <trkpt lat="43.5849" lon="6.447">
        <ele>600</ele>
        <time>2024-05-08T12:58:21.000Z</time>
      </trkpt>
      <trkpt lat="43.5849" lon="6.44698">
        <ele>599</ele>
        <time>2024-05-08T12:58:22.000Z</time>
      </trkpt>
      <trkpt lat="43.58487" lon="6.44694">
        <ele>599</ele>
        <time>2024-05-08T12:58:25.000Z</time>
      </trkpt>
      <trkpt lat="43.58485" lon="6.44692">
        <ele>598</ele>
        <time>2024-05-08T12:58:27.000Z</time>
      </trkpt>
      <trkpt lat="43.5848" lon="6.44682">
        <ele>596</ele>
        <time>2024-05-08T12:58:35.000Z</time>
      </trkpt>
      <trkpt lat="43.58474" lon="6.44674">
        <ele>597</ele>
        <time>2024-05-08T12:58:41.000Z</time>
      </trkpt>
      <trkpt lat="43.58473" lon="6.44672">
        <ele>596</ele>
        <time>2024-05-08T12:58:43.000Z</time>
      </trkpt>
      <trkpt lat="43.58471" lon="6.44671">
        <ele>596</ele>
        <time>2024-05-08T12:58:45.000Z</time>
      </trkpt>
      <trkpt lat="43.5847" lon="6.4467">
        <ele>596</ele>
        <time>2024-05-08T12:58:46.000Z</time>
      </trkpt>
      <trkpt lat="43.58468" lon="6.44668">
        <ele>596</ele>
        <time>2024-05-08T12:58:48.000Z</time>
      </trkpt>
      <trkpt lat="43.58466" lon="6.44666">
        <ele>596</ele>
        <time>2024-05-08T12:58:49.000Z</time>
      </trkpt>
      <trkpt lat="43.58465" lon="6.44665">
        <ele>596</ele>
        <time>2024-05-08T12:58:50.000Z</time>
      </trkpt>
      <trkpt lat="43.58448" lon="6.44641">
        <ele>598</ele>
        <time>2024-05-08T12:59:09.000Z</time>
      </trkpt>
      <trkpt lat="43.58447" lon="6.44638">
        <ele>598</ele>
        <time>2024-05-08T12:59:11.000Z</time>
      </trkpt>
      <trkpt lat="43.58445" lon="6.44636">
        <ele>598</ele>
        <time>2024-05-08T12:59:13.000Z</time>
      </trkpt>
      <trkpt lat="43.58443" lon="6.44635">
        <ele>598</ele>
        <time>2024-05-08T12:59:14.000Z</time>
      </trkpt>
      <trkpt lat="43.58441" lon="6.44632">
        <ele>598</ele>
        <time>2024-05-08T12:59:16.000Z</time>
      </trkpt>
      <trkpt lat="43.58438" lon="6.44628">
        <ele>599</ele>
        <time>2024-05-08T12:59:19.000Z</time>
      </trkpt>
      <trkpt lat="43.58436" lon="6.44626">
        <ele>599</ele>
        <time>2024-05-08T12:59:21.000Z</time>
      </trkpt>
      <trkpt lat="43.58435" lon="6.44624">
        <ele>599</ele>
        <time>2024-05-08T12:59:23.000Z</time>
      </trkpt>
      <trkpt lat="43.58427" lon="6.44612">
        <ele>599</ele>
        <time>2024-05-08T12:59:32.000Z</time>
      </trkpt>
      <trkpt lat="43.58419" lon="6.44604">
        <ele>597</ele>
        <time>2024-05-08T12:59:40.000Z</time>
      </trkpt>
      <trkpt lat="43.58415" lon="6.44598">
        <ele>598</ele>
        <time>2024-05-08T12:59:45.000Z</time>
      </trkpt>
      <trkpt lat="43.58412" lon="6.44594">
        <ele>599</ele>
        <time>2024-05-08T12:59:49.000Z</time>
      </trkpt>
      <trkpt lat="43.58411" lon="6.44593">
        <ele>599</ele>
        <time>2024-05-08T12:59:50.000Z</time>
      </trkpt>
      <trkpt lat="43.58407" lon="6.44586">
        <ele>599</ele>
        <time>2024-05-08T12:59:54.000Z</time>
      </trkpt>
      <trkpt lat="43.58406" lon="6.44584">
        <ele>600</ele>
        <time>2024-05-08T12:59:56.000Z</time>
      </trkpt>
      <trkpt lat="43.58405" lon="6.44582">
        <ele>600</ele>
        <time>2024-05-08T12:59:58.000Z</time>
      </trkpt>
      <trkpt lat="43.58403" lon="6.44579">
        <ele>600</ele>
        <time>2024-05-08T13:00:00.000Z</time>
      </trkpt>
      <trkpt lat="43.58399" lon="6.44576">
        <ele>600</ele>
        <time>2024-05-08T13:00:04.000Z</time>
      </trkpt>
      <trkpt lat="43.58394" lon="6.44567">
        <ele>601</ele>
        <time>2024-05-08T13:00:10.000Z</time>
      </trkpt>
      <trkpt lat="43.58392" lon="6.44565">
        <ele>601</ele>
        <time>2024-05-08T13:00:12.000Z</time>
      </trkpt>
      <trkpt lat="43.58391" lon="6.44563">
        <ele>601</ele>
        <time>2024-05-08T13:00:14.000Z</time>
      </trkpt>
      <trkpt lat="43.58389" lon="6.44561">
        <ele>601</ele>
        <time>2024-05-08T13:00:16.000Z</time>
      </trkpt>
      <trkpt lat="43.58388" lon="6.4456">
        <ele>601</ele>
        <time>2024-05-08T13:00:17.000Z</time>
      </trkpt>
      <trkpt lat="43.58388" lon="6.44558">
        <ele>601</ele>
        <time>2024-05-08T13:00:18.000Z</time>
      </trkpt>
      <trkpt lat="43.58387" lon="6.44557">
        <ele>600</ele>
        <time>2024-05-08T13:00:19.000Z</time>
      </trkpt>
      <trkpt lat="43.58385" lon="6.44554">
        <ele>600</ele>
        <time>2024-05-08T13:00:21.000Z</time>
      </trkpt>
      <trkpt lat="43.58383" lon="6.44552">
        <ele>601</ele>
        <time>2024-05-08T13:00:23.000Z</time>
      </trkpt>
      <trkpt lat="43.58382" lon="6.44548">
        <ele>601</ele>
        <time>2024-05-08T13:00:26.000Z</time>
      </trkpt>
      <trkpt lat="43.5838" lon="6.44546">
        <ele>602</ele>
        <time>2024-05-08T13:00:28.000Z</time>
      </trkpt>
      <trkpt lat="43.58376" lon="6.4454">
        <ele>604</ele>
        <time>2024-05-08T13:00:33.000Z</time>
      </trkpt>
      <trkpt lat="43.58375" lon="6.44539">
        <ele>604</ele>
        <time>2024-05-08T13:00:34.000Z</time>
      </trkpt>
      <trkpt lat="43.58374" lon="6.44537">
        <ele>604</ele>
        <time>2024-05-08T13:00:35.000Z</time>
      </trkpt>
      <trkpt lat="43.58373" lon="6.44536">
        <ele>604</ele>
        <time>2024-05-08T13:00:37.000Z</time>
      </trkpt>
      <trkpt lat="43.58371" lon="6.44535">
        <ele>605</ele>
        <time>2024-05-08T13:00:40.000Z</time>
      </trkpt>
      <trkpt lat="43.58368" lon="6.44534">
        <ele>605</ele>
        <time>2024-05-08T13:00:42.000Z</time>
      </trkpt>
      <trkpt lat="43.58367" lon="6.44533">
        <ele>605</ele>
        <time>2024-05-08T13:00:43.000Z</time>
      </trkpt>
      <trkpt lat="43.58365" lon="6.44531">
        <ele>605</ele>
        <time>2024-05-08T13:00:45.000Z</time>
      </trkpt>
      <trkpt lat="43.58361" lon="6.44529">
        <ele>604</ele>
        <time>2024-05-08T13:00:49.000Z</time>
      </trkpt>
      <trkpt lat="43.58357" lon="6.44529">
        <ele>603</ele>
        <time>2024-05-08T13:00:53.000Z</time>
      </trkpt>
      <trkpt lat="43.58356" lon="6.44528">
        <ele>603</ele>
        <time>2024-05-08T13:00:55.000Z</time>
      </trkpt>
      <trkpt lat="43.58349" lon="6.44526">
        <ele>603</ele>
        <time>2024-05-08T13:01:00.000Z</time>
      </trkpt>
      <trkpt lat="43.58348" lon="6.44526">
        <ele>603</ele>
        <time>2024-05-08T13:01:02.000Z</time>
      </trkpt>
      <trkpt lat="43.58345" lon="6.44524">
        <ele>602</ele>
        <time>2024-05-08T13:01:04.000Z</time>
      </trkpt>
      <trkpt lat="43.58341" lon="6.44524">
        <ele>602</ele>
        <time>2024-05-08T13:01:07.000Z</time>
      </trkpt>
      <trkpt lat="43.58339" lon="6.44524">
        <ele>602</ele>
        <time>2024-05-08T13:01:09.000Z</time>
      </trkpt>
      <trkpt lat="43.58335" lon="6.44522">
        <ele>602</ele>
        <time>2024-05-08T13:01:13.000Z</time>
      </trkpt>
      <trkpt lat="43.58333" lon="6.44521">
        <ele>602</ele>
        <time>2024-05-08T13:01:15.000Z</time>
      </trkpt>
      <trkpt lat="43.5833" lon="6.44521">
        <ele>603</ele>
        <time>2024-05-08T13:01:18.000Z</time>
      </trkpt>
      <trkpt lat="43.58328" lon="6.4452">
        <ele>603</ele>
        <time>2024-05-08T13:01:19.000Z</time>
      </trkpt>
      <trkpt lat="43.58327" lon="6.44519">
        <ele>603</ele>
        <time>2024-05-08T13:01:20.000Z</time>
      </trkpt>
      <trkpt lat="43.58325" lon="6.44519">
        <ele>603</ele>
        <time>2024-05-08T13:01:21.000Z</time>
      </trkpt>
      <trkpt lat="43.58324" lon="6.44518">
        <ele>602</ele>
        <time>2024-05-08T13:01:22.000Z</time>
      </trkpt>
      <trkpt lat="43.58313" lon="6.44516">
        <ele>602</ele>
        <time>2024-05-08T13:01:31.000Z</time>
      </trkpt>
      <trkpt lat="43.58311" lon="6.44515">
        <ele>602</ele>
        <time>2024-05-08T13:01:33.000Z</time>
      </trkpt>
      <trkpt lat="43.58309" lon="6.44514">
        <ele>603</ele>
        <time>2024-05-08T13:01:35.000Z</time>
      </trkpt>
      <trkpt lat="43.58307" lon="6.44513">
        <ele>603</ele>
        <time>2024-05-08T13:01:37.000Z</time>
      </trkpt>
      <trkpt lat="43.58305" lon="6.44511">
        <ele>603</ele>
        <time>2024-05-08T13:01:39.000Z</time>
      </trkpt>
      <trkpt lat="43.58304" lon="6.4451">
        <ele>603</ele>
        <time>2024-05-08T13:01:40.000Z</time>
      </trkpt>
      <trkpt lat="43.58303" lon="6.44509">
        <ele>603</ele>
        <time>2024-05-08T13:01:42.000Z</time>
      </trkpt>
      <trkpt lat="43.58299" lon="6.44505">
        <ele>603</ele>
        <time>2024-05-08T13:01:47.000Z</time>
      </trkpt>
      <trkpt lat="43.58295" lon="6.44501">
        <ele>603</ele>
        <time>2024-05-08T13:01:51.000Z</time>
      </trkpt>
      <trkpt lat="43.58294" lon="6.44498">
        <ele>603</ele>
        <time>2024-05-08T13:01:53.000Z</time>
      </trkpt>
      <trkpt lat="43.5829" lon="6.44491">
        <ele>604</ele>
        <time>2024-05-08T13:01:59.000Z</time>
      </trkpt>
      <trkpt lat="43.58289" lon="6.44488">
        <ele>604</ele>
        <time>2024-05-08T13:02:01.000Z</time>
      </trkpt>
      <trkpt lat="43.58287" lon="6.44487">
        <ele>605</ele>
        <time>2024-05-08T13:02:02.000Z</time>
      </trkpt>
      <trkpt lat="43.58286" lon="6.44484">
        <ele>606</ele>
        <time>2024-05-08T13:02:04.000Z</time>
      </trkpt>
      <trkpt lat="43.58285" lon="6.44482">
        <ele>606</ele>
        <time>2024-05-08T13:02:06.000Z</time>
      </trkpt>
      <trkpt lat="43.58284" lon="6.44479">
        <ele>606</ele>
        <time>2024-05-08T13:02:08.000Z</time>
      </trkpt>
      <trkpt lat="43.58283" lon="6.44477">
        <ele>606</ele>
        <time>2024-05-08T13:02:09.000Z</time>
      </trkpt>
      <trkpt lat="43.58282" lon="6.44476">
        <ele>607</ele>
        <time>2024-05-08T13:02:11.000Z</time>
      </trkpt>
      <trkpt lat="43.5828" lon="6.44473">
        <ele>607</ele>
        <time>2024-05-08T13:02:14.000Z</time>
      </trkpt>
      <trkpt lat="43.58278" lon="6.44471">
        <ele>608</ele>
        <time>2024-05-08T13:02:16.000Z</time>
      </trkpt>
      <trkpt lat="43.58277" lon="6.44469">
        <ele>607</ele>
        <time>2024-05-08T13:02:18.000Z</time>
      </trkpt>
      <trkpt lat="43.58275" lon="6.44467">
        <ele>607</ele>
        <time>2024-05-08T13:02:20.000Z</time>
      </trkpt>
      <trkpt lat="43.58267" lon="6.44451">
        <ele>606</ele>
        <time>2024-05-08T13:02:32.000Z</time>
      </trkpt>
      <trkpt lat="43.58264" lon="6.44441">
        <ele>607</ele>
        <time>2024-05-08T13:02:38.000Z</time>
      </trkpt>
      <trkpt lat="43.58263" lon="6.44439">
        <ele>607</ele>
        <time>2024-05-08T13:02:39.000Z</time>
      </trkpt>
      <trkpt lat="43.58262" lon="6.44437">
        <ele>606</ele>
        <time>2024-05-08T13:02:41.000Z</time>
      </trkpt>
      <trkpt lat="43.58259" lon="6.4443">
        <ele>605</ele>
        <time>2024-05-08T13:02:47.000Z</time>
      </trkpt>
      <trkpt lat="43.58258" lon="6.44428">
        <ele>606</ele>
        <time>2024-05-08T13:02:48.000Z</time>
      </trkpt>
      <trkpt lat="43.58252" lon="6.44416">
        <ele>605</ele>
        <time>2024-05-08T13:02:56.000Z</time>
      </trkpt>
      <trkpt lat="43.58251" lon="6.44413">
        <ele>605</ele>
        <time>2024-05-08T13:02:58.000Z</time>
      </trkpt>
      <trkpt lat="43.58243" lon="6.4439">
        <ele>604</ele>
        <time>2024-05-08T13:03:13.000Z</time>
      </trkpt>
      <trkpt lat="43.58242" lon="6.44387">
        <ele>604</ele>
        <time>2024-05-08T13:03:15.000Z</time>
      </trkpt>
      <trkpt lat="43.58242" lon="6.44382">
        <ele>603</ele>
        <time>2024-05-08T13:03:18.000Z</time>
      </trkpt>
      <trkpt lat="43.58241" lon="6.4438">
        <ele>603</ele>
        <time>2024-05-08T13:03:19.000Z</time>
      </trkpt>
      <trkpt lat="43.58239" lon="6.44368">
        <ele>603</ele>
        <time>2024-05-08T13:03:27.000Z</time>
      </trkpt>
      <trkpt lat="43.58238" lon="6.44366">
        <ele>603</ele>
        <time>2024-05-08T13:03:29.000Z</time>
      </trkpt>
      <trkpt lat="43.58237" lon="6.44356">
        <ele>603</ele>
        <time>2024-05-08T13:03:34.000Z</time>
      </trkpt>
      <trkpt lat="43.58237" lon="6.44353">
        <ele>603</ele>
        <time>2024-05-08T13:03:35.000Z</time>
      </trkpt>
      <trkpt lat="43.58236" lon="6.44351">
        <ele>603</ele>
        <time>2024-05-08T13:03:37.000Z</time>
      </trkpt>
      <trkpt lat="43.58235" lon="6.44349">
        <ele>603</ele>
        <time>2024-05-08T13:03:39.000Z</time>
      </trkpt>
      <trkpt lat="43.58234" lon="6.44346">
        <ele>603</ele>
        <time>2024-05-08T13:03:41.000Z</time>
      </trkpt>
      <trkpt lat="43.58233" lon="6.44345">
        <ele>603</ele>
        <time>2024-05-08T13:03:42.000Z</time>
      </trkpt>
      <trkpt lat="43.58233" lon="6.44343">
        <ele>603</ele>
        <time>2024-05-08T13:03:43.000Z</time>
      </trkpt>
      <trkpt lat="43.58232" lon="6.4434">
        <ele>603</ele>
        <time>2024-05-08T13:03:44.000Z</time>
      </trkpt>
      <trkpt lat="43.5823" lon="6.44331">
        <ele>604</ele>
        <time>2024-05-08T13:03:49.000Z</time>
      </trkpt>
      <trkpt lat="43.58229" lon="6.4433">
        <ele>604</ele>
        <time>2024-05-08T13:03:50.000Z</time>
      </trkpt>
      <trkpt lat="43.58227" lon="6.44326">
        <ele>605</ele>
        <time>2024-05-08T13:03:53.000Z</time>
      </trkpt>
      <trkpt lat="43.58226" lon="6.44324">
        <ele>605</ele>
        <time>2024-05-08T13:03:56.000Z</time>
      </trkpt>
      <trkpt lat="43.58217" lon="6.4431">
        <ele>604</ele>
        <time>2024-05-08T13:04:06.000Z</time>
      </trkpt>
      <trkpt lat="43.58215" lon="6.44307">
        <ele>603</ele>
        <time>2024-05-08T13:04:08.000Z</time>
      </trkpt>
      <trkpt lat="43.58214" lon="6.44305">
        <ele>602</ele>
        <time>2024-05-08T13:04:10.000Z</time>
      </trkpt>
      <trkpt lat="43.58213" lon="6.44303">
        <ele>601</ele>
        <time>2024-05-08T13:04:12.000Z</time>
      </trkpt>
      <trkpt lat="43.58209" lon="6.44299">
        <ele>600</ele>
        <time>2024-05-08T13:04:15.000Z</time>
      </trkpt>
      <trkpt lat="43.58206" lon="6.44295">
        <ele>599</ele>
        <time>2024-05-08T13:04:18.000Z</time>
      </trkpt>
      <trkpt lat="43.58196" lon="6.44287">
        <ele>599</ele>
        <time>2024-05-08T13:04:28.000Z</time>
      </trkpt>
      <trkpt lat="43.58192" lon="6.44285">
        <ele>599</ele>
        <time>2024-05-08T13:04:31.000Z</time>
      </trkpt>
      <trkpt lat="43.5819" lon="6.44283">
        <ele>599</ele>
        <time>2024-05-08T13:04:33.000Z</time>
      </trkpt>
      <trkpt lat="43.58187" lon="6.44281">
        <ele>599</ele>
        <time>2024-05-08T13:04:36.000Z</time>
      </trkpt>
      <trkpt lat="43.58185" lon="6.4428">
        <ele>599</ele>
        <time>2024-05-08T13:04:38.000Z</time>
      </trkpt>
      <trkpt lat="43.58177" lon="6.44276">
        <ele>599</ele>
        <time>2024-05-08T13:04:45.000Z</time>
      </trkpt>
      <trkpt lat="43.58175" lon="6.44275">
        <ele>599</ele>
        <time>2024-05-08T13:04:46.000Z</time>
      </trkpt>
      <trkpt lat="43.58168" lon="6.44271">
        <ele>600</ele>
        <time>2024-05-08T13:04:51.000Z</time>
      </trkpt>
      <trkpt lat="43.58167" lon="6.4427">
        <ele>600</ele>
        <time>2024-05-08T13:04:53.000Z</time>
      </trkpt>
      <trkpt lat="43.58166" lon="6.44269">
        <ele>600</ele>
        <time>2024-05-08T13:04:55.000Z</time>
      </trkpt>
      <trkpt lat="43.5816" lon="6.44263">
        <ele>600</ele>
        <time>2024-05-08T13:05:00.000Z</time>
      </trkpt>
      <trkpt lat="43.58154" lon="6.44256">
        <ele>603</ele>
        <time>2024-05-08T13:05:08.000Z</time>
      </trkpt>
      <trkpt lat="43.58149" lon="6.44251">
        <ele>603</ele>
        <time>2024-05-08T13:05:14.000Z</time>
      </trkpt>
      <trkpt lat="43.58148" lon="6.4425">
        <ele>604</ele>
        <time>2024-05-08T13:05:15.000Z</time>
      </trkpt>
      <trkpt lat="43.58145" lon="6.44248">
        <ele>604</ele>
        <time>2024-05-08T13:05:17.000Z</time>
      </trkpt>
      <trkpt lat="43.58144" lon="6.44246">
        <ele>604</ele>
        <time>2024-05-08T13:05:18.000Z</time>
      </trkpt>
      <trkpt lat="43.58142" lon="6.44244">
        <ele>605</ele>
        <time>2024-05-08T13:05:20.000Z</time>
      </trkpt>
      <trkpt lat="43.58142" lon="6.44242">
        <ele>605</ele>
        <time>2024-05-08T13:05:22.000Z</time>
      </trkpt>
      <trkpt lat="43.58137" lon="6.44234">
        <ele>606</ele>
        <time>2024-05-08T13:05:28.000Z</time>
      </trkpt>
      <trkpt lat="43.58135" lon="6.44231">
        <ele>606</ele>
        <time>2024-05-08T13:05:30.000Z</time>
      </trkpt>
      <trkpt lat="43.58131" lon="6.44223">
        <ele>605</ele>
        <time>2024-05-08T13:05:36.000Z</time>
      </trkpt>
      <trkpt lat="43.58129" lon="6.4422">
        <ele>605</ele>
        <time>2024-05-08T13:05:38.000Z</time>
      </trkpt>
      <trkpt lat="43.58128" lon="6.44219">
        <ele>605</ele>
        <time>2024-05-08T13:05:39.000Z</time>
      </trkpt>
      <trkpt lat="43.58127" lon="6.44212">
        <ele>604</ele>
        <time>2024-05-08T13:05:43.000Z</time>
      </trkpt>
      <trkpt lat="43.58127" lon="6.4421">
        <ele>604</ele>
        <time>2024-05-08T13:05:45.000Z</time>
      </trkpt>
      <trkpt lat="43.58124" lon="6.44202">
        <ele>605</ele>
        <time>2024-05-08T13:05:50.000Z</time>
      </trkpt>
      <trkpt lat="43.58123" lon="6.442">
        <ele>604</ele>
        <time>2024-05-08T13:05:52.000Z</time>
      </trkpt>
      <trkpt lat="43.58123" lon="6.44198">
        <ele>605</ele>
        <time>2024-05-08T13:05:54.000Z</time>
      </trkpt>
      <trkpt lat="43.5812" lon="6.44187">
        <ele>604</ele>
        <time>2024-05-08T13:06:00.000Z</time>
      </trkpt>
      <trkpt lat="43.5812" lon="6.44185">
        <ele>604</ele>
        <time>2024-05-08T13:06:02.000Z</time>
      </trkpt>
      <trkpt lat="43.58119" lon="6.44182">
        <ele>603</ele>
        <time>2024-05-08T13:06:04.000Z</time>
      </trkpt>
      <trkpt lat="43.58116" lon="6.4417">
        <ele>603</ele>
        <time>2024-05-08T13:06:12.000Z</time>
      </trkpt>
      <trkpt lat="43.58116" lon="6.44167">
        <ele>603</ele>
        <time>2024-05-08T13:06:14.000Z</time>
      </trkpt>
      <trkpt lat="43.58114" lon="6.44156">
        <ele>603</ele>
        <time>2024-05-08T13:06:20.000Z</time>
      </trkpt>
      <trkpt lat="43.58113" lon="6.44154">
        <ele>603</ele>
        <time>2024-05-08T13:06:22.000Z</time>
      </trkpt>
      <trkpt lat="43.58113" lon="6.44151">
        <ele>603</ele>
        <time>2024-05-08T13:06:24.000Z</time>
      </trkpt>
      <trkpt lat="43.58108" lon="6.44125">
        <ele>604</ele>
        <time>2024-05-08T13:06:39.000Z</time>
      </trkpt>
      <trkpt lat="43.58107" lon="6.44122">
        <ele>604</ele>
        <time>2024-05-08T13:06:40.000Z</time>
      </trkpt>
      <trkpt lat="43.58104" lon="6.44114">
        <ele>604</ele>
        <time>2024-05-08T13:06:47.000Z</time>
      </trkpt>
      <trkpt lat="43.58104" lon="6.44108">
        <ele>605</ele>
        <time>2024-05-08T13:06:50.000Z</time>
      </trkpt>
      <trkpt lat="43.581" lon="6.44099">
        <ele>603</ele>
        <time>2024-05-08T13:06:56.000Z</time>
      </trkpt>
      <trkpt lat="43.58099" lon="6.44096">
        <ele>603</ele>
        <time>2024-05-08T13:06:58.000Z</time>
      </trkpt>
      <trkpt lat="43.58098" lon="6.44094">
        <ele>603</ele>
        <time>2024-05-08T13:07:00.000Z</time>
      </trkpt>
      <trkpt lat="43.58098" lon="6.44091">
        <ele>603</ele>
        <time>2024-05-08T13:07:02.000Z</time>
      </trkpt>
      <trkpt lat="43.58097" lon="6.44089">
        <ele>604</ele>
        <time>2024-05-08T13:07:03.000Z</time>
      </trkpt>
      <trkpt lat="43.58095" lon="6.44086">
        <ele>604</ele>
        <time>2024-05-08T13:07:05.000Z</time>
      </trkpt>
      <trkpt lat="43.58094" lon="6.44085">
        <ele>604</ele>
        <time>2024-05-08T13:07:06.000Z</time>
      </trkpt>
      <trkpt lat="43.58092" lon="6.44083">
        <ele>604</ele>
        <time>2024-05-08T13:07:07.000Z</time>
      </trkpt>
      <trkpt lat="43.5809" lon="6.44081">
        <ele>604</ele>
        <time>2024-05-08T13:07:09.000Z</time>
      </trkpt>
      <trkpt lat="43.58088" lon="6.44078">
        <ele>604</ele>
        <time>2024-05-08T13:07:11.000Z</time>
      </trkpt>
      <trkpt lat="43.58086" lon="6.44073">
        <ele>604</ele>
        <time>2024-05-08T13:07:15.000Z</time>
      </trkpt>
      <trkpt lat="43.58078" lon="6.44065">
        <ele>603</ele>
        <time>2024-05-08T13:07:23.000Z</time>
      </trkpt>
      <trkpt lat="43.58077" lon="6.44063">
        <ele>603</ele>
        <time>2024-05-08T13:07:25.000Z</time>
      </trkpt>
      <trkpt lat="43.58075" lon="6.44062">
        <ele>602</ele>
        <time>2024-05-08T13:07:27.000Z</time>
      </trkpt>
      <trkpt lat="43.58074" lon="6.44061">
        <ele>602</ele>
        <time>2024-05-08T13:07:29.000Z</time>
      </trkpt>
      <trkpt lat="43.58071" lon="6.44059">
        <ele>601</ele>
        <time>2024-05-08T13:07:31.000Z</time>
      </trkpt>
      <trkpt lat="43.58069" lon="6.44058">
        <ele>601</ele>
        <time>2024-05-08T13:07:33.000Z</time>
      </trkpt>
      <trkpt lat="43.58068" lon="6.44056">
        <ele>601</ele>
        <time>2024-05-08T13:07:35.000Z</time>
      </trkpt>
      <trkpt lat="43.58065" lon="6.44055">
        <ele>601</ele>
        <time>2024-05-08T13:07:39.000Z</time>
      </trkpt>
      <trkpt lat="43.58063" lon="6.44054">
        <ele>600</ele>
        <time>2024-05-08T13:07:41.000Z</time>
      </trkpt>
      <trkpt lat="43.58062" lon="6.44052">
        <ele>600</ele>
        <time>2024-05-08T13:07:43.000Z</time>
      </trkpt>
      <trkpt lat="43.58062" lon="6.44033">
        <ele>599.7</ele>
        <time>2024-05-08T13:08:02.431Z</time>
      </trkpt>
      <trkpt lat="43.58078" lon="6.43955">
        <ele>600.6</ele>
        <time>2024-05-08T13:09:26.260Z</time>
      </trkpt>
      <trkpt lat="43.58079" lon="6.43912">
        <ele>601</ele>
        <time>2024-05-08T13:10:11.307Z</time>
      </trkpt>
      <trkpt lat="43.58098" lon="6.43864">
        <ele>604</ele>
        <time>2024-05-08T13:11:07.606Z</time>
      </trkpt>
      <trkpt lat="43.58126" lon="6.43733">
        <ele>603.8</ele>
        <time>2024-05-08T13:13:28.744Z</time>
      </trkpt>
      <trkpt lat="43.5813" lon="6.43648">
        <ele>601.8</ele>
        <time>2024-05-08T13:14:57.427Z</time>
      </trkpt>
      <trkpt lat="43.58141" lon="6.4355">
        <ele>599</ele>
        <time>2024-05-08T13:16:40.311Z</time>
      </trkpt>
      <trkpt lat="43.58136" lon="6.43428">
        <ele>599</ele>
        <time>2024-05-08T13:18:46.545Z</time>
      </trkpt>
      <trkpt lat="43.58154" lon="6.43374">
        <ele>599</ele>
        <time>2024-05-08T13:19:48.000Z</time>
      </trkpt>
      <trkpt lat="43.58154" lon="6.43372">
        <ele>599</ele>
        <time>2024-05-08T13:19:49.000Z</time>
      </trkpt>
      <trkpt lat="43.58155" lon="6.4337">
        <ele>598</ele>
        <time>2024-05-08T13:19:51.000Z</time>
      </trkpt>
      <trkpt lat="43.58156" lon="6.43366">
        <ele>598</ele>
        <time>2024-05-08T13:19:53.000Z</time>
      </trkpt>
      <trkpt lat="43.58158" lon="6.43362">
        <ele>599</ele>
        <time>2024-05-08T13:19:58.000Z</time>
      </trkpt>
      <trkpt lat="43.5816" lon="6.43359">
        <ele>599</ele>
        <time>2024-05-08T13:20:00.000Z</time>
      </trkpt>
      <trkpt lat="43.58161" lon="6.43357">
        <ele>599</ele>
        <time>2024-05-08T13:20:02.000Z</time>
      </trkpt>
      <trkpt lat="43.58162" lon="6.43354">
        <ele>599</ele>
        <time>2024-05-08T13:20:05.000Z</time>
      </trkpt>
      <trkpt lat="43.58166" lon="6.43347">
        <ele>599</ele>
        <time>2024-05-08T13:20:11.000Z</time>
      </trkpt>
      <trkpt lat="43.58168" lon="6.43338">
        <ele>600</ele>
        <time>2024-05-08T13:20:18.000Z</time>
      </trkpt>
      <trkpt lat="43.58169" lon="6.43329">
        <ele>601</ele>
        <time>2024-05-08T13:20:24.000Z</time>
      </trkpt>
      <trkpt lat="43.58171" lon="6.43325">
        <ele>600</ele>
        <time>2024-05-08T13:20:27.000Z</time>
      </trkpt>
      <trkpt lat="43.58172" lon="6.43317">
        <ele>600</ele>
        <time>2024-05-08T13:20:32.000Z</time>
      </trkpt>
      <trkpt lat="43.58173" lon="6.43313">
        <ele>600</ele>
        <time>2024-05-08T13:20:35.000Z</time>
      </trkpt>
      <trkpt lat="43.58173" lon="6.43309">
        <ele>600</ele>
        <time>2024-05-08T13:20:37.000Z</time>
      </trkpt>
      <trkpt lat="43.58176" lon="6.43305">
        <ele>600</ele>
        <time>2024-05-08T13:20:41.000Z</time>
      </trkpt>
      <trkpt lat="43.58177" lon="6.43303">
        <ele>600</ele>
        <time>2024-05-08T13:20:43.000Z</time>
      </trkpt>
      <trkpt lat="43.5818" lon="6.43289">
        <ele>602</ele>
        <time>2024-05-08T13:20:51.000Z</time>
      </trkpt>
      <trkpt lat="43.58181" lon="6.43287">
        <ele>603</ele>
        <time>2024-05-08T13:20:52.000Z</time>
      </trkpt>
      <trkpt lat="43.58182" lon="6.43279">
        <ele>605</ele>
        <time>2024-05-08T13:20:56.000Z</time>
      </trkpt>
      <trkpt lat="43.58184" lon="6.43276">
        <ele>605</ele>
        <time>2024-05-08T13:20:58.000Z</time>
      </trkpt>
      <trkpt lat="43.58187" lon="6.43274">
        <ele>606</ele>
        <time>2024-05-08T13:21:00.000Z</time>
      </trkpt>
      <trkpt lat="43.58188" lon="6.43267">
        <ele>605</ele>
        <time>2024-05-08T13:21:04.000Z</time>
      </trkpt>
      <trkpt lat="43.58189" lon="6.43263">
        <ele>605</ele>
        <time>2024-05-08T13:21:06.000Z</time>
      </trkpt>
      <trkpt lat="43.58189" lon="6.43261">
        <ele>604</ele>
        <time>2024-05-08T13:21:08.000Z</time>
      </trkpt>
      <trkpt lat="43.5819" lon="6.43258">
        <ele>603</ele>
        <time>2024-05-08T13:21:10.000Z</time>
      </trkpt>
      <trkpt lat="43.5819" lon="6.43255">
        <ele>602</ele>
        <time>2024-05-08T13:21:12.000Z</time>
      </trkpt>
      <trkpt lat="43.58191" lon="6.43252">
        <ele>602</ele>
        <time>2024-05-08T13:21:14.000Z</time>
      </trkpt>
      <trkpt lat="43.58194" lon="6.43248">
        <ele>601</ele>
        <time>2024-05-08T13:21:18.000Z</time>
      </trkpt>
      <trkpt lat="43.58197" lon="6.43242">
        <ele>601</ele>
        <time>2024-05-08T13:21:22.000Z</time>
      </trkpt>
      <trkpt lat="43.58199" lon="6.43239">
        <ele>601</ele>
        <time>2024-05-08T13:21:24.000Z</time>
      </trkpt>
      <trkpt lat="43.58201" lon="6.43231">
        <ele>600</ele>
        <time>2024-05-08T13:21:30.000Z</time>
      </trkpt>
      <trkpt lat="43.58201" lon="6.43228">
        <ele>600</ele>
        <time>2024-05-08T13:21:32.000Z</time>
      </trkpt>
      <trkpt lat="43.58204" lon="6.43223">
        <ele>600</ele>
        <time>2024-05-08T13:21:36.000Z</time>
      </trkpt>
      <trkpt lat="43.5821" lon="6.43201">
        <ele>602</ele>
        <time>2024-05-08T13:21:50.000Z</time>
      </trkpt>
      <trkpt lat="43.58212" lon="6.43196">
        <ele>603</ele>
        <time>2024-05-08T13:21:54.000Z</time>
      </trkpt>
      <trkpt lat="43.58215" lon="6.43195">
        <ele>602</ele>
        <time>2024-05-08T13:21:56.000Z</time>
      </trkpt>
      <trkpt lat="43.58218" lon="6.43189">
        <ele>602</ele>
        <time>2024-05-08T13:22:00.000Z</time>
      </trkpt>
      <trkpt lat="43.58221" lon="6.43183">
        <ele>600</ele>
        <time>2024-05-08T13:22:04.000Z</time>
      </trkpt>
      <trkpt lat="43.58224" lon="6.43175">
        <ele>599</ele>
        <time>2024-05-08T13:22:10.000Z</time>
      </trkpt>
      <trkpt lat="43.58232" lon="6.43159">
        <ele>598</ele>
        <time>2024-05-08T13:22:22.000Z</time>
      </trkpt>
      <trkpt lat="43.58234" lon="6.43149">
        <ele>600</ele>
        <time>2024-05-08T13:22:28.000Z</time>
      </trkpt>
      <trkpt lat="43.58235" lon="6.43147">
        <ele>600</ele>
        <time>2024-05-08T13:22:30.000Z</time>
      </trkpt>
      <trkpt lat="43.58247" lon="6.43132">
        <ele>602</ele>
        <time>2024-05-08T13:22:56.000Z</time>
      </trkpt>
      <trkpt lat="43.58248" lon="6.4313">
        <ele>601</ele>
        <time>2024-05-08T13:22:59.000Z</time>
      </trkpt>
      <trkpt lat="43.58248" lon="6.43127">
        <ele>602</ele>
        <time>2024-05-08T13:23:02.000Z</time>
      </trkpt>
      <trkpt lat="43.58249" lon="6.43127">
        <ele>602</ele>
        <time>2024-05-08T13:23:05.000Z</time>
      </trkpt>
      <trkpt lat="43.58249" lon="6.43123">
        <ele>601</ele>
        <time>2024-05-08T13:23:17.000Z</time>
      </trkpt>
      <trkpt lat="43.58256" lon="6.43131">
        <ele>603</ele>
        <time>2024-05-08T13:27:38.000Z</time>
      </trkpt>
      <trkpt lat="43.58257" lon="6.43132">
        <ele>604</ele>
        <time>2024-05-08T13:27:43.000Z</time>
      </trkpt>
      <trkpt lat="43.58259" lon="6.4313">
        <ele>604</ele>
        <time>2024-05-08T13:27:48.000Z</time>
      </trkpt>
      <trkpt lat="43.58261" lon="6.43131">
        <ele>604</ele>
        <time>2024-05-08T13:27:53.000Z</time>
      </trkpt>
      <trkpt lat="43.58263" lon="6.43132">
        <ele>605</ele>
        <time>2024-05-08T13:28:07.000Z</time>
      </trkpt>
      <trkpt lat="43.58265" lon="6.43131">
        <ele>605</ele>
        <time>2024-05-08T13:28:12.000Z</time>
      </trkpt>
      <trkpt lat="43.58267" lon="6.43131">
        <ele>604</ele>
        <time>2024-05-08T13:28:16.000Z</time>
      </trkpt>
      <trkpt lat="43.58269" lon="6.4313">
        <ele>604</ele>
        <time>2024-05-08T13:28:18.000Z</time>
      </trkpt>
      <trkpt lat="43.5827" lon="6.4313">
        <ele>604</ele>
        <time>2024-05-08T13:28:20.000Z</time>
      </trkpt>
      <trkpt lat="43.58274" lon="6.43131">
        <ele>604</ele>
        <time>2024-05-08T13:28:24.000Z</time>
      </trkpt>
      <trkpt lat="43.58275" lon="6.43131">
        <ele>604</ele>
        <time>2024-05-08T13:28:27.000Z</time>
      </trkpt>
      <trkpt lat="43.58278" lon="6.43131">
        <ele>603</ele>
        <time>2024-05-08T13:28:30.000Z</time>
      </trkpt>
      <trkpt lat="43.5828" lon="6.43131">
        <ele>603</ele>
        <time>2024-05-08T13:28:32.000Z</time>
      </trkpt>
      <trkpt lat="43.58282" lon="6.43132">
        <ele>603</ele>
        <time>2024-05-08T13:28:34.000Z</time>
      </trkpt>
      <trkpt lat="43.58283" lon="6.43132">
        <ele>603</ele>
        <time>2024-05-08T13:28:38.000Z</time>
      </trkpt>
      <trkpt lat="43.58288" lon="6.43133">
        <ele>603</ele>
        <time>2024-05-08T13:28:42.000Z</time>
      </trkpt>
      <trkpt lat="43.5829" lon="6.43132">
        <ele>603</ele>
        <time>2024-05-08T13:28:44.000Z</time>
      </trkpt>
      <trkpt lat="43.58302" lon="6.4313">
        <ele>605</ele>
        <time>2024-05-08T13:28:53.000Z</time>
      </trkpt>
      <trkpt lat="43.58307" lon="6.4313">
        <ele>606</ele>
        <time>2024-05-08T13:28:58.000Z</time>
      </trkpt>
      <trkpt lat="43.58314" lon="6.43129">
        <ele>606</ele>
        <time>2024-05-08T13:29:04.000Z</time>
      </trkpt>
      <trkpt lat="43.58316" lon="6.43128">
        <ele>606</ele>
        <time>2024-05-08T13:29:06.000Z</time>
      </trkpt>
      <trkpt lat="43.58325" lon="6.43127">
        <ele>605</ele>
        <time>2024-05-08T13:29:12.000Z</time>
      </trkpt>
      <trkpt lat="43.58329" lon="6.43126">
        <ele>605</ele>
        <time>2024-05-08T13:29:17.000Z</time>
      </trkpt>
      <trkpt lat="43.58338" lon="6.43126">
        <ele>604</ele>
        <time>2024-05-08T13:29:23.000Z</time>
      </trkpt>
      <trkpt lat="43.5834" lon="6.43126">
        <ele>605</ele>
        <time>2024-05-08T13:29:25.000Z</time>
      </trkpt>
      <trkpt lat="43.58348" lon="6.43126">
        <ele>605</ele>
        <time>2024-05-08T13:29:31.000Z</time>
      </trkpt>
      <trkpt lat="43.58349" lon="6.43127">
        <ele>605</ele>
        <time>2024-05-08T13:29:34.000Z</time>
      </trkpt>
      <trkpt lat="43.58352" lon="6.43127">
        <ele>605</ele>
        <time>2024-05-08T13:29:36.000Z</time>
      </trkpt>
      <trkpt lat="43.5836" lon="6.43127">
        <ele>606</ele>
        <time>2024-05-08T13:29:44.000Z</time>
      </trkpt>
      <trkpt lat="43.58363" lon="6.43129">
        <ele>606</ele>
        <time>2024-05-08T13:29:46.000Z</time>
      </trkpt>
      <trkpt lat="43.58367" lon="6.43131">
        <ele>605</ele>
        <time>2024-05-08T13:29:49.000Z</time>
      </trkpt>
      <trkpt lat="43.58372" lon="6.43134">
        <ele>605</ele>
        <time>2024-05-08T13:29:53.000Z</time>
      </trkpt>
      <trkpt lat="43.58374" lon="6.43135">
        <ele>604</ele>
        <time>2024-05-08T13:29:55.000Z</time>
      </trkpt>
      <trkpt lat="43.58376" lon="6.43136">
        <ele>604</ele>
        <time>2024-05-08T13:29:57.000Z</time>
      </trkpt>
      <trkpt lat="43.58381" lon="6.43137">
        <ele>603</ele>
        <time>2024-05-08T13:30:01.000Z</time>
      </trkpt>
      <trkpt lat="43.5839" lon="6.43139">
        <ele>602</ele>
        <time>2024-05-08T13:30:09.000Z</time>
      </trkpt>
      <trkpt lat="43.58392" lon="6.43139">
        <ele>602</ele>
        <time>2024-05-08T13:30:11.000Z</time>
      </trkpt>
      <trkpt lat="43.58395" lon="6.43135">
        <ele>601</ele>
        <time>2024-05-08T13:30:15.000Z</time>
      </trkpt>
      <trkpt lat="43.58399" lon="6.43132">
        <ele>602</ele>
        <time>2024-05-08T13:30:18.000Z</time>
      </trkpt>
      <trkpt lat="43.58401" lon="6.43129">
        <ele>602</ele>
        <time>2024-05-08T13:30:21.000Z</time>
      </trkpt>
      <trkpt lat="43.58414" lon="6.4312">
        <ele>603</ele>
        <time>2024-05-08T13:30:33.000Z</time>
      </trkpt>
      <trkpt lat="43.5842" lon="6.43111">
        <ele>602</ele>
        <time>2024-05-08T13:30:44.000Z</time>
      </trkpt>
      <trkpt lat="43.58423" lon="6.43106">
        <ele>602</ele>
        <time>2024-05-08T13:30:48.000Z</time>
      </trkpt>
      <trkpt lat="43.58423" lon="6.43104">
        <ele>603</ele>
        <time>2024-05-08T13:30:50.000Z</time>
      </trkpt>
      <trkpt lat="43.58425" lon="6.43102">
        <ele>603</ele>
        <time>2024-05-08T13:30:53.000Z</time>
      </trkpt>
      <trkpt lat="43.58426" lon="6.431">
        <ele>603</ele>
        <time>2024-05-08T13:30:56.000Z</time>
      </trkpt>
      <trkpt lat="43.58426" lon="6.43098">
        <ele>603</ele>
        <time>2024-05-08T13:30:59.000Z</time>
      </trkpt>
      <trkpt lat="43.58427" lon="6.43094">
        <ele>603</ele>
        <time>2024-05-08T13:31:04.000Z</time>
      </trkpt>
      <trkpt lat="43.58429" lon="6.43092">
        <ele>603</ele>
        <time>2024-05-08T13:31:07.000Z</time>
      </trkpt>
      <trkpt lat="43.5843" lon="6.4309">
        <ele>602</ele>
        <time>2024-05-08T13:31:09.000Z</time>
      </trkpt>
      <trkpt lat="43.58432" lon="6.43089">
        <ele>602</ele>
        <time>2024-05-08T13:31:12.000Z</time>
      </trkpt>
      <trkpt lat="43.58432" lon="6.43087">
        <ele>601</ele>
        <time>2024-05-08T13:31:43.000Z</time>
      </trkpt>
      <trkpt lat="43.58434" lon="6.43086">
        <ele>602</ele>
        <time>2024-05-08T13:31:51.000Z</time>
      </trkpt>
      <trkpt lat="43.58435" lon="6.4309">
        <ele>602</ele>
        <time>2024-05-08T13:32:19.000Z</time>
      </trkpt>
      <trkpt lat="43.58435" lon="6.43089">
        <ele>602</ele>
        <time>2024-05-08T13:32:22.000Z</time>
      </trkpt>
      <trkpt lat="43.58435" lon="6.43086">
        <ele>602</ele>
        <time>2024-05-08T13:32:25.000Z</time>
      </trkpt>
      <trkpt lat="43.58435" lon="6.43084">
        <ele>602</ele>
        <time>2024-05-08T13:32:28.000Z</time>
      </trkpt>
      <trkpt lat="43.58435" lon="6.43081">
        <ele>600</ele>
        <time>2024-05-08T13:32:30.000Z</time>
      </trkpt>
      <trkpt lat="43.58436" lon="6.4308">
        <ele>600</ele>
        <time>2024-05-08T13:32:38.000Z</time>
      </trkpt>
      <trkpt lat="43.58437" lon="6.43081">
        <ele>599</ele>
        <time>2024-05-08T13:33:30.000Z</time>
      </trkpt>
      <trkpt lat="43.58437" lon="6.43083">
        <ele>599</ele>
        <time>2024-05-08T13:33:40.000Z</time>
      </trkpt>
      <trkpt lat="43.58436" lon="6.43086">
        <ele>599</ele>
        <time>2024-05-08T13:33:45.000Z</time>
      </trkpt>
      <trkpt lat="43.58436" lon="6.43088">
        <ele>600</ele>
        <time>2024-05-08T13:33:48.000Z</time>
      </trkpt>
      <trkpt lat="43.58438" lon="6.43089">
        <ele>601</ele>
        <time>2024-05-08T13:33:52.000Z</time>
      </trkpt>
      <trkpt lat="43.58437" lon="6.43091">
        <ele>603</ele>
        <time>2024-05-08T13:36:41.000Z</time>
      </trkpt>
      <trkpt lat="43.58437" lon="6.43093">
        <ele>603</ele>
        <time>2024-05-08T13:36:43.000Z</time>
      </trkpt>
      <trkpt lat="43.58433" lon="6.43095">
        <ele>603</ele>
        <time>2024-05-08T13:36:50.000Z</time>
      </trkpt>
      <trkpt lat="43.58432" lon="6.43097">
        <ele>603</ele>
        <time>2024-05-08T13:36:52.000Z</time>
      </trkpt>
      <trkpt lat="43.58432" lon="6.43099">
        <ele>603</ele>
        <time>2024-05-08T13:36:54.000Z</time>
      </trkpt>
      <trkpt lat="43.58433" lon="6.43103">
        <ele>603</ele>
        <time>2024-05-08T13:36:58.000Z</time>
      </trkpt>
      <trkpt lat="43.58433" lon="6.43104">
        <ele>603</ele>
        <time>2024-05-08T13:37:00.000Z</time>
      </trkpt>
      <trkpt lat="43.58434" lon="6.43109">
        <ele>603</ele>
        <time>2024-05-08T13:37:05.000Z</time>
      </trkpt>
      <trkpt lat="43.58435" lon="6.43111">
        <ele>603</ele>
        <time>2024-05-08T13:37:07.000Z</time>
      </trkpt>
      <trkpt lat="43.58436" lon="6.43115">
        <ele>604</ele>
        <time>2024-05-08T13:37:11.000Z</time>
      </trkpt>
      <trkpt lat="43.58436" lon="6.43118">
        <ele>603</ele>
        <time>2024-05-08T13:37:14.000Z</time>
      </trkpt>
      <trkpt lat="43.58436" lon="6.43121">
        <ele>603</ele>
        <time>2024-05-08T13:37:16.000Z</time>
      </trkpt>
      <trkpt lat="43.58436" lon="6.43123">
        <ele>603</ele>
        <time>2024-05-08T13:37:17.000Z</time>
      </trkpt>
      <trkpt lat="43.58435" lon="6.43125">
        <ele>603</ele>
        <time>2024-05-08T13:37:19.000Z</time>
      </trkpt>
      <trkpt lat="43.58437" lon="6.43125">
        <ele>603</ele>
        <time>2024-05-08T13:37:22.000Z</time>
      </trkpt>
      <trkpt lat="43.58438" lon="6.43124">
        <ele>603</ele>
        <time>2024-05-08T13:37:25.000Z</time>
      </trkpt>
      <trkpt lat="43.58437" lon="6.43127">
        <ele>602</ele>
        <time>2024-05-08T13:38:53.000Z</time>
      </trkpt>
      <trkpt lat="43.58438" lon="6.43129">
        <ele>604</ele>
        <time>2024-05-08T13:38:59.000Z</time>
      </trkpt>
      <trkpt lat="43.5844" lon="6.43131">
        <ele>604</ele>
        <time>2024-05-08T13:39:01.000Z</time>
      </trkpt>
      <trkpt lat="43.58441" lon="6.43131">
        <ele>603</ele>
        <time>2024-05-08T13:39:03.000Z</time>
      </trkpt>
      <trkpt lat="43.58443" lon="6.43132">
        <ele>603</ele>
        <time>2024-05-08T13:39:05.000Z</time>
      </trkpt>
      <trkpt lat="43.58449" lon="6.43139">
        <ele>602</ele>
        <time>2024-05-08T13:39:12.000Z</time>
      </trkpt>
      <trkpt lat="43.5845" lon="6.43142">
        <ele>602</ele>
        <time>2024-05-08T13:39:14.000Z</time>
      </trkpt>
      <trkpt lat="43.58452" lon="6.43146">
        <ele>601</ele>
        <time>2024-05-08T13:39:18.000Z</time>
      </trkpt>
      <trkpt lat="43.58453" lon="6.43148">
        <ele>601</ele>
        <time>2024-05-08T13:39:20.000Z</time>
      </trkpt>
      <trkpt lat="43.5846" lon="6.43158">
        <ele>600</ele>
        <time>2024-05-08T13:39:29.000Z</time>
      </trkpt>
      <trkpt lat="43.58466" lon="6.43158">
        <ele>599</ele>
        <time>2024-05-08T13:39:34.000Z</time>
      </trkpt>
      <trkpt lat="43.58467" lon="6.43158">
        <ele>599</ele>
        <time>2024-05-08T13:39:36.000Z</time>
      </trkpt>
      <trkpt lat="43.58469" lon="6.43159">
        <ele>599</ele>
        <time>2024-05-08T13:39:38.000Z</time>
      </trkpt>
      <trkpt lat="43.58471" lon="6.4316">
        <ele>599</ele>
        <time>2024-05-08T13:39:40.000Z</time>
      </trkpt>
      <trkpt lat="43.58472" lon="6.4316">
        <ele>599</ele>
        <time>2024-05-08T13:39:41.000Z</time>
      </trkpt>
      <trkpt lat="43.58474" lon="6.4316">
        <ele>599</ele>
        <time>2024-05-08T13:39:42.000Z</time>
      </trkpt>
      <trkpt lat="43.58475" lon="6.4316">
        <ele>599</ele>
        <time>2024-05-08T13:39:44.000Z</time>
      </trkpt>
      <trkpt lat="43.58477" lon="6.4316">
        <ele>599</ele>
        <time>2024-05-08T13:39:46.000Z</time>
      </trkpt>
      <trkpt lat="43.5848" lon="6.4316">
        <ele>599</ele>
        <time>2024-05-08T13:39:48.000Z</time>
      </trkpt>
      <trkpt lat="43.58482" lon="6.4316">
        <ele>599</ele>
        <time>2024-05-08T13:39:50.000Z</time>
      </trkpt>
      <trkpt lat="43.5849" lon="6.43161">
        <ele>599</ele>
        <time>2024-05-08T13:39:57.000Z</time>
      </trkpt>
      <trkpt lat="43.58492" lon="6.43161">
        <ele>600</ele>
        <time>2024-05-08T13:40:01.000Z</time>
      </trkpt>
      <trkpt lat="43.58506" lon="6.43162">
        <ele>599</ele>
        <time>2024-05-08T13:40:13.000Z</time>
      </trkpt>
      <trkpt lat="43.58514" lon="6.43162">
        <ele>599</ele>
        <time>2024-05-08T13:40:22.000Z</time>
      </trkpt>
      <trkpt lat="43.58517" lon="6.43162">
        <ele>599</ele>
        <time>2024-05-08T13:40:24.000Z</time>
      </trkpt>
      <trkpt lat="43.58519" lon="6.43164">
        <ele>599</ele>
        <time>2024-05-08T13:40:26.000Z</time>
      </trkpt>
      <trkpt lat="43.58523" lon="6.43164">
        <ele>599</ele>
        <time>2024-05-08T13:40:30.000Z</time>
      </trkpt>
      <trkpt lat="43.58526" lon="6.43166">
        <ele>599</ele>
        <time>2024-05-08T13:40:32.000Z</time>
      </trkpt>
      <trkpt lat="43.58536" lon="6.4317">
        <ele>598</ele>
        <time>2024-05-08T13:40:41.000Z</time>
      </trkpt>
      <trkpt lat="43.58538" lon="6.43171">
        <ele>598</ele>
        <time>2024-05-08T13:40:43.000Z</time>
      </trkpt>
      <trkpt lat="43.58541" lon="6.43173">
        <ele>597</ele>
        <time>2024-05-08T13:40:45.000Z</time>
      </trkpt>
      <trkpt lat="43.58544" lon="6.43174">
        <ele>597</ele>
        <time>2024-05-08T13:40:48.000Z</time>
      </trkpt>
      <trkpt lat="43.5855" lon="6.43179">
        <ele>596</ele>
        <time>2024-05-08T13:40:54.000Z</time>
      </trkpt>
      <trkpt lat="43.58555" lon="6.43182">
        <ele>595</ele>
        <time>2024-05-08T13:40:58.000Z</time>
      </trkpt>
      <trkpt lat="43.58559" lon="6.43185">
        <ele>595</ele>
        <time>2024-05-08T13:41:02.000Z</time>
      </trkpt>
      <trkpt lat="43.58563" lon="6.43189">
        <ele>596</ele>
        <time>2024-05-08T13:41:06.000Z</time>
      </trkpt>
      <trkpt lat="43.58568" lon="6.43194">
        <ele>597</ele>
        <time>2024-05-08T13:41:12.000Z</time>
      </trkpt>
      <trkpt lat="43.58582" lon="6.43205">
        <ele>596</ele>
        <time>2024-05-08T13:41:24.000Z</time>
      </trkpt>
      <trkpt lat="43.58584" lon="6.43206">
        <ele>596</ele>
        <time>2024-05-08T13:41:26.000Z</time>
      </trkpt>
      <trkpt lat="43.58585" lon="6.43208">
        <ele>596</ele>
        <time>2024-05-08T13:41:28.000Z</time>
      </trkpt>
      <trkpt lat="43.58594" lon="6.43219">
        <ele>596</ele>
        <time>2024-05-08T13:41:38.000Z</time>
      </trkpt>
      <trkpt lat="43.58597" lon="6.43222">
        <ele>596</ele>
        <time>2024-05-08T13:41:42.000Z</time>
      </trkpt>
      <trkpt lat="43.58603" lon="6.43228">
        <ele>596</ele>
        <time>2024-05-08T13:41:47.000Z</time>
      </trkpt>
      <trkpt lat="43.58605" lon="6.4323">
        <ele>596</ele>
        <time>2024-05-08T13:41:49.000Z</time>
      </trkpt>
      <trkpt lat="43.58608" lon="6.43233">
        <ele>596</ele>
        <time>2024-05-08T13:41:53.000Z</time>
      </trkpt>
      <trkpt lat="43.58612" lon="6.43238">
        <ele>596</ele>
        <time>2024-05-08T13:41:57.000Z</time>
      </trkpt>
      <trkpt lat="43.58616" lon="6.43242">
        <ele>596</ele>
        <time>2024-05-08T13:42:01.000Z</time>
      </trkpt>
      <trkpt lat="43.58617" lon="6.43244">
        <ele>596</ele>
        <time>2024-05-08T13:42:03.000Z</time>
      </trkpt>
      <trkpt lat="43.58624" lon="6.43251">
        <ele>595</ele>
        <time>2024-05-08T13:42:09.000Z</time>
      </trkpt>
      <trkpt lat="43.5863" lon="6.43256">
        <ele>595</ele>
        <time>2024-05-08T13:42:16.000Z</time>
      </trkpt>
      <trkpt lat="43.58631" lon="6.43259">
        <ele>595</ele>
        <time>2024-05-08T13:42:19.000Z</time>
      </trkpt>
      <trkpt lat="43.58638" lon="6.43266">
        <ele>595</ele>
        <time>2024-05-08T13:42:27.000Z</time>
      </trkpt>
      <trkpt lat="43.58642" lon="6.43271">
        <ele>595</ele>
        <time>2024-05-08T13:42:31.000Z</time>
      </trkpt>
      <trkpt lat="43.58644" lon="6.43274">
        <ele>595</ele>
        <time>2024-05-08T13:42:33.000Z</time>
      </trkpt>
      <trkpt lat="43.58645" lon="6.43275">
        <ele>595</ele>
        <time>2024-05-08T13:42:35.000Z</time>
      </trkpt>
      <trkpt lat="43.58649" lon="6.4328">
        <ele>594</ele>
        <time>2024-05-08T13:42:38.000Z</time>
      </trkpt>
      <trkpt lat="43.58657" lon="6.43288">
        <ele>593</ele>
        <time>2024-05-08T13:42:46.000Z</time>
      </trkpt>
      <trkpt lat="43.58662" lon="6.43295">
        <ele>593</ele>
        <time>2024-05-08T13:42:52.000Z</time>
      </trkpt>
      <trkpt lat="43.58663" lon="6.43298">
        <ele>592</ele>
        <time>2024-05-08T13:42:54.000Z</time>
      </trkpt>
      <trkpt lat="43.58665" lon="6.433">
        <ele>592</ele>
        <time>2024-05-08T13:42:56.000Z</time>
      </trkpt>
      <trkpt lat="43.58667" lon="6.43302">
        <ele>592</ele>
        <time>2024-05-08T13:42:58.000Z</time>
      </trkpt>
      <trkpt lat="43.58668" lon="6.43305">
        <ele>592</ele>
        <time>2024-05-08T13:43:01.000Z</time>
      </trkpt>
      <trkpt lat="43.58672" lon="6.43309">
        <ele>593</ele>
        <time>2024-05-08T13:43:05.000Z</time>
      </trkpt>
      <trkpt lat="43.58673" lon="6.43311">
        <ele>592</ele>
        <time>2024-05-08T13:43:07.000Z</time>
      </trkpt>
      <trkpt lat="43.58683" lon="6.43321">
        <ele>595</ele>
        <time>2024-05-08T13:43:17.000Z</time>
      </trkpt>
      <trkpt lat="43.58685" lon="6.43323">
        <ele>595</ele>
        <time>2024-05-08T13:43:19.000Z</time>
      </trkpt>
      <trkpt lat="43.58687" lon="6.43325">
        <ele>595</ele>
        <time>2024-05-08T13:43:21.000Z</time>
      </trkpt>
      <trkpt lat="43.58689" lon="6.43331">
        <ele>594</ele>
        <time>2024-05-08T13:43:25.000Z</time>
      </trkpt>
      <trkpt lat="43.58691" lon="6.43333">
        <ele>594</ele>
        <time>2024-05-08T13:43:27.000Z</time>
      </trkpt>
      <trkpt lat="43.58693" lon="6.43336">
        <ele>594</ele>
        <time>2024-05-08T13:43:29.000Z</time>
      </trkpt>
      <trkpt lat="43.58694" lon="6.43338">
        <ele>594</ele>
        <time>2024-05-08T13:43:31.000Z</time>
      </trkpt>
      <trkpt lat="43.58695" lon="6.4334">
        <ele>594</ele>
        <time>2024-05-08T13:43:33.000Z</time>
      </trkpt>
      <trkpt lat="43.58697" lon="6.43343">
        <ele>594</ele>
        <time>2024-05-08T13:43:35.000Z</time>
      </trkpt>
      <trkpt lat="43.58698" lon="6.43345">
        <ele>593</ele>
        <time>2024-05-08T13:43:37.000Z</time>
      </trkpt>
      <trkpt lat="43.587" lon="6.4335">
        <ele>593</ele>
        <time>2024-05-08T13:43:41.000Z</time>
      </trkpt>
      <trkpt lat="43.58702" lon="6.43352">
        <ele>593</ele>
        <time>2024-05-08T13:43:43.000Z</time>
      </trkpt>
      <trkpt lat="43.58703" lon="6.43354">
        <ele>592</ele>
        <time>2024-05-08T13:43:45.000Z</time>
      </trkpt>
      <trkpt lat="43.58706" lon="6.43359">
        <ele>591</ele>
        <time>2024-05-08T13:43:49.000Z</time>
      </trkpt>
      <trkpt lat="43.58707" lon="6.43362">
        <ele>591</ele>
        <time>2024-05-08T13:43:51.000Z</time>
      </trkpt>
      <trkpt lat="43.58714" lon="6.43372">
        <ele>592</ele>
        <time>2024-05-08T13:44:00.000Z</time>
      </trkpt>
      <trkpt lat="43.58717" lon="6.43378">
        <ele>593</ele>
        <time>2024-05-08T13:44:04.000Z</time>
      </trkpt>
      <trkpt lat="43.58725" lon="6.43393">
        <ele>592</ele>
        <time>2024-05-08T13:44:15.000Z</time>
      </trkpt>
      <trkpt lat="43.58726" lon="6.43396">
        <ele>592</ele>
        <time>2024-05-08T13:44:17.000Z</time>
      </trkpt>
      <trkpt lat="43.58726" lon="6.43399">
        <ele>593</ele>
        <time>2024-05-08T13:44:19.000Z</time>
      </trkpt>
      <trkpt lat="43.58728" lon="6.43402">
        <ele>593</ele>
        <time>2024-05-08T13:44:21.000Z</time>
      </trkpt>
      <trkpt lat="43.58729" lon="6.43405">
        <ele>593</ele>
        <time>2024-05-08T13:44:23.000Z</time>
      </trkpt>
      <trkpt lat="43.5873" lon="6.43407">
        <ele>593</ele>
        <time>2024-05-08T13:44:25.000Z</time>
      </trkpt>
      <trkpt lat="43.58731" lon="6.4341">
        <ele>594</ele>
        <time>2024-05-08T13:44:28.000Z</time>
      </trkpt>
      <trkpt lat="43.58734" lon="6.43419">
        <ele>595</ele>
        <time>2024-05-08T13:44:34.000Z</time>
      </trkpt>
      <trkpt lat="43.58738" lon="6.43434">
        <ele>595</ele>
        <time>2024-05-08T13:44:45.000Z</time>
      </trkpt>
      <trkpt lat="43.58739" lon="6.43438">
        <ele>594</ele>
        <time>2024-05-08T13:44:47.000Z</time>
      </trkpt>
      <trkpt lat="43.58742" lon="6.43444">
        <ele>594</ele>
        <time>2024-05-08T13:44:51.000Z</time>
      </trkpt>
      <trkpt lat="43.58745" lon="6.43457">
        <ele>595</ele>
        <time>2024-05-08T13:44:59.000Z</time>
      </trkpt>
      <trkpt lat="43.58745" lon="6.4346">
        <ele>595</ele>
        <time>2024-05-08T13:45:02.000Z</time>
      </trkpt>
      <trkpt lat="43.58747" lon="6.43466">
        <ele>595</ele>
        <time>2024-05-08T13:45:06.000Z</time>
      </trkpt>
      <trkpt lat="43.58748" lon="6.43469">
        <ele>595</ele>
        <time>2024-05-08T13:45:08.000Z</time>
      </trkpt>
      <trkpt lat="43.5875" lon="6.43474">
        <ele>595</ele>
        <time>2024-05-08T13:45:12.000Z</time>
      </trkpt>
      <trkpt lat="43.58751" lon="6.43477">
        <ele>596</ele>
        <time>2024-05-08T13:45:14.000Z</time>
      </trkpt>
      <trkpt lat="43.58753" lon="6.4348">
        <ele>596</ele>
        <time>2024-05-08T13:45:16.000Z</time>
      </trkpt>
      <trkpt lat="43.58753" lon="6.43482">
        <ele>596</ele>
        <time>2024-05-08T13:45:18.000Z</time>
      </trkpt>
      <trkpt lat="43.58757" lon="6.43488">
        <ele>596</ele>
        <time>2024-05-08T13:45:22.000Z</time>
      </trkpt>
      <trkpt lat="43.5876" lon="6.43496">
        <ele>597</ele>
        <time>2024-05-08T13:45:28.000Z</time>
      </trkpt>
      <trkpt lat="43.58761" lon="6.43498">
        <ele>598</ele>
        <time>2024-05-08T13:45:30.000Z</time>
      </trkpt>
      <trkpt lat="43.58763" lon="6.43504">
        <ele>597</ele>
        <time>2024-05-08T13:45:34.000Z</time>
      </trkpt>
      <trkpt lat="43.58769" lon="6.43515">
        <ele>597</ele>
        <time>2024-05-08T13:45:42.000Z</time>
      </trkpt>
      <trkpt lat="43.5877" lon="6.43519">
        <ele>597</ele>
        <time>2024-05-08T13:45:44.000Z</time>
      </trkpt>
      <trkpt lat="43.58771" lon="6.43521">
        <ele>596</ele>
        <time>2024-05-08T13:45:46.000Z</time>
      </trkpt>
      <trkpt lat="43.58772" lon="6.43524">
        <ele>596</ele>
        <time>2024-05-08T13:45:48.000Z</time>
      </trkpt>
      <trkpt lat="43.58775" lon="6.4353">
        <ele>597</ele>
        <time>2024-05-08T13:45:52.000Z</time>
      </trkpt>
      <trkpt lat="43.58777" lon="6.43536">
        <ele>598</ele>
        <time>2024-05-08T13:45:56.000Z</time>
      </trkpt>
      <trkpt lat="43.58778" lon="6.4354">
        <ele>598</ele>
        <time>2024-05-08T13:45:58.000Z</time>
      </trkpt>
      <trkpt lat="43.58778" lon="6.43543">
        <ele>598</ele>
        <time>2024-05-08T13:46:00.000Z</time>
      </trkpt>
      <trkpt lat="43.58779" lon="6.43552">
        <ele>597</ele>
        <time>2024-05-08T13:46:06.000Z</time>
      </trkpt>
      <trkpt lat="43.58781" lon="6.43557">
        <ele>596</ele>
        <time>2024-05-08T13:46:09.000Z</time>
      </trkpt>
      <trkpt lat="43.58782" lon="6.43564">
        <ele>595</ele>
        <time>2024-05-08T13:46:14.000Z</time>
      </trkpt>
      <trkpt lat="43.58787" lon="6.4358">
        <ele>596</ele>
        <time>2024-05-08T13:46:24.000Z</time>
      </trkpt>
      <trkpt lat="43.58787" lon="6.43584">
        <ele>596</ele>
        <time>2024-05-08T13:46:26.000Z</time>
      </trkpt>
      <trkpt lat="43.58788" lon="6.43586">
        <ele>596</ele>
        <time>2024-05-08T13:46:28.000Z</time>
      </trkpt>
      <trkpt lat="43.58789" lon="6.43588">
        <ele>597</ele>
        <time>2024-05-08T13:46:30.000Z</time>
      </trkpt>
      <trkpt lat="43.58793" lon="6.43598">
        <ele>598</ele>
        <time>2024-05-08T13:46:37.000Z</time>
      </trkpt>
      <trkpt lat="43.58797" lon="6.4361">
        <ele>598</ele>
        <time>2024-05-08T13:46:45.000Z</time>
      </trkpt>
      <trkpt lat="43.58797" lon="6.43613">
        <ele>598</ele>
        <time>2024-05-08T13:46:47.000Z</time>
      </trkpt>
      <trkpt lat="43.58797" lon="6.43616">
        <ele>598</ele>
        <time>2024-05-08T13:46:49.000Z</time>
      </trkpt>
      <trkpt lat="43.588" lon="6.43627">
        <ele>597</ele>
        <time>2024-05-08T13:46:55.000Z</time>
      </trkpt>
      <trkpt lat="43.58801" lon="6.4363">
        <ele>597</ele>
        <time>2024-05-08T13:46:57.000Z</time>
      </trkpt>
      <trkpt lat="43.58802" lon="6.43639">
        <ele>597</ele>
        <time>2024-05-08T13:47:04.000Z</time>
      </trkpt>
      <trkpt lat="43.58803" lon="6.43646">
        <ele>598</ele>
        <time>2024-05-08T13:47:08.000Z</time>
      </trkpt>
      <trkpt lat="43.58803" lon="6.43656">
        <ele>599</ele>
        <time>2024-05-08T13:47:14.000Z</time>
      </trkpt>
      <trkpt lat="43.58803" lon="6.43664">
        <ele>600</ele>
        <time>2024-05-08T13:47:18.000Z</time>
      </trkpt>
      <trkpt lat="43.58803" lon="6.43668">
        <ele>601</ele>
        <time>2024-05-08T13:47:20.000Z</time>
      </trkpt>
      <trkpt lat="43.58803" lon="6.43677">
        <ele>602</ele>
        <time>2024-05-08T13:47:26.000Z</time>
      </trkpt>
      <trkpt lat="43.58801" lon="6.43684">
        <ele>601</ele>
        <time>2024-05-08T13:47:30.000Z</time>
      </trkpt>
      <trkpt lat="43.588" lon="6.43687">
        <ele>601</ele>
        <time>2024-05-08T13:47:32.000Z</time>
      </trkpt>
      <trkpt lat="43.58798" lon="6.43693">
        <ele>601</ele>
        <time>2024-05-08T13:47:36.000Z</time>
      </trkpt>
      <trkpt lat="43.58797" lon="6.43703">
        <ele>600</ele>
        <time>2024-05-08T13:47:42.000Z</time>
      </trkpt>
      <trkpt lat="43.58797" lon="6.43712">
        <ele>599</ele>
        <time>2024-05-08T13:47:47.000Z</time>
      </trkpt>
      <trkpt lat="43.58796" lon="6.43716">
        <ele>598</ele>
        <time>2024-05-08T13:47:49.000Z</time>
      </trkpt>
      <trkpt lat="43.58795" lon="6.43719">
        <ele>597</ele>
        <time>2024-05-08T13:47:51.000Z</time>
      </trkpt>
      <trkpt lat="43.58794" lon="6.43729">
        <ele>598</ele>
        <time>2024-05-08T13:47:58.000Z</time>
      </trkpt>
      <trkpt lat="43.5879" lon="6.43742">
        <ele>598</ele>
        <time>2024-05-08T13:48:06.000Z</time>
      </trkpt>
      <trkpt lat="43.58784" lon="6.43763">
        <ele>598</ele>
        <time>2024-05-08T13:48:19.000Z</time>
      </trkpt>
      <trkpt lat="43.58783" lon="6.43767">
        <ele>599</ele>
        <time>2024-05-08T13:48:21.000Z</time>
      </trkpt>
      <trkpt lat="43.58783" lon="6.4377">
        <ele>599</ele>
        <time>2024-05-08T13:48:23.000Z</time>
      </trkpt>
      <trkpt lat="43.58782" lon="6.43782">
        <ele>601</ele>
        <time>2024-05-08T13:48:31.000Z</time>
      </trkpt>
      <trkpt lat="43.58782" lon="6.43786">
        <ele>601</ele>
        <time>2024-05-08T13:48:33.000Z</time>
      </trkpt>
      <trkpt lat="43.58786" lon="6.43802">
        <ele>599</ele>
        <time>2024-05-08T13:48:44.000Z</time>
      </trkpt>
      <trkpt lat="43.58792" lon="6.43815">
        <ele>599</ele>
        <time>2024-05-08T13:48:53.000Z</time>
      </trkpt>
      <trkpt lat="43.58793" lon="6.43818">
        <ele>599</ele>
        <time>2024-05-08T13:48:55.000Z</time>
      </trkpt>
      <trkpt lat="43.58797" lon="6.43835">
        <ele>599</ele>
        <time>2024-05-08T13:49:11.000Z</time>
      </trkpt>
      <trkpt lat="43.58797" lon="6.43838">
        <ele>599</ele>
        <time>2024-05-08T13:49:14.000Z</time>
      </trkpt>
      <trkpt lat="43.58798" lon="6.4384">
        <ele>600</ele>
        <time>2024-05-08T13:49:16.000Z</time>
      </trkpt>
      <trkpt lat="43.58798" lon="6.43842">
        <ele>601</ele>
        <time>2024-05-08T13:49:20.000Z</time>
      </trkpt>
      <trkpt lat="43.588" lon="6.43848">
        <ele>601</ele>
        <time>2024-05-08T13:49:26.000Z</time>
      </trkpt>
      <trkpt lat="43.58801" lon="6.43851">
        <ele>601</ele>
        <time>2024-05-08T13:49:28.000Z</time>
      </trkpt>
      <trkpt lat="43.58804" lon="6.43858">
        <ele>602</ele>
        <time>2024-05-08T13:49:34.000Z</time>
      </trkpt>
      <trkpt lat="43.58809" lon="6.43869">
        <ele>603</ele>
        <time>2024-05-08T13:49:42.000Z</time>
      </trkpt>
      <trkpt lat="43.58809" lon="6.43871">
        <ele>604</ele>
        <time>2024-05-08T13:49:44.000Z</time>
      </trkpt>
      <trkpt lat="43.58812" lon="6.43877">
        <ele>604</ele>
        <time>2024-05-08T13:49:48.000Z</time>
      </trkpt>
      <trkpt lat="43.58812" lon="6.43879">
        <ele>603</ele>
        <time>2024-05-08T13:49:50.000Z</time>
      </trkpt>
      <trkpt lat="43.58814" lon="6.43893">
        <ele>603</ele>
        <time>2024-05-08T13:50:00.000Z</time>
      </trkpt>
      <trkpt lat="43.58818" lon="6.43906">
        <ele>603</ele>
        <time>2024-05-08T13:50:08.000Z</time>
      </trkpt>
      <trkpt lat="43.58817" lon="6.43908">
        <ele>603</ele>
        <time>2024-05-08T13:50:10.000Z</time>
      </trkpt>
      <trkpt lat="43.58817" lon="6.43911">
        <ele>603</ele>
        <time>2024-05-08T13:50:12.000Z</time>
      </trkpt>
      <trkpt lat="43.58818" lon="6.43917">
        <ele>603</ele>
        <time>2024-05-08T13:50:15.000Z</time>
      </trkpt>
      <trkpt lat="43.58817" lon="6.43925">
        <ele>602</ele>
        <time>2024-05-08T13:50:21.000Z</time>
      </trkpt>
      <trkpt lat="43.58816" lon="6.43934">
        <ele>602</ele>
        <time>2024-05-08T13:50:27.000Z</time>
      </trkpt>
      <trkpt lat="43.58817" lon="6.43936">
        <ele>602</ele>
        <time>2024-05-08T13:50:29.000Z</time>
      </trkpt>
      <trkpt lat="43.58818" lon="6.43948">
        <ele>602</ele>
        <time>2024-05-08T13:50:35.000Z</time>
      </trkpt>
      <trkpt lat="43.58822" lon="6.43976">
        <ele>604</ele>
        <time>2024-05-08T13:50:56.000Z</time>
      </trkpt>
      <trkpt lat="43.58825" lon="6.43986">
        <ele>604</ele>
        <time>2024-05-08T13:51:02.000Z</time>
      </trkpt>
      <trkpt lat="43.58827" lon="6.43992">
        <ele>603</ele>
        <time>2024-05-08T13:51:05.000Z</time>
      </trkpt>
      <trkpt lat="43.58828" lon="6.43995">
        <ele>603</ele>
        <time>2024-05-08T13:51:07.000Z</time>
      </trkpt>
      <trkpt lat="43.58829" lon="6.43998">
        <ele>602</ele>
        <time>2024-05-08T13:51:09.000Z</time>
      </trkpt>
      <trkpt lat="43.5883" lon="6.44003">
        <ele>603</ele>
        <time>2024-05-08T13:51:13.000Z</time>
      </trkpt>
      <trkpt lat="43.58829" lon="6.44006">
        <ele>603</ele>
        <time>2024-05-08T13:51:16.000Z</time>
      </trkpt>
      <trkpt lat="43.58829" lon="6.44014">
        <ele>604</ele>
        <time>2024-05-08T13:51:20.000Z</time>
      </trkpt>
      <trkpt lat="43.58827" lon="6.4402">
        <ele>604</ele>
        <time>2024-05-08T13:51:24.000Z</time>
      </trkpt>
      <trkpt lat="43.58827" lon="6.44023">
        <ele>604</ele>
        <time>2024-05-08T13:51:26.000Z</time>
      </trkpt>
      <trkpt lat="43.58827" lon="6.44026">
        <ele>604</ele>
        <time>2024-05-08T13:51:28.000Z</time>
      </trkpt>
      <trkpt lat="43.58826" lon="6.44028">
        <ele>604</ele>
        <time>2024-05-08T13:51:30.000Z</time>
      </trkpt>
      <trkpt lat="43.58826" lon="6.44034">
        <ele>604</ele>
        <time>2024-05-08T13:51:34.000Z</time>
      </trkpt>
      <trkpt lat="43.58826" lon="6.44037">
        <ele>604</ele>
        <time>2024-05-08T13:51:36.000Z</time>
      </trkpt>
      <trkpt lat="43.58828" lon="6.44044">
        <ele>603</ele>
        <time>2024-05-08T13:51:42.000Z</time>
      </trkpt>
      <trkpt lat="43.58829" lon="6.44047">
        <ele>603</ele>
        <time>2024-05-08T13:51:44.000Z</time>
      </trkpt>
      <trkpt lat="43.58833" lon="6.44049">
        <ele>604</ele>
        <time>2024-05-08T13:51:48.000Z</time>
      </trkpt>
      <trkpt lat="43.58837" lon="6.44053">
        <ele>605</ele>
        <time>2024-05-08T13:51:54.000Z</time>
      </trkpt>
      <trkpt lat="43.5884" lon="6.44057">
        <ele>606</ele>
        <time>2024-05-08T13:51:59.000Z</time>
      </trkpt>
      <trkpt lat="43.58842" lon="6.44058">
        <ele>606</ele>
        <time>2024-05-08T13:52:00.000Z</time>
      </trkpt>
      <trkpt lat="43.58846" lon="6.44062">
        <ele>607</ele>
        <time>2024-05-08T13:52:04.000Z</time>
      </trkpt>
      <trkpt lat="43.58847" lon="6.44066">
        <ele>607</ele>
        <time>2024-05-08T13:52:06.000Z</time>
      </trkpt>
      <trkpt lat="43.5885" lon="6.44069">
        <ele>606</ele>
        <time>2024-05-08T13:52:10.000Z</time>
      </trkpt>
      <trkpt lat="43.58851" lon="6.44071">
        <ele>606</ele>
        <time>2024-05-08T13:52:12.000Z</time>
      </trkpt>
      <trkpt lat="43.58852" lon="6.44074">
        <ele>606</ele>
        <time>2024-05-08T13:52:14.000Z</time>
      </trkpt>
      <trkpt lat="43.58854" lon="6.44076">
        <ele>606</ele>
        <time>2024-05-08T13:52:16.000Z</time>
      </trkpt>
      <trkpt lat="43.58857" lon="6.44081">
        <ele>606</ele>
        <time>2024-05-08T13:52:20.000Z</time>
      </trkpt>
      <trkpt lat="43.58861" lon="6.44085">
        <ele>606</ele>
        <time>2024-05-08T13:52:24.000Z</time>
      </trkpt>
      <trkpt lat="43.58865" lon="6.4409">
        <ele>606</ele>
        <time>2024-05-08T13:52:29.000Z</time>
      </trkpt>
      <trkpt lat="43.58869" lon="6.44097">
        <ele>607</ele>
        <time>2024-05-08T13:52:37.000Z</time>
      </trkpt>
      <trkpt lat="43.58874" lon="6.44101">
        <ele>609</ele>
        <time>2024-05-08T13:52:41.000Z</time>
      </trkpt>
      <trkpt lat="43.58877" lon="6.44105">
        <ele>611</ele>
        <time>2024-05-08T13:52:45.000Z</time>
      </trkpt>
      <trkpt lat="43.58879" lon="6.44107">
        <ele>612</ele>
        <time>2024-05-08T13:52:48.000Z</time>
      </trkpt>
      <trkpt lat="43.5888" lon="6.44109">
        <ele>612</ele>
        <time>2024-05-08T13:52:50.000Z</time>
      </trkpt>
      <trkpt lat="43.58885" lon="6.44112">
        <ele>613</ele>
        <time>2024-05-08T13:52:57.000Z</time>
      </trkpt>
      <trkpt lat="43.58887" lon="6.44115">
        <ele>613</ele>
        <time>2024-05-08T13:52:59.000Z</time>
      </trkpt>
      <trkpt lat="43.58893" lon="6.44121">
        <ele>612</ele>
        <time>2024-05-08T13:53:05.000Z</time>
      </trkpt>
      <trkpt lat="43.58895" lon="6.44123">
        <ele>611</ele>
        <time>2024-05-08T13:53:08.000Z</time>
      </trkpt>
      <trkpt lat="43.58897" lon="6.44124">
        <ele>611</ele>
        <time>2024-05-08T13:53:11.000Z</time>
      </trkpt>
      <trkpt lat="43.58899" lon="6.44124">
        <ele>611</ele>
        <time>2024-05-08T13:53:13.000Z</time>
      </trkpt>
      <trkpt lat="43.58902" lon="6.44127">
        <ele>611</ele>
        <time>2024-05-08T13:53:17.000Z</time>
      </trkpt>
      <trkpt lat="43.58903" lon="6.44127">
        <ele>611</ele>
        <time>2024-05-08T13:53:19.000Z</time>
      </trkpt>
      <trkpt lat="43.58908" lon="6.44129">
        <ele>612</ele>
        <time>2024-05-08T13:53:23.000Z</time>
      </trkpt>
      <trkpt lat="43.58914" lon="6.44131">
        <ele>613</ele>
        <time>2024-05-08T13:53:29.000Z</time>
      </trkpt>
      <trkpt lat="43.58915" lon="6.44131">
        <ele>613</ele>
        <time>2024-05-08T13:53:31.000Z</time>
      </trkpt>
      <trkpt lat="43.58919" lon="6.44132">
        <ele>614</ele>
        <time>2024-05-08T13:53:35.000Z</time>
      </trkpt>
      <trkpt lat="43.58921" lon="6.44133">
        <ele>614</ele>
        <time>2024-05-08T13:53:37.000Z</time>
      </trkpt>
      <trkpt lat="43.58923" lon="6.44134">
        <ele>615</ele>
        <time>2024-05-08T13:53:39.000Z</time>
      </trkpt>
      <trkpt lat="43.58938" lon="6.44139">
        <ele>615</ele>
        <time>2024-05-08T13:53:53.000Z</time>
      </trkpt>
      <trkpt lat="43.5894" lon="6.4414">
        <ele>615</ele>
        <time>2024-05-08T13:53:55.000Z</time>
      </trkpt>
      <trkpt lat="43.58945" lon="6.44141">
        <ele>617</ele>
        <time>2024-05-08T13:54:00.000Z</time>
      </trkpt>
      <trkpt lat="43.58947" lon="6.44142">
        <ele>617</ele>
        <time>2024-05-08T13:54:02.000Z</time>
      </trkpt>
      <trkpt lat="43.5895" lon="6.44143">
        <ele>617</ele>
        <time>2024-05-08T13:54:04.000Z</time>
      </trkpt>
      <trkpt lat="43.58951" lon="6.44144">
        <ele>617</ele>
        <time>2024-05-08T13:54:06.000Z</time>
      </trkpt>
      <trkpt lat="43.58955" lon="6.44146">
        <ele>617</ele>
        <time>2024-05-08T13:54:09.000Z</time>
      </trkpt>
      <trkpt lat="43.58959" lon="6.44147">
        <ele>617</ele>
        <time>2024-05-08T13:54:11.000Z</time>
      </trkpt>
      <trkpt lat="43.58961" lon="6.44148">
        <ele>616</ele>
        <time>2024-05-08T13:54:13.000Z</time>
      </trkpt>
      <trkpt lat="43.58964" lon="6.44151">
        <ele>616</ele>
        <time>2024-05-08T13:54:17.000Z</time>
      </trkpt>
      <trkpt lat="43.58967" lon="6.44151">
        <ele>615</ele>
        <time>2024-05-08T13:54:19.000Z</time>
      </trkpt>
      <trkpt lat="43.58969" lon="6.44151">
        <ele>615</ele>
        <time>2024-05-08T13:54:21.000Z</time>
      </trkpt>
      <trkpt lat="43.58973" lon="6.44152">
        <ele>616</ele>
        <time>2024-05-08T13:54:25.000Z</time>
      </trkpt>
      <trkpt lat="43.58975" lon="6.44152">
        <ele>616</ele>
        <time>2024-05-08T13:54:27.000Z</time>
      </trkpt>
      <trkpt lat="43.58977" lon="6.44152">
        <ele>617</ele>
        <time>2024-05-08T13:54:29.000Z</time>
      </trkpt>
      <trkpt lat="43.58979" lon="6.44153">
        <ele>618</ele>
        <time>2024-05-08T13:54:31.000Z</time>
      </trkpt>
      <trkpt lat="43.58981" lon="6.44154">
        <ele>618</ele>
        <time>2024-05-08T13:54:33.000Z</time>
      </trkpt>
      <trkpt lat="43.58983" lon="6.44155">
        <ele>618</ele>
        <time>2024-05-08T13:54:35.000Z</time>
      </trkpt>
      <trkpt lat="43.5899" lon="6.44157">
        <ele>618</ele>
        <time>2024-05-08T13:54:41.000Z</time>
      </trkpt>
      <trkpt lat="43.58992" lon="6.44158">
        <ele>618</ele>
        <time>2024-05-08T13:54:43.000Z</time>
      </trkpt>
      <trkpt lat="43.58994" lon="6.44159">
        <ele>618</ele>
        <time>2024-05-08T13:54:45.000Z</time>
      </trkpt>
      <trkpt lat="43.58995" lon="6.44159">
        <ele>618</ele>
        <time>2024-05-08T13:54:47.000Z</time>
      </trkpt>
      <trkpt lat="43.59006" lon="6.44162">
        <ele>619</ele>
        <time>2024-05-08T13:54:56.000Z</time>
      </trkpt>
      <trkpt lat="43.59009" lon="6.44162">
        <ele>619</ele>
        <time>2024-05-08T13:54:58.000Z</time>
      </trkpt>
      <trkpt lat="43.59014" lon="6.44163">
        <ele>619</ele>
        <time>2024-05-08T13:55:01.000Z</time>
      </trkpt>
      <trkpt lat="43.59019" lon="6.44165">
        <ele>619</ele>
        <time>2024-05-08T13:55:05.000Z</time>
      </trkpt>
      <trkpt lat="43.59023" lon="6.44167">
        <ele>618</ele>
        <time>2024-05-08T13:55:09.000Z</time>
      </trkpt>
      <trkpt lat="43.59027" lon="6.44168">
        <ele>618</ele>
        <time>2024-05-08T13:55:13.000Z</time>
      </trkpt>
      <trkpt lat="43.59028" lon="6.44169">
        <ele>618</ele>
        <time>2024-05-08T13:55:15.000Z</time>
      </trkpt>
      <trkpt lat="43.59032" lon="6.4417">
        <ele>618</ele>
        <time>2024-05-08T13:55:17.000Z</time>
      </trkpt>
      <trkpt lat="43.59045" lon="6.44179">
        <ele>618</ele>
        <time>2024-05-08T13:55:30.000Z</time>
      </trkpt>
      <trkpt lat="43.59047" lon="6.44181">
        <ele>618</ele>
        <time>2024-05-08T13:55:32.000Z</time>
      </trkpt>
      <trkpt lat="43.59049" lon="6.44181">
        <ele>618</ele>
        <time>2024-05-08T13:55:34.000Z</time>
      </trkpt>
      <trkpt lat="43.59052" lon="6.44183">
        <ele>619</ele>
        <time>2024-05-08T13:55:36.000Z</time>
      </trkpt>
      <trkpt lat="43.59057" lon="6.44184">
        <ele>619</ele>
        <time>2024-05-08T13:55:40.000Z</time>
      </trkpt>
      <trkpt lat="43.59067" lon="6.44191">
        <ele>620</ele>
        <time>2024-05-08T13:55:49.000Z</time>
      </trkpt>
      <trkpt lat="43.59075" lon="6.44204">
        <ele>619</ele>
        <time>2024-05-08T13:56:00.000Z</time>
      </trkpt>
      <trkpt lat="43.59076" lon="6.44208">
        <ele>619</ele>
        <time>2024-05-08T13:56:02.000Z</time>
      </trkpt>
      <trkpt lat="43.59078" lon="6.44212">
        <ele>619</ele>
        <time>2024-05-08T13:56:04.000Z</time>
      </trkpt>
      <trkpt lat="43.59078" lon="6.44214">
        <ele>619</ele>
        <time>2024-05-08T13:56:05.000Z</time>
      </trkpt>
      <trkpt lat="43.59081" lon="6.44223">
        <ele>621</ele>
        <time>2024-05-08T13:56:11.000Z</time>
      </trkpt>
      <trkpt lat="43.59081" lon="6.44226">
        <ele>620</ele>
        <time>2024-05-08T13:56:13.000Z</time>
      </trkpt>
      <trkpt lat="43.59082" lon="6.44232">
        <ele>619</ele>
        <time>2024-05-08T13:56:17.000Z</time>
      </trkpt>
      <trkpt lat="43.59084" lon="6.44237">
        <ele>619</ele>
        <time>2024-05-08T13:56:21.000Z</time>
      </trkpt>
      <trkpt lat="43.59084" lon="6.44246">
        <ele>618</ele>
        <time>2024-05-08T13:56:28.000Z</time>
      </trkpt>
      <trkpt lat="43.59085" lon="6.44251">
        <ele>617</ele>
        <time>2024-05-08T13:56:31.000Z</time>
      </trkpt>
      <trkpt lat="43.59089" lon="6.44268">
        <ele>614</ele>
        <time>2024-05-08T13:56:43.000Z</time>
      </trkpt>
      <trkpt lat="43.59092" lon="6.44277">
        <ele>612</ele>
        <time>2024-05-08T13:56:50.000Z</time>
      </trkpt>
      <trkpt lat="43.59097" lon="6.44293">
        <ele>611</ele>
        <time>2024-05-08T13:57:00.000Z</time>
      </trkpt>
      <trkpt lat="43.59097" lon="6.44298">
        <ele>611</ele>
        <time>2024-05-08T13:57:04.000Z</time>
      </trkpt>
      <trkpt lat="43.59097" lon="6.44302">
        <ele>611</ele>
        <time>2024-05-08T13:57:06.000Z</time>
      </trkpt>
      <trkpt lat="43.59097" lon="6.44316">
        <ele>608</ele>
        <time>2024-05-08T13:57:14.000Z</time>
      </trkpt>
      <trkpt lat="43.59098" lon="6.44318">
        <ele>608</ele>
        <time>2024-05-08T13:57:16.000Z</time>
      </trkpt>
      <trkpt lat="43.59099" lon="6.44321">
        <ele>607</ele>
        <time>2024-05-08T13:57:18.000Z</time>
      </trkpt>
      <trkpt lat="43.59105" lon="6.44339">
        <ele>606</ele>
        <time>2024-05-08T13:57:28.000Z</time>
      </trkpt>
      <trkpt lat="43.59109" lon="6.44355">
        <ele>607</ele>
        <time>2024-05-08T13:57:38.000Z</time>
      </trkpt>
      <trkpt lat="43.59112" lon="6.44362">
        <ele>605</ele>
        <time>2024-05-08T13:57:42.000Z</time>
      </trkpt>
      <trkpt lat="43.59113" lon="6.44364">
        <ele>605</ele>
        <time>2024-05-08T13:57:43.000Z</time>
      </trkpt>
      <trkpt lat="43.59118" lon="6.44376">
        <ele>604</ele>
        <time>2024-05-08T13:57:51.000Z</time>
      </trkpt>
      <trkpt lat="43.5912" lon="6.44381">
        <ele>605</ele>
        <time>2024-05-08T13:57:55.000Z</time>
      </trkpt>
      <trkpt lat="43.59126" lon="6.44391">
        <ele>607</ele>
        <time>2024-05-08T13:58:02.000Z</time>
      </trkpt>
      <trkpt lat="43.59131" lon="6.44399">
        <ele>606</ele>
        <time>2024-05-08T13:58:07.000Z</time>
      </trkpt>
      <trkpt lat="43.59137" lon="6.44414">
        <ele>606</ele>
        <time>2024-05-08T13:58:17.000Z</time>
      </trkpt>
      <trkpt lat="43.59138" lon="6.44417">
        <ele>606</ele>
        <time>2024-05-08T13:58:19.000Z</time>
      </trkpt>
      <trkpt lat="43.59141" lon="6.44424">
        <ele>606</ele>
        <time>2024-05-08T13:58:25.000Z</time>
      </trkpt>
      <trkpt lat="43.59142" lon="6.44427">
        <ele>605</ele>
        <time>2024-05-08T13:58:27.000Z</time>
      </trkpt>
      <trkpt lat="43.59145" lon="6.44433">
        <ele>604</ele>
        <time>2024-05-08T13:58:31.000Z</time>
      </trkpt>
      <trkpt lat="43.59148" lon="6.44447">
        <ele>604</ele>
        <time>2024-05-08T13:58:39.000Z</time>
      </trkpt>
      <trkpt lat="43.59148" lon="6.4445">
        <ele>605</ele>
        <time>2024-05-08T13:58:41.000Z</time>
      </trkpt>
      <trkpt lat="43.59159" lon="6.44487">
        <ele>603</ele>
        <time>2024-05-08T13:59:04.000Z</time>
      </trkpt>
      <trkpt lat="43.5916" lon="6.44499">
        <ele>603</ele>
        <time>2024-05-08T13:59:10.000Z</time>
      </trkpt>
      <trkpt lat="43.5916" lon="6.44501">
        <ele>602</ele>
        <time>2024-05-08T13:59:12.000Z</time>
      </trkpt>
      <trkpt lat="43.5916" lon="6.44504">
        <ele>602</ele>
        <time>2024-05-08T13:59:14.000Z</time>
      </trkpt>
      <trkpt lat="43.5916" lon="6.44506">
        <ele>601</ele>
        <time>2024-05-08T13:59:17.000Z</time>
      </trkpt>
      <trkpt lat="43.59161" lon="6.44508">
        <ele>601</ele>
        <time>2024-05-08T13:59:20.000Z</time>
      </trkpt>
      <trkpt lat="43.59163" lon="6.44508">
        <ele>600</ele>
        <time>2024-05-08T13:59:26.000Z</time>
      </trkpt>
      <trkpt lat="43.59164" lon="6.4451">
        <ele>600</ele>
        <time>2024-05-08T13:59:29.000Z</time>
      </trkpt>
      <trkpt lat="43.59166" lon="6.44511">
        <ele>600</ele>
        <time>2024-05-08T13:59:31.000Z</time>
      </trkpt>
      <trkpt lat="43.59163" lon="6.44519">
        <ele>602</ele>
        <time>2024-05-08T14:00:20.000Z</time>
      </trkpt>
      <trkpt lat="43.59164" lon="6.44521">
        <ele>603</ele>
        <time>2024-05-08T14:00:23.000Z</time>
      </trkpt>
      <trkpt lat="43.59158" lon="6.44521">
        <ele>608</ele>
        <time>2024-05-08T14:06:00.000Z</time>
      </trkpt>
      <trkpt lat="43.59159" lon="6.44524">
        <ele>610</ele>
        <time>2024-05-08T14:06:03.000Z</time>
      </trkpt>
      <trkpt lat="43.59158" lon="6.44526">
        <ele>612</ele>
        <time>2024-05-08T14:06:06.000Z</time>
      </trkpt>
      <trkpt lat="43.59158" lon="6.44529">
        <ele>613</ele>
        <time>2024-05-08T14:06:08.000Z</time>
      </trkpt>
      <trkpt lat="43.59158" lon="6.44534">
        <ele>613</ele>
        <time>2024-05-08T14:06:12.000Z</time>
      </trkpt>
      <trkpt lat="43.59157" lon="6.44536">
        <ele>613</ele>
        <time>2024-05-08T14:06:14.000Z</time>
      </trkpt>
      <trkpt lat="43.59158" lon="6.44542">
        <ele>612</ele>
        <time>2024-05-08T14:06:19.000Z</time>
      </trkpt>
      <trkpt lat="43.59159" lon="6.44546">
        <ele>611</ele>
        <time>2024-05-08T14:06:21.000Z</time>
      </trkpt>
      <trkpt lat="43.59158" lon="6.44554">
        <ele>609</ele>
        <time>2024-05-08T14:06:29.000Z</time>
      </trkpt>
      <trkpt lat="43.59159" lon="6.44555">
        <ele>608</ele>
        <time>2024-05-08T14:06:32.000Z</time>
      </trkpt>
      <trkpt lat="43.59162" lon="6.44559">
        <ele>605</ele>
        <time>2024-05-08T14:06:39.000Z</time>
      </trkpt>
      <trkpt lat="43.59165" lon="6.44562">
        <ele>603</ele>
        <time>2024-05-08T14:06:43.000Z</time>
      </trkpt>
      <trkpt lat="43.59165" lon="6.44564">
        <ele>602</ele>
        <time>2024-05-08T14:06:46.000Z</time>
      </trkpt>
      <trkpt lat="43.59164" lon="6.44567">
        <ele>601</ele>
        <time>2024-05-08T14:06:50.000Z</time>
      </trkpt>
      <trkpt lat="43.59165" lon="6.44569">
        <ele>600</ele>
        <time>2024-05-08T14:06:54.000Z</time>
      </trkpt>
      <trkpt lat="43.59166" lon="6.44574">
        <ele>603</ele>
        <time>2024-05-08T14:07:33.000Z</time>
      </trkpt>
      <trkpt lat="43.59166" lon="6.44576">
        <ele>605</ele>
        <time>2024-05-08T14:07:35.000Z</time>
      </trkpt>
      <trkpt lat="43.59163" lon="6.44581">
        <ele>605</ele>
        <time>2024-05-08T14:07:42.000Z</time>
      </trkpt>
      <trkpt lat="43.59162" lon="6.44586">
        <ele>603</ele>
        <time>2024-05-08T14:07:51.000Z</time>
      </trkpt>
      <trkpt lat="43.59164" lon="6.44586">
        <ele>603</ele>
        <time>2024-05-08T14:07:56.000Z</time>
      </trkpt>
      <trkpt lat="43.59173" lon="6.44587">
        <ele>601</ele>
        <time>2024-05-08T14:08:12.000Z</time>
      </trkpt>
      <trkpt lat="43.59175" lon="6.44588">
        <ele>600</ele>
        <time>2024-05-08T14:08:17.000Z</time>
      </trkpt>
      <trkpt lat="43.59177" lon="6.4459">
        <ele>598</ele>
        <time>2024-05-08T14:08:20.000Z</time>
      </trkpt>
      <trkpt lat="43.59179" lon="6.44591">
        <ele>597</ele>
        <time>2024-05-08T14:08:23.000Z</time>
      </trkpt>
      <trkpt lat="43.5918" lon="6.44593">
        <ele>596</ele>
        <time>2024-05-08T14:08:26.000Z</time>
      </trkpt>
      <trkpt lat="43.5918" lon="6.44596">
        <ele>595</ele>
        <time>2024-05-08T14:08:28.000Z</time>
      </trkpt>
      <trkpt lat="43.59181" lon="6.44599">
        <ele>594</ele>
        <time>2024-05-08T14:08:30.000Z</time>
      </trkpt>
      <trkpt lat="43.59182" lon="6.44601">
        <ele>594</ele>
        <time>2024-05-08T14:08:32.000Z</time>
      </trkpt>
      <trkpt lat="43.59188" lon="6.44614">
        <ele>589</ele>
        <time>2024-05-08T14:08:45.000Z</time>
      </trkpt>
      <trkpt lat="43.5919" lon="6.44617">
        <ele>588</ele>
        <time>2024-05-08T14:08:48.000Z</time>
      </trkpt>
      <trkpt lat="43.5919" lon="6.44619">
        <ele>586</ele>
        <time>2024-05-08T14:08:54.000Z</time>
      </trkpt>
      <trkpt lat="43.59192" lon="6.44622">
        <ele>586</ele>
        <time>2024-05-08T14:08:57.000Z</time>
      </trkpt>
      <trkpt lat="43.59193" lon="6.44624">
        <ele>585</ele>
        <time>2024-05-08T14:09:00.000Z</time>
      </trkpt>
      <trkpt lat="43.59195" lon="6.44625">
        <ele>584</ele>
        <time>2024-05-08T14:09:04.000Z</time>
      </trkpt>
      <trkpt lat="43.59197" lon="6.44627">
        <ele>584</ele>
        <time>2024-05-08T14:09:08.000Z</time>
      </trkpt>
      <trkpt lat="43.59197" lon="6.4463">
        <ele>584</ele>
        <time>2024-05-08T14:09:10.000Z</time>
      </trkpt>
      <trkpt lat="43.59199" lon="6.44632">
        <ele>583</ele>
        <time>2024-05-08T14:09:13.000Z</time>
      </trkpt>
      <trkpt lat="43.592" lon="6.44633">
        <ele>582</ele>
        <time>2024-05-08T14:09:17.000Z</time>
      </trkpt>
      <trkpt lat="43.59201" lon="6.44636">
        <ele>582</ele>
        <time>2024-05-08T14:09:20.000Z</time>
      </trkpt>
      <trkpt lat="43.59202" lon="6.44638">
        <ele>582</ele>
        <time>2024-05-08T14:09:22.000Z</time>
      </trkpt>
      <trkpt lat="43.59203" lon="6.4464">
        <ele>581</ele>
        <time>2024-05-08T14:09:24.000Z</time>
      </trkpt>
      <trkpt lat="43.59205" lon="6.44645">
        <ele>581</ele>
        <time>2024-05-08T14:09:30.000Z</time>
      </trkpt>
      <trkpt lat="43.59208" lon="6.44644">
        <ele>580</ele>
        <time>2024-05-08T14:09:57.000Z</time>
      </trkpt>
      <trkpt lat="43.59208" lon="6.44641">
        <ele>579</ele>
        <time>2024-05-08T14:10:00.000Z</time>
      </trkpt>
      <trkpt lat="43.59207" lon="6.44637">
        <ele>577</ele>
        <time>2024-05-08T14:10:03.000Z</time>
      </trkpt>
      <trkpt lat="43.59207" lon="6.44634">
        <ele>576</ele>
        <time>2024-05-08T14:10:06.000Z</time>
      </trkpt>
      <trkpt lat="43.59206" lon="6.44632">
        <ele>576</ele>
        <time>2024-05-08T14:10:09.000Z</time>
      </trkpt>
      <trkpt lat="43.59206" lon="6.4463">
        <ele>576</ele>
        <time>2024-05-08T14:10:17.000Z</time>
      </trkpt>
      <trkpt lat="43.59207" lon="6.44626">
        <ele>575</ele>
        <time>2024-05-08T14:10:20.000Z</time>
      </trkpt>
      <trkpt lat="43.59208" lon="6.44625">
        <ele>575</ele>
        <time>2024-05-08T14:10:22.000Z</time>
      </trkpt>
      <trkpt lat="43.59208" lon="6.44622">
        <ele>574</ele>
        <time>2024-05-08T14:10:27.000Z</time>
      </trkpt>
      <trkpt lat="43.59208" lon="6.44616">
        <ele>575</ele>
        <time>2024-05-08T14:10:33.000Z</time>
      </trkpt>
      <trkpt lat="43.59206" lon="6.44611">
        <ele>576</ele>
        <time>2024-05-08T14:10:40.000Z</time>
      </trkpt>
      <trkpt lat="43.59206" lon="6.44608">
        <ele>576</ele>
        <time>2024-05-08T14:10:43.000Z</time>
      </trkpt>
      <trkpt lat="43.59205" lon="6.44606">
        <ele>576</ele>
        <time>2024-05-08T14:10:46.000Z</time>
      </trkpt>
      <trkpt lat="43.59204" lon="6.44603">
        <ele>576</ele>
        <time>2024-05-08T14:10:49.000Z</time>
      </trkpt>
      <trkpt lat="43.59203" lon="6.44601">
        <ele>575</ele>
        <time>2024-05-08T14:10:52.000Z</time>
      </trkpt>
      <trkpt lat="43.59204" lon="6.44597">
        <ele>575</ele>
        <time>2024-05-08T14:10:56.000Z</time>
      </trkpt>
      <trkpt lat="43.59205" lon="6.44595">
        <ele>575</ele>
        <time>2024-05-08T14:10:58.000Z</time>
      </trkpt>
      <trkpt lat="43.59205" lon="6.44589">
        <ele>574</ele>
        <time>2024-05-08T14:11:04.000Z</time>
      </trkpt>
      <trkpt lat="43.59205" lon="6.44582">
        <ele>574</ele>
        <time>2024-05-08T14:11:10.000Z</time>
      </trkpt>
      <trkpt lat="43.59205" lon="6.44579">
        <ele>573</ele>
        <time>2024-05-08T14:11:14.000Z</time>
      </trkpt>
      <trkpt lat="43.59207" lon="6.44577">
        <ele>572</ele>
        <time>2024-05-08T14:11:19.000Z</time>
      </trkpt>
      <trkpt lat="43.5921" lon="6.44576">
        <ele>571</ele>
        <time>2024-05-08T14:11:24.000Z</time>
      </trkpt>
      <trkpt lat="43.59215" lon="6.44578">
        <ele>571</ele>
        <time>2024-05-08T14:11:28.000Z</time>
      </trkpt>
      <trkpt lat="43.59217" lon="6.44581">
        <ele>570</ele>
        <time>2024-05-08T14:11:31.000Z</time>
      </trkpt>
      <trkpt lat="43.59218" lon="6.44584">
        <ele>570</ele>
        <time>2024-05-08T14:11:33.000Z</time>
      </trkpt>
      <trkpt lat="43.59219" lon="6.44586">
        <ele>570</ele>
        <time>2024-05-08T14:11:37.000Z</time>
      </trkpt>
      <trkpt lat="43.59223" lon="6.44597">
        <ele>567</ele>
        <time>2024-05-08T14:11:54.000Z</time>
      </trkpt>
      <trkpt lat="43.59223" lon="6.446">
        <ele>566</ele>
        <time>2024-05-08T14:11:58.000Z</time>
      </trkpt>
      <trkpt lat="43.59223" lon="6.44603">
        <ele>566</ele>
        <time>2024-05-08T14:12:03.000Z</time>
      </trkpt>
      <trkpt lat="43.59225" lon="6.44605">
        <ele>566</ele>
        <time>2024-05-08T14:12:07.000Z</time>
      </trkpt>
      <trkpt lat="43.59227" lon="6.44603">
        <ele>565</ele>
        <time>2024-05-08T14:12:16.000Z</time>
      </trkpt>
      <trkpt lat="43.59226" lon="6.44601">
        <ele>565</ele>
        <time>2024-05-08T14:12:22.000Z</time>
      </trkpt>
      <trkpt lat="43.59225" lon="6.44598">
        <ele>564</ele>
        <time>2024-05-08T14:12:24.000Z</time>
      </trkpt>
      <trkpt lat="43.59224" lon="6.44595">
        <ele>564</ele>
        <time>2024-05-08T14:12:27.000Z</time>
      </trkpt>
      <trkpt lat="43.59223" lon="6.44592">
        <ele>564</ele>
        <time>2024-05-08T14:12:29.000Z</time>
      </trkpt>
      <trkpt lat="43.59221" lon="6.4459">
        <ele>564</ele>
        <time>2024-05-08T14:12:31.000Z</time>
      </trkpt>
      <trkpt lat="43.59221" lon="6.44587">
        <ele>563</ele>
        <time>2024-05-08T14:12:36.000Z</time>
      </trkpt>
      <trkpt lat="43.59221" lon="6.44584">
        <ele>563</ele>
        <time>2024-05-08T14:12:39.000Z</time>
      </trkpt>
      <trkpt lat="43.59221" lon="6.44582">
        <ele>562</ele>
        <time>2024-05-08T14:12:42.000Z</time>
      </trkpt>
      <trkpt lat="43.59223" lon="6.44578">
        <ele>561</ele>
        <time>2024-05-08T14:12:45.000Z</time>
      </trkpt>
      <trkpt lat="43.59225" lon="6.44577">
        <ele>560</ele>
        <time>2024-05-08T14:12:47.000Z</time>
      </trkpt>
      <trkpt lat="43.59231" lon="6.44581">
        <ele>558</ele>
        <time>2024-05-08T14:12:51.000Z</time>
      </trkpt>
      <trkpt lat="43.59233" lon="6.44583">
        <ele>558</ele>
        <time>2024-05-08T14:12:54.000Z</time>
      </trkpt>
      <trkpt lat="43.59234" lon="6.44586">
        <ele>557</ele>
        <time>2024-05-08T14:12:57.000Z</time>
      </trkpt>
      <trkpt lat="43.59232" lon="6.44589">
        <ele>557</ele>
        <time>2024-05-08T14:13:00.000Z</time>
      </trkpt>
      <trkpt lat="43.59233" lon="6.44592">
        <ele>556</ele>
        <time>2024-05-08T14:13:02.000Z</time>
      </trkpt>
      <trkpt lat="43.59234" lon="6.44595">
        <ele>556</ele>
        <time>2024-05-08T14:13:04.000Z</time>
      </trkpt>
      <trkpt lat="43.59235" lon="6.44597">
        <ele>556</ele>
        <time>2024-05-08T14:13:07.000Z</time>
      </trkpt>
      <trkpt lat="43.59236" lon="6.446">
        <ele>555</ele>
        <time>2024-05-08T14:13:10.000Z</time>
      </trkpt>
      <trkpt lat="43.59237" lon="6.44603">
        <ele>555</ele>
        <time>2024-05-08T14:13:12.000Z</time>
      </trkpt>
      <trkpt lat="43.59239" lon="6.44608">
        <ele>554</ele>
        <time>2024-05-08T14:13:18.000Z</time>
      </trkpt>
      <trkpt lat="43.5924" lon="6.44611">
        <ele>554</ele>
        <time>2024-05-08T14:13:23.000Z</time>
      </trkpt>
      <trkpt lat="43.59242" lon="6.44617">
        <ele>553</ele>
        <time>2024-05-08T14:13:29.000Z</time>
      </trkpt>
      <trkpt lat="43.59248" lon="6.44633">
        <ele>550</ele>
        <time>2024-05-08T14:13:42.000Z</time>
      </trkpt>
      <trkpt lat="43.5925" lon="6.44635">
        <ele>550</ele>
        <time>2024-05-08T14:13:44.000Z</time>
      </trkpt>
      <trkpt lat="43.59251" lon="6.44638">
        <ele>549</ele>
        <time>2024-05-08T14:13:47.000Z</time>
      </trkpt>
      <trkpt lat="43.59253" lon="6.44641">
        <ele>549</ele>
        <time>2024-05-08T14:13:50.000Z</time>
      </trkpt>
      <trkpt lat="43.59255" lon="6.44643">
        <ele>548</ele>
        <time>2024-05-08T14:13:53.000Z</time>
      </trkpt>
      <trkpt lat="43.59255" lon="6.44646">
        <ele>547</ele>
        <time>2024-05-08T14:13:56.000Z</time>
      </trkpt>
      <trkpt lat="43.59255" lon="6.4465">
        <ele>547</ele>
        <time>2024-05-08T14:14:00.000Z</time>
      </trkpt>
      <trkpt lat="43.59255" lon="6.44654">
        <ele>547</ele>
        <time>2024-05-08T14:14:05.000Z</time>
      </trkpt>
      <trkpt lat="43.59257" lon="6.44656">
        <ele>547</ele>
        <time>2024-05-08T14:14:08.000Z</time>
      </trkpt>
      <trkpt lat="43.59257" lon="6.44659">
        <ele>548</ele>
        <time>2024-05-08T14:14:11.000Z</time>
      </trkpt>
      <trkpt lat="43.59255" lon="6.4466">
        <ele>547</ele>
        <time>2024-05-08T14:14:18.000Z</time>
      </trkpt>
      <trkpt lat="43.59253" lon="6.44657">
        <ele>547</ele>
        <time>2024-05-08T14:14:22.000Z</time>
      </trkpt>
      <trkpt lat="43.59254" lon="6.44654">
        <ele>547</ele>
        <time>2024-05-08T14:14:26.000Z</time>
      </trkpt>
      <trkpt lat="43.59252" lon="6.44652">
        <ele>546</ele>
        <time>2024-05-08T14:14:29.000Z</time>
      </trkpt>
      <trkpt lat="43.59252" lon="6.44645">
        <ele>545</ele>
        <time>2024-05-08T14:14:34.000Z</time>
      </trkpt>
      <trkpt lat="43.59251" lon="6.44643">
        <ele>544</ele>
        <time>2024-05-08T14:14:37.000Z</time>
      </trkpt>
      <trkpt lat="43.5925" lon="6.44637">
        <ele>544</ele>
        <time>2024-05-08T14:14:42.000Z</time>
      </trkpt>
      <trkpt lat="43.5925" lon="6.44634">
        <ele>544</ele>
        <time>2024-05-08T14:14:44.000Z</time>
      </trkpt>
      <trkpt lat="43.59249" lon="6.44631">
        <ele>544</ele>
        <time>2024-05-08T14:14:47.000Z</time>
      </trkpt>
      <trkpt lat="43.59249" lon="6.44628">
        <ele>542</ele>
        <time>2024-05-08T14:14:50.000Z</time>
      </trkpt>
      <trkpt lat="43.59251" lon="6.44627">
        <ele>541</ele>
        <time>2024-05-08T14:14:52.000Z</time>
      </trkpt>
      <trkpt lat="43.59255" lon="6.4463">
        <ele>539</ele>
        <time>2024-05-08T14:14:56.000Z</time>
      </trkpt>
      <trkpt lat="43.59258" lon="6.44631">
        <ele>538</ele>
        <time>2024-05-08T14:14:58.000Z</time>
      </trkpt>
      <trkpt lat="43.59263" lon="6.44638">
        <ele>536</ele>
        <time>2024-05-08T14:15:05.000Z</time>
      </trkpt>
      <trkpt lat="43.59264" lon="6.44639">
        <ele>537</ele>
        <time>2024-05-08T14:15:08.000Z</time>
      </trkpt>
      <trkpt lat="43.59266" lon="6.4464">
        <ele>537</ele>
        <time>2024-05-08T14:15:11.000Z</time>
      </trkpt>
      <trkpt lat="43.59274" lon="6.44648">
        <ele>538</ele>
        <time>2024-05-08T14:15:22.000Z</time>
      </trkpt>
      <trkpt lat="43.59276" lon="6.44651">
        <ele>538</ele>
        <time>2024-05-08T14:15:25.000Z</time>
      </trkpt>
      <trkpt lat="43.59277" lon="6.44653">
        <ele>539</ele>
        <time>2024-05-08T14:15:28.000Z</time>
      </trkpt>
      <trkpt lat="43.59281" lon="6.44659">
        <ele>540</ele>
        <time>2024-05-08T14:15:36.000Z</time>
      </trkpt>
      <trkpt lat="43.59281" lon="6.44663">
        <ele>541</ele>
        <time>2024-05-08T14:15:40.000Z</time>
      </trkpt>
      <trkpt lat="43.59281" lon="6.44666">
        <ele>540</ele>
        <time>2024-05-08T14:15:45.000Z</time>
      </trkpt>
      <trkpt lat="43.59282" lon="6.44669">
        <ele>540</ele>
        <time>2024-05-08T14:15:48.000Z</time>
      </trkpt>
      <trkpt lat="43.59284" lon="6.44672">
        <ele>538</ele>
        <time>2024-05-08T14:15:50.000Z</time>
      </trkpt>
      <trkpt lat="43.59284" lon="6.44675">
        <ele>537</ele>
        <time>2024-05-08T14:15:53.000Z</time>
      </trkpt>
      <trkpt lat="43.59285" lon="6.44679">
        <ele>535</ele>
        <time>2024-05-08T14:15:56.000Z</time>
      </trkpt>
      <trkpt lat="43.59287" lon="6.44682">
        <ele>533</ele>
        <time>2024-05-08T14:15:59.000Z</time>
      </trkpt>
      <trkpt lat="43.59288" lon="6.44684">
        <ele>532</ele>
        <time>2024-05-08T14:16:02.000Z</time>
      </trkpt>
      <trkpt lat="43.59289" lon="6.44687">
        <ele>531</ele>
        <time>2024-05-08T14:16:05.000Z</time>
      </trkpt>
      <trkpt lat="43.59291" lon="6.4469">
        <ele>530</ele>
        <time>2024-05-08T14:16:08.000Z</time>
      </trkpt>
      <trkpt lat="43.59291" lon="6.44693">
        <ele>529</ele>
        <time>2024-05-08T14:16:13.000Z</time>
      </trkpt>
      <trkpt lat="43.5929" lon="6.44697">
        <ele>528</ele>
        <time>2024-05-08T14:16:16.000Z</time>
      </trkpt>
      <trkpt lat="43.5929" lon="6.447">
        <ele>527</ele>
        <time>2024-05-08T14:16:18.000Z</time>
      </trkpt>
      <trkpt lat="43.59289" lon="6.44703">
        <ele>526</ele>
        <time>2024-05-08T14:16:21.000Z</time>
      </trkpt>
      <trkpt lat="43.59293" lon="6.44708">
        <ele>525</ele>
        <time>2024-05-08T14:16:27.000Z</time>
      </trkpt>
      <trkpt lat="43.59294" lon="6.4471">
        <ele>525</ele>
        <time>2024-05-08T14:16:30.000Z</time>
      </trkpt>
      <trkpt lat="43.59293" lon="6.44715">
        <ele>524</ele>
        <time>2024-05-08T14:16:36.000Z</time>
      </trkpt>
      <trkpt lat="43.59292" lon="6.44718">
        <ele>523</ele>
        <time>2024-05-08T14:16:41.000Z</time>
      </trkpt>
      <trkpt lat="43.59293" lon="6.44722">
        <ele>523</ele>
        <time>2024-05-08T14:16:44.000Z</time>
      </trkpt>
      <trkpt lat="43.59295" lon="6.44726">
        <ele>523</ele>
        <time>2024-05-08T14:16:51.000Z</time>
      </trkpt>
      <trkpt lat="43.59297" lon="6.44727">
        <ele>523</ele>
        <time>2024-05-08T14:16:54.000Z</time>
      </trkpt>
      <trkpt lat="43.59299" lon="6.44739">
        <ele>525</ele>
        <time>2024-05-08T14:17:13.000Z</time>
      </trkpt>
      <trkpt lat="43.593" lon="6.44744">
        <ele>523</ele>
        <time>2024-05-08T14:17:18.000Z</time>
      </trkpt>
      <trkpt lat="43.59304" lon="6.44749">
        <ele>521</ele>
        <time>2024-05-08T14:17:24.000Z</time>
      </trkpt>
      <trkpt lat="43.59303" lon="6.44752">
        <ele>521</ele>
        <time>2024-05-08T14:17:28.000Z</time>
      </trkpt>
      <trkpt lat="43.59305" lon="6.44754">
        <ele>520</ele>
        <time>2024-05-08T14:17:32.000Z</time>
      </trkpt>
      <trkpt lat="43.59306" lon="6.44756">
        <ele>520</ele>
        <time>2024-05-08T14:17:35.000Z</time>
      </trkpt>
      <trkpt lat="43.59309" lon="6.4476">
        <ele>520</ele>
        <time>2024-05-08T14:17:38.000Z</time>
      </trkpt>
      <trkpt lat="43.59311" lon="6.44762">
        <ele>520</ele>
        <time>2024-05-08T14:17:40.000Z</time>
      </trkpt>
      <trkpt lat="43.59312" lon="6.44765">
        <ele>519</ele>
        <time>2024-05-08T14:17:42.000Z</time>
      </trkpt>
      <trkpt lat="43.59313" lon="6.44771">
        <ele>518</ele>
        <time>2024-05-08T14:17:47.000Z</time>
      </trkpt>
      <trkpt lat="43.59314" lon="6.44774">
        <ele>517</ele>
        <time>2024-05-08T14:17:50.000Z</time>
      </trkpt>
      <trkpt lat="43.59314" lon="6.44777">
        <ele>516</ele>
        <time>2024-05-08T14:17:52.000Z</time>
      </trkpt>
      <trkpt lat="43.59313" lon="6.4478">
        <ele>516</ele>
        <time>2024-05-08T14:17:56.000Z</time>
      </trkpt>
      <trkpt lat="43.59314" lon="6.44782">
        <ele>516</ele>
        <time>2024-05-08T14:18:00.000Z</time>
      </trkpt>
      <trkpt lat="43.59315" lon="6.44786">
        <ele>516</ele>
        <time>2024-05-08T14:18:04.000Z</time>
      </trkpt>
      <trkpt lat="43.59312" lon="6.4479">
        <ele>515</ele>
        <time>2024-05-08T14:18:09.000Z</time>
      </trkpt>
      <trkpt lat="43.59311" lon="6.44793">
        <ele>513</ele>
        <time>2024-05-08T14:18:13.000Z</time>
      </trkpt>
      <trkpt lat="43.59311" lon="6.44795">
        <ele>513</ele>
        <time>2024-05-08T14:18:16.000Z</time>
      </trkpt>
      <trkpt lat="43.59309" lon="6.44797">
        <ele>512</ele>
        <time>2024-05-08T14:18:18.000Z</time>
      </trkpt>
      <trkpt lat="43.59308" lon="6.44799">
        <ele>512</ele>
        <time>2024-05-08T14:18:20.000Z</time>
      </trkpt>
      <trkpt lat="43.59307" lon="6.44802">
        <ele>511</ele>
        <time>2024-05-08T14:18:22.000Z</time>
      </trkpt>
      <trkpt lat="43.59306" lon="6.44805">
        <ele>511</ele>
        <time>2024-05-08T14:18:24.000Z</time>
      </trkpt>
      <trkpt lat="43.59305" lon="6.44806">
        <ele>509</ele>
        <time>2024-05-08T14:18:25.000Z</time>
      </trkpt>
      <trkpt lat="43.59303" lon="6.44806">
        <ele>508</ele>
        <time>2024-05-08T14:18:27.000Z</time>
      </trkpt>
      <trkpt lat="43.59302" lon="6.44809">
        <ele>506</ele>
        <time>2024-05-08T14:18:29.000Z</time>
      </trkpt>
      <trkpt lat="43.59304" lon="6.44811">
        <ele>505</ele>
        <time>2024-05-08T14:18:31.000Z</time>
      </trkpt>
      <trkpt lat="43.59305" lon="6.44817">
        <ele>504</ele>
        <time>2024-05-08T14:18:35.000Z</time>
      </trkpt>
      <trkpt lat="43.59307" lon="6.44819">
        <ele>503</ele>
        <time>2024-05-08T14:18:38.000Z</time>
      </trkpt>
      <trkpt lat="43.59308" lon="6.44821">
        <ele>503</ele>
        <time>2024-05-08T14:18:41.000Z</time>
      </trkpt>
      <trkpt lat="43.59309" lon="6.44822">
        <ele>503</ele>
        <time>2024-05-08T14:18:44.000Z</time>
      </trkpt>
      <trkpt lat="43.59311" lon="6.4482">
        <ele>503</ele>
        <time>2024-05-08T14:18:48.000Z</time>
      </trkpt>
      <trkpt lat="43.59313" lon="6.44818">
        <ele>503</ele>
        <time>2024-05-08T14:18:52.000Z</time>
      </trkpt>
      <trkpt lat="43.59314" lon="6.44816">
        <ele>503</ele>
        <time>2024-05-08T14:18:57.000Z</time>
      </trkpt>
      <trkpt lat="43.59314" lon="6.4481">
        <ele>504</ele>
        <time>2024-05-08T14:19:15.000Z</time>
      </trkpt>
      <trkpt lat="43.59324" lon="6.44805">
        <ele>505</ele>
        <time>2024-05-08T14:19:29.000Z</time>
      </trkpt>
      <trkpt lat="43.59326" lon="6.44807">
        <ele>503</ele>
        <time>2024-05-08T14:19:35.000Z</time>
      </trkpt>
      <trkpt lat="43.5933" lon="6.44807">
        <ele>501</ele>
        <time>2024-05-08T14:19:44.000Z</time>
      </trkpt>
      <trkpt lat="43.59332" lon="6.44809">
        <ele>500</ele>
        <time>2024-05-08T14:20:13.000Z</time>
      </trkpt>
      <trkpt lat="43.59335" lon="6.4481">
        <ele>501</ele>
        <time>2024-05-08T14:20:17.000Z</time>
      </trkpt>
      <trkpt lat="43.59337" lon="6.44812">
        <ele>502</ele>
        <time>2024-05-08T14:20:20.000Z</time>
      </trkpt>
      <trkpt lat="43.59338" lon="6.44814">
        <ele>502</ele>
        <time>2024-05-08T14:20:22.000Z</time>
      </trkpt>
      <trkpt lat="43.59341" lon="6.44816">
        <ele>503</ele>
        <time>2024-05-08T14:20:24.000Z</time>
      </trkpt>
      <trkpt lat="43.59343" lon="6.44817">
        <ele>502</ele>
        <time>2024-05-08T14:20:29.000Z</time>
      </trkpt>
      <trkpt lat="43.59346" lon="6.44817">
        <ele>502</ele>
        <time>2024-05-08T14:20:33.000Z</time>
      </trkpt>
      <trkpt lat="43.59347" lon="6.4482">
        <ele>502</ele>
        <time>2024-05-08T14:20:37.000Z</time>
      </trkpt>
      <trkpt lat="43.59346" lon="6.44832">
        <ele>500</ele>
        <time>2024-05-08T14:20:43.000Z</time>
      </trkpt>
      <trkpt lat="43.59345" lon="6.44835">
        <ele>498</ele>
        <time>2024-05-08T14:20:45.000Z</time>
      </trkpt>
      <trkpt lat="43.59342" lon="6.44837">
        <ele>497</ele>
        <time>2024-05-08T14:20:47.000Z</time>
      </trkpt>
      <trkpt lat="43.59339" lon="6.4484">
        <ele>497</ele>
        <time>2024-05-08T14:20:49.000Z</time>
      </trkpt>
      <trkpt lat="43.59339" lon="6.44843">
        <ele>496</ele>
        <time>2024-05-08T14:20:50.000Z</time>
      </trkpt>
      <trkpt lat="43.59337" lon="6.44845">
        <ele>495</ele>
        <time>2024-05-08T14:20:52.000Z</time>
      </trkpt>
      <trkpt lat="43.59336" lon="6.44846">
        <ele>494</ele>
        <time>2024-05-08T14:20:55.000Z</time>
      </trkpt>
      <trkpt lat="43.59336" lon="6.44851">
        <ele>493</ele>
        <time>2024-05-08T14:20:59.000Z</time>
      </trkpt>
      <trkpt lat="43.59338" lon="6.44855">
        <ele>493</ele>
        <time>2024-05-08T14:21:01.000Z</time>
      </trkpt>
      <trkpt lat="43.5934" lon="6.44859">
        <ele>492</ele>
        <time>2024-05-08T14:21:03.000Z</time>
      </trkpt>
      <trkpt lat="43.5934" lon="6.44862">
        <ele>491</ele>
        <time>2024-05-08T14:21:05.000Z</time>
      </trkpt>
      <trkpt lat="43.59339" lon="6.44868">
        <ele>490</ele>
        <time>2024-05-08T14:21:11.000Z</time>
      </trkpt>
      <trkpt lat="43.59335" lon="6.44873">
        <ele>488</ele>
        <time>2024-05-08T14:21:24.000Z</time>
      </trkpt>
      <trkpt lat="43.5933" lon="6.44876">
        <ele>488</ele>
        <time>2024-05-08T14:21:28.000Z</time>
      </trkpt>
      <trkpt lat="43.59327" lon="6.44882">
        <ele>487</ele>
        <time>2024-05-08T14:21:33.000Z</time>
      </trkpt>
      <trkpt lat="43.59326" lon="6.44884">
        <ele>487</ele>
        <time>2024-05-08T14:21:35.000Z</time>
      </trkpt>
      <trkpt lat="43.59326" lon="6.44888">
        <ele>487</ele>
        <time>2024-05-08T14:21:37.000Z</time>
      </trkpt>
      <trkpt lat="43.59325" lon="6.44891">
        <ele>486</ele>
        <time>2024-05-08T14:21:42.000Z</time>
      </trkpt>
      <trkpt lat="43.59324" lon="6.44893">
        <ele>486</ele>
        <time>2024-05-08T14:21:46.000Z</time>
      </trkpt>
      <trkpt lat="43.59323" lon="6.44894">
        <ele>486</ele>
        <time>2024-05-08T14:21:50.000Z</time>
      </trkpt>
      <trkpt lat="43.59321" lon="6.44894">
        <ele>487</ele>
        <time>2024-05-08T14:21:56.000Z</time>
      </trkpt>
      <trkpt lat="43.59319" lon="6.44896">
        <ele>487</ele>
        <time>2024-05-08T14:21:59.000Z</time>
      </trkpt>
      <trkpt lat="43.59317" lon="6.44896">
        <ele>487</ele>
        <time>2024-05-08T14:22:01.000Z</time>
      </trkpt>
      <trkpt lat="43.59316" lon="6.44898">
        <ele>487</ele>
        <time>2024-05-08T14:22:03.000Z</time>
      </trkpt>
      <trkpt lat="43.59314" lon="6.449">
        <ele>487</ele>
        <time>2024-05-08T14:22:05.000Z</time>
      </trkpt>
      <trkpt lat="43.59307" lon="6.44902">
        <ele>487</ele>
        <time>2024-05-08T14:22:11.000Z</time>
      </trkpt>
      <trkpt lat="43.59305" lon="6.44902">
        <ele>487</ele>
        <time>2024-05-08T14:22:13.000Z</time>
      </trkpt>
      <trkpt lat="43.59303" lon="6.44903">
        <ele>486</ele>
        <time>2024-05-08T14:22:15.000Z</time>
      </trkpt>
      <trkpt lat="43.593" lon="6.44903">
        <ele>486</ele>
        <time>2024-05-08T14:22:17.000Z</time>
      </trkpt>
      <trkpt lat="43.59297" lon="6.44903">
        <ele>485</ele>
        <time>2024-05-08T14:22:19.000Z</time>
      </trkpt>
      <trkpt lat="43.59294" lon="6.44903">
        <ele>485</ele>
        <time>2024-05-08T14:22:21.000Z</time>
      </trkpt>
      <trkpt lat="43.59292" lon="6.44904">
        <ele>484</ele>
        <time>2024-05-08T14:22:23.000Z</time>
      </trkpt>
      <trkpt lat="43.59291" lon="6.44906">
        <ele>483</ele>
        <time>2024-05-08T14:22:27.000Z</time>
      </trkpt>
      <trkpt lat="43.59289" lon="6.44908">
        <ele>483</ele>
        <time>2024-05-08T14:22:29.000Z</time>
      </trkpt>
      <trkpt lat="43.59286" lon="6.44908">
        <ele>484</ele>
        <time>2024-05-08T14:22:31.000Z</time>
      </trkpt>
      <trkpt lat="43.59285" lon="6.44909">
        <ele>483</ele>
        <time>2024-05-08T14:22:33.000Z</time>
      </trkpt>
      <trkpt lat="43.59282" lon="6.4491">
        <ele>482</ele>
        <time>2024-05-08T14:22:37.000Z</time>
      </trkpt>
      <trkpt lat="43.5928" lon="6.44912">
        <ele>482</ele>
        <time>2024-05-08T14:22:40.000Z</time>
      </trkpt>
      <trkpt lat="43.59278" lon="6.44915">
        <ele>482</ele>
        <time>2024-05-08T14:22:43.000Z</time>
      </trkpt>
      <trkpt lat="43.59277" lon="6.44918">
        <ele>482</ele>
        <time>2024-05-08T14:22:46.000Z</time>
      </trkpt>
      <trkpt lat="43.59277" lon="6.4492">
        <ele>482</ele>
        <time>2024-05-08T14:22:49.000Z</time>
      </trkpt>
      <trkpt lat="43.59276" lon="6.44922">
        <ele>482</ele>
        <time>2024-05-08T14:22:54.000Z</time>
      </trkpt>
      <trkpt lat="43.59275" lon="6.44925">
        <ele>481</ele>
        <time>2024-05-08T14:23:00.000Z</time>
      </trkpt>
      <trkpt lat="43.59273" lon="6.44927">
        <ele>481</ele>
        <time>2024-05-08T14:23:03.000Z</time>
      </trkpt>
      <trkpt lat="43.59273" lon="6.4493">
        <ele>481</ele>
        <time>2024-05-08T14:23:06.000Z</time>
      </trkpt>
      <trkpt lat="43.59275" lon="6.44936">
        <ele>487</ele>
        <time>2024-05-08T14:24:09.000Z</time>
      </trkpt>
      <trkpt lat="43.59275" lon="6.44943">
        <ele>491</ele>
        <time>2024-05-08T14:24:12.000Z</time>
      </trkpt>
      <trkpt lat="43.59276" lon="6.44949">
        <ele>490</ele>
        <time>2024-05-08T14:24:14.000Z</time>
      </trkpt>
      <trkpt lat="43.59286" lon="6.44963">
        <ele>484</ele>
        <time>2024-05-08T14:24:23.000Z</time>
      </trkpt>
      <trkpt lat="43.59286" lon="6.44967">
        <ele>482</ele>
        <time>2024-05-08T14:24:25.000Z</time>
      </trkpt>
      <trkpt lat="43.59287" lon="6.4497">
        <ele>481</ele>
        <time>2024-05-08T14:24:27.000Z</time>
      </trkpt>
      <trkpt lat="43.59287" lon="6.44976">
        <ele>480</ele>
        <time>2024-05-08T14:24:31.000Z</time>
      </trkpt>
      <trkpt lat="43.59284" lon="6.44987">
        <ele>478</ele>
        <time>2024-05-08T14:24:37.000Z</time>
      </trkpt>
      <trkpt lat="43.59285" lon="6.44997">
        <ele>477</ele>
        <time>2024-05-08T14:24:41.000Z</time>
      </trkpt>
      <trkpt lat="43.59286" lon="6.45001">
        <ele>476</ele>
        <time>2024-05-08T14:24:43.000Z</time>
      </trkpt>
      <trkpt lat="43.59286" lon="6.45005">
        <ele>475</ele>
        <time>2024-05-08T14:24:45.000Z</time>
      </trkpt>
      <trkpt lat="43.59286" lon="6.45009">
        <ele>475</ele>
        <time>2024-05-08T14:24:47.000Z</time>
      </trkpt>
      <trkpt lat="43.5929" lon="6.45016">
        <ele>473</ele>
        <time>2024-05-08T14:24:53.000Z</time>
      </trkpt>
      <trkpt lat="43.59298" lon="6.4502">
        <ele>472</ele>
        <time>2024-05-08T14:24:59.000Z</time>
      </trkpt>
      <trkpt lat="43.59303" lon="6.45024">
        <ele>473</ele>
        <time>2024-05-08T14:25:03.000Z</time>
      </trkpt>
      <trkpt lat="43.59316" lon="6.45032">
        <ele>474</ele>
        <time>2024-05-08T14:25:11.000Z</time>
      </trkpt>
      <trkpt lat="43.59318" lon="6.45034">
        <ele>474</ele>
        <time>2024-05-08T14:25:12.000Z</time>
      </trkpt>
      <trkpt lat="43.5932" lon="6.45036">
        <ele>474</ele>
        <time>2024-05-08T14:25:13.000Z</time>
      </trkpt>
      <trkpt lat="43.59322" lon="6.45043">
        <ele>472</ele>
        <time>2024-05-08T14:25:17.000Z</time>
      </trkpt>
      <trkpt lat="43.59324" lon="6.45046">
        <ele>471</ele>
        <time>2024-05-08T14:25:19.000Z</time>
      </trkpt>
      <trkpt lat="43.59325" lon="6.45052">
        <ele>470</ele>
        <time>2024-05-08T14:25:23.000Z</time>
      </trkpt>
      <trkpt lat="43.59325" lon="6.45055">
        <ele>470</ele>
        <time>2024-05-08T14:25:26.000Z</time>
      </trkpt>
      <trkpt lat="43.59328" lon="6.45063">
        <ele>469</ele>
        <time>2024-05-08T14:25:32.000Z</time>
      </trkpt>
      <trkpt lat="43.59327" lon="6.45067">
        <ele>469</ele>
        <time>2024-05-08T14:25:35.000Z</time>
      </trkpt>
      <trkpt lat="43.59327" lon="6.45072">
        <ele>469</ele>
        <time>2024-05-08T14:25:39.000Z</time>
      </trkpt>
      <trkpt lat="43.59327" lon="6.45075">
        <ele>468</ele>
        <time>2024-05-08T14:25:41.000Z</time>
      </trkpt>
      <trkpt lat="43.59326" lon="6.45078">
        <ele>468</ele>
        <time>2024-05-08T14:25:45.000Z</time>
      </trkpt>
      <trkpt lat="43.59326" lon="6.45084">
        <ele>467</ele>
        <time>2024-05-08T14:25:51.000Z</time>
      </trkpt>
      <trkpt lat="43.59326" lon="6.45087">
        <ele>468</ele>
        <time>2024-05-08T14:25:54.000Z</time>
      </trkpt>
      <trkpt lat="43.59328" lon="6.45095">
        <ele>468</ele>
        <time>2024-05-08T14:26:02.000Z</time>
      </trkpt>
      <trkpt lat="43.59327" lon="6.45098">
        <ele>467</ele>
        <time>2024-05-08T14:26:05.000Z</time>
      </trkpt>
      <trkpt lat="43.59327" lon="6.45101">
        <ele>467</ele>
        <time>2024-05-08T14:26:07.000Z</time>
      </trkpt>
      <trkpt lat="43.59327" lon="6.45104">
        <ele>467</ele>
        <time>2024-05-08T14:26:09.000Z</time>
      </trkpt>
      <trkpt lat="43.59327" lon="6.4511">
        <ele>467</ele>
        <time>2024-05-08T14:26:15.000Z</time>
      </trkpt>
      <trkpt lat="43.59329" lon="6.45115">
        <ele>466</ele>
        <time>2024-05-08T14:26:19.000Z</time>
      </trkpt>
      <trkpt lat="43.59328" lon="6.45118">
        <ele>464</ele>
        <time>2024-05-08T14:26:24.000Z</time>
      </trkpt>
      <trkpt lat="43.59327" lon="6.4512">
        <ele>463</ele>
        <time>2024-05-08T14:26:26.000Z</time>
      </trkpt>
      <trkpt lat="43.59326" lon="6.45129">
        <ele>460</ele>
        <time>2024-05-08T14:26:38.000Z</time>
      </trkpt>
      <trkpt lat="43.59332" lon="6.45136">
        <ele>460</ele>
        <time>2024-05-08T14:26:50.000Z</time>
      </trkpt>
      <trkpt lat="43.59332" lon="6.45139">
        <ele>459</ele>
        <time>2024-05-08T14:26:53.000Z</time>
      </trkpt>
      <trkpt lat="43.59331" lon="6.45142">
        <ele>458</ele>
        <time>2024-05-08T14:26:56.000Z</time>
      </trkpt>
      <trkpt lat="43.59332" lon="6.4515">
        <ele>455</ele>
        <time>2024-05-08T14:27:04.000Z</time>
      </trkpt>
      <trkpt lat="43.59332" lon="6.45154">
        <ele>455</ele>
        <time>2024-05-08T14:27:20.000Z</time>
      </trkpt>
      <trkpt lat="43.5933" lon="6.45159">
        <ele>457</ele>
        <time>2024-05-08T14:27:24.000Z</time>
      </trkpt>
      <trkpt lat="43.59328" lon="6.45161">
        <ele>456</ele>
        <time>2024-05-08T14:27:27.000Z</time>
      </trkpt>
      <trkpt lat="43.59327" lon="6.45162">
        <ele>455</ele>
        <time>2024-05-08T14:27:31.000Z</time>
      </trkpt>
      <trkpt lat="43.59324" lon="6.4517">
        <ele>452</ele>
        <time>2024-05-08T14:27:47.000Z</time>
      </trkpt>
      <trkpt lat="43.59317" lon="6.45177">
        <ele>450</ele>
        <time>2024-05-08T14:27:55.000Z</time>
      </trkpt>
      <trkpt lat="43.59315" lon="6.45179">
        <ele>450</ele>
        <time>2024-05-08T14:27:58.000Z</time>
      </trkpt>
      <trkpt lat="43.59312" lon="6.45182">
        <ele>449</ele>
        <time>2024-05-08T14:28:02.000Z</time>
      </trkpt>
      <trkpt lat="43.59312" lon="6.45184">
        <ele>449</ele>
        <time>2024-05-08T14:28:05.000Z</time>
      </trkpt>
      <trkpt lat="43.5931" lon="6.45185">
        <ele>449</ele>
        <time>2024-05-08T14:28:07.000Z</time>
      </trkpt>
      <trkpt lat="43.59308" lon="6.45185">
        <ele>449</ele>
        <time>2024-05-08T14:28:09.000Z</time>
      </trkpt>
      <trkpt lat="43.59306" lon="6.45186">
        <ele>449</ele>
        <time>2024-05-08T14:28:11.000Z</time>
      </trkpt>
      <trkpt lat="43.59305" lon="6.45186">
        <ele>449</ele>
        <time>2024-05-08T14:28:13.000Z</time>
      </trkpt>
      <trkpt lat="43.59304" lon="6.45189">
        <ele>447</ele>
        <time>2024-05-08T14:28:20.000Z</time>
      </trkpt>
      <trkpt lat="43.59303" lon="6.45191">
        <ele>447</ele>
        <time>2024-05-08T14:28:23.000Z</time>
      </trkpt>
      <trkpt lat="43.59301" lon="6.45191">
        <ele>447</ele>
        <time>2024-05-08T14:28:26.000Z</time>
      </trkpt>
      <trkpt lat="43.59299" lon="6.45193">
        <ele>447</ele>
        <time>2024-05-08T14:28:28.000Z</time>
      </trkpt>
      <trkpt lat="43.59299" lon="6.45197">
        <ele>447</ele>
        <time>2024-05-08T14:28:32.000Z</time>
      </trkpt>
      <trkpt lat="43.59297" lon="6.45203">
        <ele>447</ele>
        <time>2024-05-08T14:28:38.000Z</time>
      </trkpt>
      <trkpt lat="43.59298" lon="6.45205">
        <ele>447</ele>
        <time>2024-05-08T14:28:41.000Z</time>
      </trkpt>
      <trkpt lat="43.59296" lon="6.45207">
        <ele>447</ele>
        <time>2024-05-08T14:28:44.000Z</time>
      </trkpt>
      <trkpt lat="43.59296" lon="6.4521">
        <ele>447</ele>
        <time>2024-05-08T14:28:47.000Z</time>
      </trkpt>
      <trkpt lat="43.59294" lon="6.45211">
        <ele>447</ele>
        <time>2024-05-08T14:28:51.000Z</time>
      </trkpt>
      <trkpt lat="43.59292" lon="6.45212">
        <ele>446</ele>
        <time>2024-05-08T14:29:06.000Z</time>
      </trkpt>
      <trkpt lat="43.59294" lon="6.45218">
        <ele>446</ele>
        <time>2024-05-08T14:29:11.000Z</time>
      </trkpt>
      <trkpt lat="43.59295" lon="6.4522">
        <ele>448</ele>
        <time>2024-05-08T14:29:15.000Z</time>
      </trkpt>
      <trkpt lat="43.59299" lon="6.45221">
        <ele>449</ele>
        <time>2024-05-08T14:29:21.000Z</time>
      </trkpt>
      <trkpt lat="43.59299" lon="6.45218">
        <ele>449</ele>
        <time>2024-05-08T14:29:27.000Z</time>
      </trkpt>
      <trkpt lat="43.59301" lon="6.45218">
        <ele>450</ele>
        <time>2024-05-08T14:29:35.000Z</time>
      </trkpt>
      <trkpt lat="43.59303" lon="6.45217">
        <ele>450</ele>
        <time>2024-05-08T14:29:38.000Z</time>
      </trkpt>
      <trkpt lat="43.59308" lon="6.45218">
        <ele>450</ele>
        <time>2024-05-08T14:29:42.000Z</time>
      </trkpt>
      <trkpt lat="43.59309" lon="6.45219">
        <ele>449</ele>
        <time>2024-05-08T14:29:45.000Z</time>
      </trkpt>
      <trkpt lat="43.59311" lon="6.45221">
        <ele>447</ele>
        <time>2024-05-08T14:29:55.000Z</time>
      </trkpt>
      <trkpt lat="43.59313" lon="6.45222">
        <ele>446</ele>
        <time>2024-05-08T14:29:59.000Z</time>
      </trkpt>
      <trkpt lat="43.59317" lon="6.45224">
        <ele>444</ele>
        <time>2024-05-08T14:30:08.000Z</time>
      </trkpt>
      <trkpt lat="43.59321" lon="6.45227">
        <ele>444</ele>
        <time>2024-05-08T14:30:10.000Z</time>
      </trkpt>
      <trkpt lat="43.59323" lon="6.45229">
        <ele>444</ele>
        <time>2024-05-08T14:30:15.000Z</time>
      </trkpt>
      <trkpt lat="43.59325" lon="6.45231">
        <ele>443</ele>
        <time>2024-05-08T14:30:19.000Z</time>
      </trkpt>
      <trkpt lat="43.59327" lon="6.45232">
        <ele>441</ele>
        <time>2024-05-08T14:30:30.000Z</time>
      </trkpt>
      <trkpt lat="43.59329" lon="6.45233">
        <ele>440</ele>
        <time>2024-05-08T14:30:37.000Z</time>
      </trkpt>
      <trkpt lat="43.59334" lon="6.45239">
        <ele>440</ele>
        <time>2024-05-08T14:30:47.000Z</time>
      </trkpt>
      <trkpt lat="43.59333" lon="6.45242">
        <ele>440</ele>
        <time>2024-05-08T14:30:49.000Z</time>
      </trkpt>
      <trkpt lat="43.59332" lon="6.45249">
        <ele>439</ele>
        <time>2024-05-08T14:30:53.000Z</time>
      </trkpt>
      <trkpt lat="43.59333" lon="6.45251">
        <ele>438</ele>
        <time>2024-05-08T14:30:55.000Z</time>
      </trkpt>
      <trkpt lat="43.59335" lon="6.45251">
        <ele>437</ele>
        <time>2024-05-08T14:30:59.000Z</time>
      </trkpt>
      <trkpt lat="43.59337" lon="6.45251">
        <ele>436</ele>
        <time>2024-05-08T14:31:38.000Z</time>
      </trkpt>
      <trkpt lat="43.59339" lon="6.4525">
        <ele>437</ele>
        <time>2024-05-08T14:31:42.000Z</time>
      </trkpt>
      <trkpt lat="43.59331" lon="6.4525">
        <ele>436</ele>
        <time>2024-05-08T14:32:27.000Z</time>
      </trkpt>
      <trkpt lat="43.59334" lon="6.45247">
        <ele>435</ele>
        <time>2024-05-08T14:32:34.000Z</time>
      </trkpt>
      <trkpt lat="43.59345" lon="6.45261">
        <ele>435</ele>
        <time>2024-05-08T14:32:49.000Z</time>
      </trkpt>
      <trkpt lat="43.59345" lon="6.45265">
        <ele>435</ele>
        <time>2024-05-08T14:32:57.000Z</time>
      </trkpt>
      <trkpt lat="43.59348" lon="6.45267">
        <ele>436</ele>
        <time>2024-05-08T14:33:55.000Z</time>
      </trkpt>
      <trkpt lat="43.59349" lon="6.4527">
        <ele>439</ele>
        <time>2024-05-08T14:34:02.000Z</time>
      </trkpt>
      <trkpt lat="43.59352" lon="6.45265">
        <ele>442</ele>
        <time>2024-05-08T14:34:10.000Z</time>
      </trkpt>
      <trkpt lat="43.59352" lon="6.45263">
        <ele>442</ele>
        <time>2024-05-08T14:34:12.000Z</time>
      </trkpt>
      <trkpt lat="43.59351" lon="6.45263">
        <ele>442</ele>
        <time>2024-05-08T14:35:46.000Z</time>
      </trkpt>
      <trkpt lat="43.59352" lon="6.45258">
        <ele>442</ele>
        <time>2024-05-08T14:35:56.000Z</time>
      </trkpt>
      <trkpt lat="43.59353" lon="6.45253">
        <ele>432</ele>
        <time>2024-05-08T14:36:14.000Z</time>
      </trkpt>
      <trkpt lat="43.59354" lon="6.45251">
        <ele>433</ele>
        <time>2024-05-08T14:36:17.000Z</time>
      </trkpt>
      <trkpt lat="43.59352" lon="6.4525">
        <ele>433</ele>
        <time>2024-05-08T14:36:20.000Z</time>
      </trkpt>
      <trkpt lat="43.5935" lon="6.45251">
        <ele>434</ele>
        <time>2024-05-08T14:36:25.000Z</time>
      </trkpt>
      <trkpt lat="43.59354" lon="6.45252">
        <ele>434</ele>
        <time>2024-05-08T14:36:34.000Z</time>
      </trkpt>
      <trkpt lat="43.59358" lon="6.45251">
        <ele>430</ele>
        <time>2024-05-08T14:37:17.000Z</time>
      </trkpt>
      <trkpt lat="43.59359" lon="6.45254">
        <ele>429</ele>
        <time>2024-05-08T14:37:20.000Z</time>
      </trkpt>
      <trkpt lat="43.59364" lon="6.45254">
        <ele>430</ele>
        <time>2024-05-08T14:37:25.000Z</time>
      </trkpt>
      <trkpt lat="43.59362" lon="6.45254">
        <ele>430</ele>
        <time>2024-05-08T14:37:30.000Z</time>
      </trkpt>
      <trkpt lat="43.59361" lon="6.45256">
        <ele>430</ele>
        <time>2024-05-08T14:37:33.000Z</time>
      </trkpt>
      <trkpt lat="43.5936" lon="6.45257">
        <ele>431</ele>
        <time>2024-05-08T14:37:41.000Z</time>
      </trkpt>
      <trkpt lat="43.59359" lon="6.4526">
        <ele>433</ele>
        <time>2024-05-08T14:37:45.000Z</time>
      </trkpt>
      <trkpt lat="43.59357" lon="6.4526">
        <ele>437</ele>
        <time>2024-05-08T14:37:49.000Z</time>
      </trkpt>
      <trkpt lat="43.59353" lon="6.45263">
        <ele>435</ele>
        <time>2024-05-08T14:38:42.000Z</time>
      </trkpt>
      <trkpt lat="43.59352" lon="6.45261">
        <ele>434</ele>
        <time>2024-05-08T14:38:54.000Z</time>
      </trkpt>
      <trkpt lat="43.59349" lon="6.45258">
        <ele>432</ele>
        <time>2024-05-08T14:39:09.000Z</time>
      </trkpt>
      <trkpt lat="43.59348" lon="6.45256">
        <ele>431</ele>
        <time>2024-05-08T14:39:13.000Z</time>
      </trkpt>
      <trkpt lat="43.59351" lon="6.45257">
        <ele>430</ele>
        <time>2024-05-08T14:39:25.000Z</time>
      </trkpt>
      <trkpt lat="43.59353" lon="6.45256">
        <ele>431</ele>
        <time>2024-05-08T14:39:28.000Z</time>
      </trkpt>
      <trkpt lat="43.59359" lon="6.45259">
        <ele>432</ele>
        <time>2024-05-08T14:39:56.000Z</time>
      </trkpt>
      <trkpt lat="43.59357" lon="6.45261">
        <ele>432</ele>
        <time>2024-05-08T14:39:59.000Z</time>
      </trkpt>
      <trkpt lat="43.5936" lon="6.45258">
        <ele>432</ele>
        <time>2024-05-08T14:40:09.000Z</time>
      </trkpt>
      <trkpt lat="43.5936" lon="6.45255">
        <ele>433</ele>
        <time>2024-05-08T14:40:12.000Z</time>
      </trkpt>
      <trkpt lat="43.59362" lon="6.45253">
        <ele>435</ele>
        <time>2024-05-08T14:40:16.000Z</time>
      </trkpt>
      <trkpt lat="43.59361" lon="6.45252">
        <ele>435</ele>
        <time>2024-05-08T14:40:22.000Z</time>
      </trkpt>
      <trkpt lat="43.5936" lon="6.4525">
        <ele>433</ele>
        <time>2024-05-08T14:42:10.000Z</time>
      </trkpt>
      <trkpt lat="43.5936" lon="6.45244">
        <ele>430</ele>
        <time>2024-05-08T14:42:16.000Z</time>
      </trkpt>
      <trkpt lat="43.59364" lon="6.45239">
        <ele>429</ele>
        <time>2024-05-08T14:42:25.000Z</time>
      </trkpt>
      <trkpt lat="43.59365" lon="6.45237">
        <ele>428</ele>
        <time>2024-05-08T14:44:05.000Z</time>
      </trkpt>
      <trkpt lat="43.5937" lon="6.45225">
        <ele>427</ele>
        <time>2024-05-08T14:44:13.000Z</time>
      </trkpt>
      <trkpt lat="43.59371" lon="6.45214">
        <ele>429</ele>
        <time>2024-05-08T14:44:21.000Z</time>
      </trkpt>
      <trkpt lat="43.5937" lon="6.45211">
        <ele>430</ele>
        <time>2024-05-08T14:44:23.000Z</time>
      </trkpt>
      <trkpt lat="43.59369" lon="6.45194">
        <ele>430</ele>
        <time>2024-05-08T14:44:33.000Z</time>
      </trkpt>
      <trkpt lat="43.59372" lon="6.45182">
        <ele>429</ele>
        <time>2024-05-08T14:44:39.000Z</time>
      </trkpt>
      <trkpt lat="43.59371" lon="6.45179">
        <ele>429</ele>
        <time>2024-05-08T14:44:41.000Z</time>
      </trkpt>
      <trkpt lat="43.5937" lon="6.45173">
        <ele>428</ele>
        <time>2024-05-08T14:44:47.000Z</time>
      </trkpt>
      <trkpt lat="43.5937" lon="6.4517">
        <ele>429</ele>
        <time>2024-05-08T14:44:55.000Z</time>
      </trkpt>
      <trkpt lat="43.59374" lon="6.45166">
        <ele>429</ele>
        <time>2024-05-08T14:44:59.000Z</time>
      </trkpt>
      <trkpt lat="43.59375" lon="6.45164">
        <ele>430</ele>
        <time>2024-05-08T14:45:01.000Z</time>
      </trkpt>
      <trkpt lat="43.59376" lon="6.4516">
        <ele>430</ele>
        <time>2024-05-08T14:45:03.000Z</time>
      </trkpt>
      <trkpt lat="43.59382" lon="6.45152">
        <ele>430</ele>
        <time>2024-05-08T14:45:10.000Z</time>
      </trkpt>
      <trkpt lat="43.59384" lon="6.4515">
        <ele>430</ele>
        <time>2024-05-08T14:45:12.000Z</time>
      </trkpt>
      <trkpt lat="43.59386" lon="6.45149">
        <ele>430</ele>
        <time>2024-05-08T14:45:14.000Z</time>
      </trkpt>
      <trkpt lat="43.59389" lon="6.45145">
        <ele>430</ele>
        <time>2024-05-08T14:45:18.000Z</time>
      </trkpt>
      <trkpt lat="43.59393" lon="6.45138">
        <ele>428</ele>
        <time>2024-05-08T14:45:22.000Z</time>
      </trkpt>
      <trkpt lat="43.59393" lon="6.45135">
        <ele>426</ele>
        <time>2024-05-08T14:45:24.000Z</time>
      </trkpt>
      <trkpt lat="43.59395" lon="6.45131">
        <ele>425</ele>
        <time>2024-05-08T14:45:26.000Z</time>
      </trkpt>
      <trkpt lat="43.59395" lon="6.45128">
        <ele>424</ele>
        <time>2024-05-08T14:45:28.000Z</time>
      </trkpt>
      <trkpt lat="43.59396" lon="6.45125">
        <ele>423</ele>
        <time>2024-05-08T14:45:30.000Z</time>
      </trkpt>
      <trkpt lat="43.59403" lon="6.45121">
        <ele>422</ele>
        <time>2024-05-08T14:45:36.000Z</time>
      </trkpt>
      <trkpt lat="43.59405" lon="6.45118">
        <ele>422</ele>
        <time>2024-05-08T14:45:38.000Z</time>
      </trkpt>
      <trkpt lat="43.59415" lon="6.45109">
        <ele>420</ele>
        <time>2024-05-08T14:45:46.000Z</time>
      </trkpt>
      <trkpt lat="43.59416" lon="6.45106">
        <ele>420</ele>
        <time>2024-05-08T14:45:49.000Z</time>
      </trkpt>
      <trkpt lat="43.5942" lon="6.45105">
        <ele>419</ele>
        <time>2024-05-08T14:45:51.000Z</time>
      </trkpt>
      <trkpt lat="43.59421" lon="6.45108">
        <ele>418</ele>
        <time>2024-05-08T14:45:53.000Z</time>
      </trkpt>
      <trkpt lat="43.59426" lon="6.45124">
        <ele>414</ele>
        <time>2024-05-08T14:46:00.000Z</time>
      </trkpt>
      <trkpt lat="43.59426" lon="6.45127">
        <ele>413</ele>
        <time>2024-05-08T14:46:02.000Z</time>
      </trkpt>
      <trkpt lat="43.59426" lon="6.4513">
        <ele>413</ele>
        <time>2024-05-08T14:46:05.000Z</time>
      </trkpt>
      <trkpt lat="43.59425" lon="6.45132">
        <ele>413</ele>
        <time>2024-05-08T14:46:07.000Z</time>
      </trkpt>
      <trkpt lat="43.59422" lon="6.45134">
        <ele>414</ele>
        <time>2024-05-08T14:46:10.000Z</time>
      </trkpt>
      <trkpt lat="43.59419" lon="6.45141">
        <ele>413</ele>
        <time>2024-05-08T14:46:14.000Z</time>
      </trkpt>
      <trkpt lat="43.59419" lon="6.45144">
        <ele>412</ele>
        <time>2024-05-08T14:46:16.000Z</time>
      </trkpt>
      <trkpt lat="43.59421" lon="6.45146">
        <ele>412</ele>
        <time>2024-05-08T14:46:19.000Z</time>
      </trkpt>
      <trkpt lat="43.59421" lon="6.45147">
        <ele>411</ele>
        <time>2024-05-08T14:46:32.000Z</time>
      </trkpt>
      <trkpt lat="43.59422" lon="6.45143">
        <ele>410</ele>
        <time>2024-05-08T14:46:49.000Z</time>
      </trkpt>
      <trkpt lat="43.59425" lon="6.45131">
        <ele>409</ele>
        <time>2024-05-08T14:46:59.000Z</time>
      </trkpt>
      <trkpt lat="43.59428" lon="6.45127">
        <ele>408</ele>
        <time>2024-05-08T14:47:03.000Z</time>
      </trkpt>
      <trkpt lat="43.59431" lon="6.45124">
        <ele>407</ele>
        <time>2024-05-08T14:47:06.000Z</time>
      </trkpt>
      <trkpt lat="43.59436" lon="6.45114">
        <ele>409</ele>
        <time>2024-05-08T14:47:15.000Z</time>
      </trkpt>
      <trkpt lat="43.59437" lon="6.45112">
        <ele>409</ele>
        <time>2024-05-08T14:47:18.000Z</time>
      </trkpt>
      <trkpt lat="43.59439" lon="6.45112">
        <ele>410</ele>
        <time>2024-05-08T14:47:23.000Z</time>
      </trkpt>
      <trkpt lat="43.5944" lon="6.45109">
        <ele>410</ele>
        <time>2024-05-08T14:47:29.000Z</time>
      </trkpt>
      <trkpt lat="43.5944" lon="6.451">
        <ele>410</ele>
        <time>2024-05-08T14:47:33.000Z</time>
      </trkpt>
      <trkpt lat="43.59439" lon="6.45086">
        <ele>409</ele>
        <time>2024-05-08T14:47:41.000Z</time>
      </trkpt>
      <trkpt lat="43.59439" lon="6.45083">
        <ele>409</ele>
        <time>2024-05-08T14:47:44.000Z</time>
      </trkpt>
      <trkpt lat="43.5944" lon="6.45079">
        <ele>409</ele>
        <time>2024-05-08T14:47:47.000Z</time>
      </trkpt>
      <trkpt lat="43.59441" lon="6.45068">
        <ele>409</ele>
        <time>2024-05-08T14:47:53.000Z</time>
      </trkpt>
      <trkpt lat="43.59441" lon="6.45064">
        <ele>409</ele>
        <time>2024-05-08T14:47:55.000Z</time>
      </trkpt>
      <trkpt lat="43.59442" lon="6.4506">
        <ele>409</ele>
        <time>2024-05-08T14:47:57.000Z</time>
      </trkpt>
      <trkpt lat="43.59443" lon="6.45055">
        <ele>410</ele>
        <time>2024-05-08T14:48:01.000Z</time>
      </trkpt>
      <trkpt lat="43.59445" lon="6.45055">
        <ele>411</ele>
        <time>2024-05-08T14:48:03.000Z</time>
      </trkpt>
      <trkpt lat="43.59444" lon="6.45049">
        <ele>410</ele>
        <time>2024-05-08T14:48:09.000Z</time>
      </trkpt>
      <trkpt lat="43.59444" lon="6.45042">
        <ele>410</ele>
        <time>2024-05-08T14:48:13.000Z</time>
      </trkpt>
      <trkpt lat="43.59444" lon="6.45034">
        <ele>409</ele>
        <time>2024-05-08T14:48:17.000Z</time>
      </trkpt>
      <trkpt lat="43.59444" lon="6.45031">
        <ele>409</ele>
        <time>2024-05-08T14:48:19.000Z</time>
      </trkpt>
      <trkpt lat="43.59445" lon="6.45029">
        <ele>408</ele>
        <time>2024-05-08T14:48:22.000Z</time>
      </trkpt>
      <trkpt lat="43.59446" lon="6.45026">
        <ele>408</ele>
        <time>2024-05-08T14:48:24.000Z</time>
      </trkpt>
      <trkpt lat="43.59449" lon="6.45023">
        <ele>406</ele>
        <time>2024-05-08T14:48:30.000Z</time>
      </trkpt>
      <trkpt lat="43.59448" lon="6.45022">
        <ele>407</ele>
        <time>2024-05-08T14:49:38.000Z</time>
      </trkpt>
      <trkpt lat="43.59446" lon="6.45018">
        <ele>408</ele>
        <time>2024-05-08T14:49:40.000Z</time>
      </trkpt>
      <trkpt lat="43.59446" lon="6.45014">
        <ele>408</ele>
        <time>2024-05-08T14:49:42.000Z</time>
      </trkpt>
      <trkpt lat="43.59446" lon="6.45011">
        <ele>408</ele>
        <time>2024-05-08T14:49:44.000Z</time>
      </trkpt>
      <trkpt lat="43.59444" lon="6.45009">
        <ele>408</ele>
        <time>2024-05-08T14:49:46.000Z</time>
      </trkpt>
      <trkpt lat="43.59443" lon="6.45007">
        <ele>408</ele>
        <time>2024-05-08T14:49:49.000Z</time>
      </trkpt>
      <trkpt lat="43.59438" lon="6.45005">
        <ele>409</ele>
        <time>2024-05-08T14:50:04.000Z</time>
      </trkpt>
      <trkpt lat="43.59437" lon="6.45004">
        <ele>410</ele>
        <time>2024-05-08T14:50:06.000Z</time>
      </trkpt>
      <trkpt lat="43.59435" lon="6.45002">
        <ele>411</ele>
        <time>2024-05-08T14:50:09.000Z</time>
      </trkpt>
      <trkpt lat="43.5943" lon="6.44981">
        <ele>413</ele>
        <time>2024-05-08T14:50:20.000Z</time>
      </trkpt>
      <trkpt lat="43.59428" lon="6.44978">
        <ele>413</ele>
        <time>2024-05-08T14:50:22.000Z</time>
      </trkpt>
      <trkpt lat="43.59427" lon="6.44975">
        <ele>413</ele>
        <time>2024-05-08T14:50:24.000Z</time>
      </trkpt>
      <trkpt lat="43.59427" lon="6.44968">
        <ele>413</ele>
        <time>2024-05-08T14:50:29.000Z</time>
      </trkpt>
      <trkpt lat="43.59426" lon="6.44965">
        <ele>413</ele>
        <time>2024-05-08T14:50:32.000Z</time>
      </trkpt>
      <trkpt lat="43.59426" lon="6.44958">
        <ele>414</ele>
        <time>2024-05-08T14:50:37.000Z</time>
      </trkpt>
      <trkpt lat="43.59427" lon="6.44954">
        <ele>414</ele>
        <time>2024-05-08T14:50:39.000Z</time>
      </trkpt>
      <trkpt lat="43.59427" lon="6.44949">
        <ele>414</ele>
        <time>2024-05-08T14:50:41.000Z</time>
      </trkpt>
      <trkpt lat="43.59427" lon="6.44942">
        <ele>413</ele>
        <time>2024-05-08T14:50:45.000Z</time>
      </trkpt>
      <trkpt lat="43.59426" lon="6.44938">
        <ele>413</ele>
        <time>2024-05-08T14:50:47.000Z</time>
      </trkpt>
      <trkpt lat="43.59427" lon="6.44934">
        <ele>412</ele>
        <time>2024-05-08T14:50:50.000Z</time>
      </trkpt>
      <trkpt lat="43.59427" lon="6.44931">
        <ele>412</ele>
        <time>2024-05-08T14:50:52.000Z</time>
      </trkpt>
      <trkpt lat="43.59431" lon="6.44918">
        <ele>410</ele>
        <time>2024-05-08T14:51:00.000Z</time>
      </trkpt>
      <trkpt lat="43.59431" lon="6.44913">
        <ele>408</ele>
        <time>2024-05-08T14:51:03.000Z</time>
      </trkpt>
      <trkpt lat="43.59429" lon="6.4491">
        <ele>407</ele>
        <time>2024-05-08T14:51:05.000Z</time>
      </trkpt>
      <trkpt lat="43.5943" lon="6.44901">
        <ele>405</ele>
        <time>2024-05-08T14:51:11.000Z</time>
      </trkpt>
      <trkpt lat="43.59429" lon="6.44898">
        <ele>403</ele>
        <time>2024-05-08T14:51:13.000Z</time>
      </trkpt>
      <trkpt lat="43.59427" lon="6.44896">
        <ele>403</ele>
        <time>2024-05-08T14:51:16.000Z</time>
      </trkpt>
      <trkpt lat="43.59425" lon="6.44894">
        <ele>403</ele>
        <time>2024-05-08T14:51:20.000Z</time>
      </trkpt>
      <trkpt lat="43.59424" lon="6.44892">
        <ele>403</ele>
        <time>2024-05-08T14:51:23.000Z</time>
      </trkpt>
      <trkpt lat="43.59425" lon="6.4489">
        <ele>403</ele>
        <time>2024-05-08T14:51:26.000Z</time>
      </trkpt>
      <trkpt lat="43.59427" lon="6.44889">
        <ele>402</ele>
        <time>2024-05-08T14:51:28.000Z</time>
      </trkpt>
      <trkpt lat="43.59428" lon="6.44886">
        <ele>402</ele>
        <time>2024-05-08T14:51:31.000Z</time>
      </trkpt>
      <trkpt lat="43.5943" lon="6.44886">
        <ele>402</ele>
        <time>2024-05-08T14:51:33.000Z</time>
      </trkpt>
      <trkpt lat="43.59431" lon="6.44882">
        <ele>402</ele>
        <time>2024-05-08T14:51:36.000Z</time>
      </trkpt>
      <trkpt lat="43.5943" lon="6.44881">
        <ele>403</ele>
        <time>2024-05-08T14:51:43.000Z</time>
      </trkpt>
      <trkpt lat="43.59432" lon="6.4488">
        <ele>402</ele>
        <time>2024-05-08T14:52:13.000Z</time>
      </trkpt>
      <trkpt lat="43.59434" lon="6.44878">
        <ele>402</ele>
        <time>2024-05-08T14:52:16.000Z</time>
      </trkpt>
      <trkpt lat="43.59437" lon="6.44879">
        <ele>402</ele>
        <time>2024-05-08T14:52:18.000Z</time>
      </trkpt>
      <trkpt lat="43.5944" lon="6.44878">
        <ele>402</ele>
        <time>2024-05-08T14:52:20.000Z</time>
      </trkpt>
      <trkpt lat="43.59441" lon="6.44878">
        <ele>402</ele>
        <time>2024-05-08T14:52:26.000Z</time>
      </trkpt>
      <trkpt lat="43.59443" lon="6.44885">
        <ele>401</ele>
        <time>2024-05-08T14:52:43.000Z</time>
      </trkpt>
      <trkpt lat="43.59441" lon="6.44888">
        <ele>400</ele>
        <time>2024-05-08T14:52:46.000Z</time>
      </trkpt>
      <trkpt lat="43.59438" lon="6.44894">
        <ele>400</ele>
        <time>2024-05-08T14:52:50.000Z</time>
      </trkpt>
      <trkpt lat="43.59439" lon="6.44896">
        <ele>401</ele>
        <time>2024-05-08T14:52:57.000Z</time>
      </trkpt>
      <trkpt lat="43.5944" lon="6.44899">
        <ele>400</ele>
        <time>2024-05-08T14:53:19.000Z</time>
      </trkpt>
      <trkpt lat="43.59435" lon="6.44889">
        <ele>399</ele>
        <time>2024-05-08T14:53:51.000Z</time>
      </trkpt>
      <trkpt lat="43.59441" lon="6.44893">
        <ele>400</ele>
        <time>2024-05-08T14:54:08.000Z</time>
      </trkpt>
      <trkpt lat="43.5944" lon="6.44895">
        <ele>401</ele>
        <time>2024-05-08T14:54:41.000Z</time>
      </trkpt>
      <trkpt lat="43.59441" lon="6.44896">
        <ele>399</ele>
        <time>2024-05-08T14:54:50.000Z</time>
      </trkpt>
      <trkpt lat="43.59442" lon="6.44899">
        <ele>394</ele>
        <time>2024-05-08T14:55:34.000Z</time>
      </trkpt>
      <trkpt lat="43.59445" lon="6.44901">
        <ele>393</ele>
        <time>2024-05-08T14:55:36.000Z</time>
      </trkpt>
      <trkpt lat="43.59444" lon="6.44902">
        <ele>392</ele>
        <time>2024-05-08T14:55:42.000Z</time>
      </trkpt>
      <trkpt lat="43.59441" lon="6.449">
        <ele>393</ele>
        <time>2024-05-08T14:55:44.000Z</time>
      </trkpt>
      <trkpt lat="43.59438" lon="6.449">
        <ele>396</ele>
        <time>2024-05-08T14:55:46.000Z</time>
      </trkpt>
      <trkpt lat="43.59439" lon="6.44898">
        <ele>398</ele>
        <time>2024-05-08T14:55:48.000Z</time>
      </trkpt>
      <trkpt lat="43.5944" lon="6.44898">
        <ele>407</ele>
        <time>2024-05-08T14:56:12.000Z</time>
      </trkpt>
      <trkpt lat="43.59433" lon="6.44891">
        <ele>403</ele>
        <time>2024-05-08T14:56:36.000Z</time>
      </trkpt>
      <trkpt lat="43.59431" lon="6.44898">
        <ele>402</ele>
        <time>2024-05-08T14:56:41.000Z</time>
      </trkpt>
      <trkpt lat="43.59435" lon="6.44907">
        <ele>402</ele>
        <time>2024-05-08T14:56:45.000Z</time>
      </trkpt>
      <trkpt lat="43.59434" lon="6.4491">
        <ele>402</ele>
        <time>2024-05-08T14:56:48.000Z</time>
      </trkpt>
      <trkpt lat="43.59434" lon="6.44913">
        <ele>402</ele>
        <time>2024-05-08T14:56:51.000Z</time>
      </trkpt>
      <trkpt lat="43.59433" lon="6.44916">
        <ele>403</ele>
        <time>2024-05-08T14:56:53.000Z</time>
      </trkpt>
      <trkpt lat="43.59432" lon="6.4492">
        <ele>403</ele>
        <time>2024-05-08T14:56:56.000Z</time>
      </trkpt>
      <trkpt lat="43.59432" lon="6.44923">
        <ele>403</ele>
        <time>2024-05-08T14:56:58.000Z</time>
      </trkpt>
      <trkpt lat="43.59432" lon="6.44927">
        <ele>403</ele>
        <time>2024-05-08T14:57:01.000Z</time>
      </trkpt>
      <trkpt lat="43.59431" lon="6.44931">
        <ele>403</ele>
        <time>2024-05-08T14:57:05.000Z</time>
      </trkpt>
      <trkpt lat="43.5943" lon="6.44935">
        <ele>405</ele>
        <time>2024-05-08T14:57:09.000Z</time>
      </trkpt>
      <trkpt lat="43.5943" lon="6.4495">
        <ele>406</ele>
        <time>2024-05-08T14:57:19.000Z</time>
      </trkpt>
      <trkpt lat="43.59432" lon="6.44953">
        <ele>406</ele>
        <time>2024-05-08T14:57:22.000Z</time>
      </trkpt>
      <trkpt lat="43.5943" lon="6.44962">
        <ele>406</ele>
        <time>2024-05-08T14:57:28.000Z</time>
      </trkpt>
      <trkpt lat="43.59431" lon="6.44965">
        <ele>406</ele>
        <time>2024-05-08T14:57:30.000Z</time>
      </trkpt>
      <trkpt lat="43.59432" lon="6.44976">
        <ele>405</ele>
        <time>2024-05-08T14:57:40.000Z</time>
      </trkpt>
      <trkpt lat="43.59434" lon="6.44979">
        <ele>405</ele>
        <time>2024-05-08T14:57:42.000Z</time>
      </trkpt>
      <trkpt lat="43.59436" lon="6.44982">
        <ele>405</ele>
        <time>2024-05-08T14:57:45.000Z</time>
      </trkpt>
      <trkpt lat="43.59437" lon="6.44985">
        <ele>406</ele>
        <time>2024-05-08T14:57:48.000Z</time>
      </trkpt>
      <trkpt lat="43.59436" lon="6.44993">
        <ele>407</ele>
        <time>2024-05-08T14:57:57.000Z</time>
      </trkpt>
      <trkpt lat="43.59438" lon="6.44999">
        <ele>408</ele>
        <time>2024-05-08T14:58:01.000Z</time>
      </trkpt>
      <trkpt lat="43.59445" lon="6.45005">
        <ele>409</ele>
        <time>2024-05-08T14:58:04.000Z</time>
      </trkpt>
      <trkpt lat="43.59445" lon="6.45009">
        <ele>409</ele>
        <time>2024-05-08T14:58:06.000Z</time>
      </trkpt>
      <trkpt lat="43.59446" lon="6.45012">
        <ele>409</ele>
        <time>2024-05-08T14:58:09.000Z</time>
      </trkpt>
      <trkpt lat="43.5945" lon="6.45026">
        <ele>408</ele>
        <time>2024-05-08T14:58:21.000Z</time>
      </trkpt>
      <trkpt lat="43.5945" lon="6.4503">
        <ele>408</ele>
        <time>2024-05-08T14:58:24.000Z</time>
      </trkpt>
      <trkpt lat="43.5945" lon="6.45034">
        <ele>408</ele>
        <time>2024-05-08T14:58:26.000Z</time>
      </trkpt>
      <trkpt lat="43.5945" lon="6.45037">
        <ele>408</ele>
        <time>2024-05-08T14:58:28.000Z</time>
      </trkpt>
      <trkpt lat="43.59447" lon="6.45042">
        <ele>408</ele>
        <time>2024-05-08T14:58:32.000Z</time>
      </trkpt>
      <trkpt lat="43.59447" lon="6.45046">
        <ele>407</ele>
        <time>2024-05-08T14:58:35.000Z</time>
      </trkpt>
      <trkpt lat="43.59446" lon="6.4505">
        <ele>407</ele>
        <time>2024-05-08T14:58:38.000Z</time>
      </trkpt>
      <trkpt lat="43.59441" lon="6.45055">
        <ele>407</ele>
        <time>2024-05-08T14:58:44.000Z</time>
      </trkpt>
      <trkpt lat="43.59441" lon="6.45063">
        <ele>407</ele>
        <time>2024-05-08T14:58:50.000Z</time>
      </trkpt>
      <trkpt lat="43.5944" lon="6.45066">
        <ele>408</ele>
        <time>2024-05-08T14:58:54.000Z</time>
      </trkpt>
      <trkpt lat="43.59443" lon="6.45067">
        <ele>408</ele>
        <time>2024-05-08T14:58:58.000Z</time>
      </trkpt>
      <trkpt lat="43.5945" lon="6.45066">
        <ele>411</ele>
        <time>2024-05-08T14:59:06.000Z</time>
      </trkpt>
      <trkpt lat="43.59455" lon="6.45067">
        <ele>412</ele>
        <time>2024-05-08T14:59:11.000Z</time>
      </trkpt>
      <trkpt lat="43.59455" lon="6.45065">
        <ele>412</ele>
        <time>2024-05-08T14:59:22.000Z</time>
      </trkpt>
      <trkpt lat="43.59455" lon="6.45059">
        <ele>410</ele>
        <time>2024-05-08T14:59:31.000Z</time>
      </trkpt>
      <trkpt lat="43.59456" lon="6.45057">
        <ele>411</ele>
        <time>2024-05-08T14:59:32.000Z</time>
      </trkpt>
      <trkpt lat="43.59453" lon="6.4507">
        <ele>411</ele>
        <time>2024-05-08T14:59:59.000Z</time>
      </trkpt>
      <trkpt lat="43.59452" lon="6.45072">
        <ele>410</ele>
        <time>2024-05-08T15:00:15.000Z</time>
      </trkpt>
      <trkpt lat="43.59449" lon="6.45073">
        <ele>408</ele>
        <time>2024-05-08T15:00:17.000Z</time>
      </trkpt>
      <trkpt lat="43.59444" lon="6.45073">
        <ele>407</ele>
        <time>2024-05-08T15:00:21.000Z</time>
      </trkpt>
      <trkpt lat="43.59443" lon="6.45072">
        <ele>407</ele>
        <time>2024-05-08T15:00:23.000Z</time>
      </trkpt>
      <trkpt lat="43.59444" lon="6.4506">
        <ele>405</ele>
        <time>2024-05-08T15:00:29.000Z</time>
      </trkpt>
      <trkpt lat="43.59447" lon="6.45057">
        <ele>405</ele>
        <time>2024-05-08T15:00:33.000Z</time>
      </trkpt>
      <trkpt lat="43.5945" lon="6.45056">
        <ele>405</ele>
        <time>2024-05-08T15:00:34.000Z</time>
      </trkpt>
      <trkpt lat="43.59452" lon="6.45054">
        <ele>405</ele>
        <time>2024-05-08T15:00:36.000Z</time>
      </trkpt>
      <trkpt lat="43.59455" lon="6.45056">
        <ele>406</ele>
        <time>2024-05-08T15:00:44.000Z</time>
      </trkpt>
      <trkpt lat="43.59457" lon="6.45058">
        <ele>407</ele>
        <time>2024-05-08T15:00:48.000Z</time>
      </trkpt>
      <trkpt lat="43.59491" lon="6.4507">
        <ele>413</ele>
        <time>2024-05-08T15:01:03.000Z</time>
      </trkpt>
      <trkpt lat="43.59488" lon="6.45072">
        <ele>415</ele>
        <time>2024-05-08T15:01:07.000Z</time>
      </trkpt>
      <trkpt lat="43.59483" lon="6.4507">
        <ele>416</ele>
        <time>2024-05-08T15:01:09.000Z</time>
      </trkpt>
      <trkpt lat="43.59475" lon="6.45068">
        <ele>417</ele>
        <time>2024-05-08T15:01:11.000Z</time>
      </trkpt>
      <trkpt lat="43.59473" lon="6.45067">
        <ele>417</ele>
        <time>2024-05-08T15:01:12.000Z</time>
      </trkpt>
      <trkpt lat="43.59461" lon="6.45065">
        <ele>419</ele>
        <time>2024-05-08T15:01:17.000Z</time>
      </trkpt>
      <trkpt lat="43.5946" lon="6.4507">
        <ele>420</ele>
        <time>2024-05-08T15:01:27.000Z</time>
      </trkpt>
      <trkpt lat="43.59455" lon="6.4507">
        <ele>419</ele>
        <time>2024-05-08T15:01:29.000Z</time>
      </trkpt>
      <trkpt lat="43.59461" lon="6.45077">
        <ele>418</ele>
        <time>2024-05-08T15:01:33.000Z</time>
      </trkpt>
      <trkpt lat="43.59458" lon="6.45077">
        <ele>418</ele>
        <time>2024-05-08T15:01:37.000Z</time>
      </trkpt>
      <trkpt lat="43.59456" lon="6.45078">
        <ele>417</ele>
        <time>2024-05-08T15:01:40.000Z</time>
      </trkpt>
      <trkpt lat="43.59455" lon="6.4508">
        <ele>415</ele>
        <time>2024-05-08T15:01:45.000Z</time>
      </trkpt>
      <trkpt lat="43.59454" lon="6.45084">
        <ele>414</ele>
        <time>2024-05-08T15:01:47.000Z</time>
      </trkpt>
      <trkpt lat="43.59453" lon="6.45088">
        <ele>413</ele>
        <time>2024-05-08T15:01:49.000Z</time>
      </trkpt>
      <trkpt lat="43.59453" lon="6.45091">
        <ele>411</ele>
        <time>2024-05-08T15:01:51.000Z</time>
      </trkpt>
      <trkpt lat="43.59448" lon="6.45099">
        <ele>409</ele>
        <time>2024-05-08T15:01:57.000Z</time>
      </trkpt>
      <trkpt lat="43.59446" lon="6.45106">
        <ele>407</ele>
        <time>2024-05-08T15:02:03.000Z</time>
      </trkpt>
      <trkpt lat="43.59446" lon="6.45109">
        <ele>406</ele>
        <time>2024-05-08T15:02:06.000Z</time>
      </trkpt>
      <trkpt lat="43.59445" lon="6.45113">
        <ele>406</ele>
        <time>2024-05-08T15:02:08.000Z</time>
      </trkpt>
      <trkpt lat="43.59441" lon="6.45118">
        <ele>406</ele>
        <time>2024-05-08T15:02:13.000Z</time>
      </trkpt>
      <trkpt lat="43.59439" lon="6.45118">
        <ele>406</ele>
        <time>2024-05-08T15:02:19.000Z</time>
      </trkpt>
      <trkpt lat="43.59435" lon="6.45123">
        <ele>407</ele>
        <time>2024-05-08T15:02:23.000Z</time>
      </trkpt>
      <trkpt lat="43.59434" lon="6.45128">
        <ele>408</ele>
        <time>2024-05-08T15:02:25.000Z</time>
      </trkpt>
      <trkpt lat="43.59425" lon="6.45143">
        <ele>408</ele>
        <time>2024-05-08T15:02:37.000Z</time>
      </trkpt>
      <trkpt lat="43.59424" lon="6.45146">
        <ele>408</ele>
        <time>2024-05-08T15:02:39.000Z</time>
      </trkpt>
      <trkpt lat="43.5942" lon="6.45149">
        <ele>408</ele>
        <time>2024-05-08T15:02:43.000Z</time>
      </trkpt>
      <trkpt lat="43.59418" lon="6.45151">
        <ele>407</ele>
        <time>2024-05-08T15:02:45.000Z</time>
      </trkpt>
      <trkpt lat="43.59411" lon="6.45162">
        <ele>406</ele>
        <time>2024-05-08T15:02:56.000Z</time>
      </trkpt>
      <trkpt lat="43.59409" lon="6.45169">
        <ele>406</ele>
        <time>2024-05-08T15:03:02.000Z</time>
      </trkpt>
      <trkpt lat="43.59407" lon="6.4517">
        <ele>407</ele>
        <time>2024-05-08T15:03:04.000Z</time>
      </trkpt>
      <trkpt lat="43.59405" lon="6.45171">
        <ele>407</ele>
        <time>2024-05-08T15:03:06.000Z</time>
      </trkpt>
      <trkpt lat="43.59401" lon="6.45175">
        <ele>407</ele>
        <time>2024-05-08T15:03:10.000Z</time>
      </trkpt>
      <trkpt lat="43.59401" lon="6.45178">
        <ele>407</ele>
        <time>2024-05-08T15:03:12.000Z</time>
      </trkpt>
      <trkpt lat="43.59399" lon="6.45188">
        <ele>408</ele>
        <time>2024-05-08T15:03:19.000Z</time>
      </trkpt>
      <trkpt lat="43.59397" lon="6.4519">
        <ele>409</ele>
        <time>2024-05-08T15:03:22.000Z</time>
      </trkpt>
      <trkpt lat="43.59395" lon="6.45201">
        <ele>412</ele>
        <time>2024-05-08T15:03:28.000Z</time>
      </trkpt>
      <trkpt lat="43.59392" lon="6.4521">
        <ele>413</ele>
        <time>2024-05-08T15:03:34.000Z</time>
      </trkpt>
      <trkpt lat="43.59394" lon="6.45213">
        <ele>414</ele>
        <time>2024-05-08T15:03:36.000Z</time>
      </trkpt>
      <trkpt lat="43.59392" lon="6.45213">
        <ele>414</ele>
        <time>2024-05-08T15:03:38.000Z</time>
      </trkpt>
      <trkpt lat="43.59391" lon="6.45216">
        <ele>415</ele>
        <time>2024-05-08T15:03:40.000Z</time>
      </trkpt>
      <trkpt lat="43.59392" lon="6.45224">
        <ele>416</ele>
        <time>2024-05-08T15:03:44.000Z</time>
      </trkpt>
      <trkpt lat="43.5939" lon="6.45226">
        <ele>417</ele>
        <time>2024-05-08T15:03:46.000Z</time>
      </trkpt>
      <trkpt lat="43.59388" lon="6.45239">
        <ele>419</ele>
        <time>2024-05-08T15:03:54.000Z</time>
      </trkpt>
      <trkpt lat="43.59386" lon="6.45244">
        <ele>418</ele>
        <time>2024-05-08T15:03:58.000Z</time>
      </trkpt>
      <trkpt lat="43.59387" lon="6.4525">
        <ele>417</ele>
        <time>2024-05-08T15:04:03.000Z</time>
      </trkpt>
      <trkpt lat="43.59386" lon="6.45253">
        <ele>417</ele>
        <time>2024-05-08T15:04:04.000Z</time>
      </trkpt>
      <trkpt lat="43.59384" lon="6.45263">
        <ele>416</ele>
        <time>2024-05-08T15:04:09.000Z</time>
      </trkpt>
      <trkpt lat="43.59382" lon="6.45266">
        <ele>416</ele>
        <time>2024-05-08T15:04:12.000Z</time>
      </trkpt>
      <trkpt lat="43.59383" lon="6.45276">
        <ele>416</ele>
        <time>2024-05-08T15:04:18.000Z</time>
      </trkpt>
      <trkpt lat="43.59381" lon="6.45278">
        <ele>416</ele>
        <time>2024-05-08T15:04:20.000Z</time>
      </trkpt>
      <trkpt lat="43.59381" lon="6.45281">
        <ele>416</ele>
        <time>2024-05-08T15:04:22.000Z</time>
      </trkpt>
      <trkpt lat="43.59375" lon="6.4529">
        <ele>414</ele>
        <time>2024-05-08T15:04:28.000Z</time>
      </trkpt>
      <trkpt lat="43.59373" lon="6.45293">
        <ele>413</ele>
        <time>2024-05-08T15:04:30.000Z</time>
      </trkpt>
      <trkpt lat="43.59369" lon="6.45294">
        <ele>412</ele>
        <time>2024-05-08T15:04:33.000Z</time>
      </trkpt>
      <trkpt lat="43.59367" lon="6.45297">
        <ele>412</ele>
        <time>2024-05-08T15:04:35.000Z</time>
      </trkpt>
      <trkpt lat="43.59366" lon="6.45298">
        <ele>412</ele>
        <time>2024-05-08T15:04:36.000Z</time>
      </trkpt>
      <trkpt lat="43.59363" lon="6.453">
        <ele>412</ele>
        <time>2024-05-08T15:04:38.000Z</time>
      </trkpt>
      <trkpt lat="43.59359" lon="6.45304">
        <ele>412</ele>
        <time>2024-05-08T15:04:43.000Z</time>
      </trkpt>
      <trkpt lat="43.59347" lon="6.45316">
        <ele>413</ele>
        <time>2024-05-08T15:04:55.000Z</time>
      </trkpt>
      <trkpt lat="43.59346" lon="6.45317">
        <ele>413</ele>
        <time>2024-05-08T15:04:57.000Z</time>
      </trkpt>
      <trkpt lat="43.59344" lon="6.45319">
        <ele>414</ele>
        <time>2024-05-08T15:04:59.000Z</time>
      </trkpt>
      <trkpt lat="43.59341" lon="6.4532">
        <ele>415</ele>
        <time>2024-05-08T15:05:01.000Z</time>
      </trkpt>
      <trkpt lat="43.59339" lon="6.45322">
        <ele>415</ele>
        <time>2024-05-08T15:05:03.000Z</time>
      </trkpt>
      <trkpt lat="43.59337" lon="6.45324">
        <ele>416</ele>
        <time>2024-05-08T15:05:05.000Z</time>
      </trkpt>
      <trkpt lat="43.59335" lon="6.45327">
        <ele>416</ele>
        <time>2024-05-08T15:05:07.000Z</time>
      </trkpt>
      <trkpt lat="43.59333" lon="6.45333">
        <ele>418</ele>
        <time>2024-05-08T15:05:11.000Z</time>
      </trkpt>
      <trkpt lat="43.59327" lon="6.45338">
        <ele>424</ele>
        <time>2024-05-08T15:05:19.000Z</time>
      </trkpt>
      <trkpt lat="43.59324" lon="6.45339">
        <ele>425</ele>
        <time>2024-05-08T15:05:21.000Z</time>
      </trkpt>
      <trkpt lat="43.59322" lon="6.4534">
        <ele>427</ele>
        <time>2024-05-08T15:05:23.000Z</time>
      </trkpt>
      <trkpt lat="43.5932" lon="6.45345">
        <ele>429</ele>
        <time>2024-05-08T15:05:38.000Z</time>
      </trkpt>
      <trkpt lat="43.59314" lon="6.45359">
        <ele>429</ele>
        <time>2024-05-08T15:05:48.000Z</time>
      </trkpt>
      <trkpt lat="43.59313" lon="6.45362">
        <ele>429</ele>
        <time>2024-05-08T15:05:50.000Z</time>
      </trkpt>
      <trkpt lat="43.59312" lon="6.45364">
        <ele>429</ele>
        <time>2024-05-08T15:05:51.000Z</time>
      </trkpt>
      <trkpt lat="43.59311" lon="6.45371">
        <ele>430</ele>
        <time>2024-05-08T15:05:55.000Z</time>
      </trkpt>
      <trkpt lat="43.59304" lon="6.45387">
        <ele>428</ele>
        <time>2024-05-08T15:06:06.000Z</time>
      </trkpt>
      <trkpt lat="43.59303" lon="6.4539">
        <ele>428</ele>
        <time>2024-05-08T15:06:08.000Z</time>
      </trkpt>
      <trkpt lat="43.59302" lon="6.45394">
        <ele>428</ele>
        <time>2024-05-08T15:06:10.000Z</time>
      </trkpt>
      <trkpt lat="43.59303" lon="6.45398">
        <ele>428</ele>
        <time>2024-05-08T15:06:12.000Z</time>
      </trkpt>
      <trkpt lat="43.59305" lon="6.45402">
        <ele>428</ele>
        <time>2024-05-08T15:06:14.000Z</time>
      </trkpt>
      <trkpt lat="43.59306" lon="6.45404">
        <ele>428</ele>
        <time>2024-05-08T15:06:15.000Z</time>
      </trkpt>
      <trkpt lat="43.59306" lon="6.45407">
        <ele>428</ele>
        <time>2024-05-08T15:06:17.000Z</time>
      </trkpt>
      <trkpt lat="43.59305" lon="6.45415">
        <ele>429</ele>
        <time>2024-05-08T15:06:21.000Z</time>
      </trkpt>
      <trkpt lat="43.59304" lon="6.45421">
        <ele>428</ele>
        <time>2024-05-08T15:06:25.000Z</time>
      </trkpt>
      <trkpt lat="43.59303" lon="6.45423">
        <ele>428</ele>
        <time>2024-05-08T15:06:27.000Z</time>
      </trkpt>
      <trkpt lat="43.59304" lon="6.45427">
        <ele>428</ele>
        <time>2024-05-08T15:06:29.000Z</time>
      </trkpt>
      <trkpt lat="43.59303" lon="6.45435">
        <ele>427</ele>
        <time>2024-05-08T15:06:33.000Z</time>
      </trkpt>
      <trkpt lat="43.59302" lon="6.45437">
        <ele>427</ele>
        <time>2024-05-08T15:06:36.000Z</time>
      </trkpt>
      <trkpt lat="43.59303" lon="6.45449">
        <ele>426</ele>
        <time>2024-05-08T15:06:42.000Z</time>
      </trkpt>
      <trkpt lat="43.59303" lon="6.45451">
        <ele>425</ele>
        <time>2024-05-08T15:06:44.000Z</time>
      </trkpt>
      <trkpt lat="43.59304" lon="6.45455">
        <ele>425</ele>
        <time>2024-05-08T15:06:46.000Z</time>
      </trkpt>
      <trkpt lat="43.59305" lon="6.45459">
        <ele>424</ele>
        <time>2024-05-08T15:06:48.000Z</time>
      </trkpt>
      <trkpt lat="43.59305" lon="6.45462">
        <ele>425</ele>
        <time>2024-05-08T15:06:50.000Z</time>
      </trkpt>
      <trkpt lat="43.59304" lon="6.45464">
        <ele>424</ele>
        <time>2024-05-08T15:06:52.000Z</time>
      </trkpt>
      <trkpt lat="43.59305" lon="6.45467">
        <ele>425</ele>
        <time>2024-05-08T15:06:54.000Z</time>
      </trkpt>
      <trkpt lat="43.59307" lon="6.45479">
        <ele>425</ele>
        <time>2024-05-08T15:07:00.000Z</time>
      </trkpt>
      <trkpt lat="43.59305" lon="6.45487">
        <ele>425</ele>
        <time>2024-05-08T15:07:05.000Z</time>
      </trkpt>
      <trkpt lat="43.59305" lon="6.4549">
        <ele>426</ele>
        <time>2024-05-08T15:07:07.000Z</time>
      </trkpt>
      <trkpt lat="43.59306" lon="6.45494">
        <ele>427</ele>
        <time>2024-05-08T15:07:09.000Z</time>
      </trkpt>
      <trkpt lat="43.59307" lon="6.45504">
        <ele>428</ele>
        <time>2024-05-08T15:07:15.000Z</time>
      </trkpt>
      <trkpt lat="43.59308" lon="6.45511">
        <ele>427</ele>
        <time>2024-05-08T15:07:21.000Z</time>
      </trkpt>
      <trkpt lat="43.59307" lon="6.45514">
        <ele>427</ele>
        <time>2024-05-08T15:07:23.000Z</time>
      </trkpt>
      <trkpt lat="43.59307" lon="6.45517">
        <ele>427</ele>
        <time>2024-05-08T15:07:25.000Z</time>
      </trkpt>
      <trkpt lat="43.59312" lon="6.45542">
        <ele>425</ele>
        <time>2024-05-08T15:07:41.000Z</time>
      </trkpt>
      <trkpt lat="43.59313" lon="6.45546">
        <ele>425</ele>
        <time>2024-05-08T15:07:43.000Z</time>
      </trkpt>
      <trkpt lat="43.59313" lon="6.45549">
        <ele>425</ele>
        <time>2024-05-08T15:07:45.000Z</time>
      </trkpt>
      <trkpt lat="43.59314" lon="6.45554">
        <ele>426</ele>
        <time>2024-05-08T15:07:50.000Z</time>
      </trkpt>
      <trkpt lat="43.59314" lon="6.45558">
        <ele>427</ele>
        <time>2024-05-08T15:07:52.000Z</time>
      </trkpt>
      <trkpt lat="43.59315" lon="6.45565">
        <ele>428</ele>
        <time>2024-05-08T15:07:57.000Z</time>
      </trkpt>
      <trkpt lat="43.59312" lon="6.45593">
        <ele>429</ele>
        <time>2024-05-08T15:08:14.000Z</time>
      </trkpt>
      <trkpt lat="43.59312" lon="6.45597">
        <ele>428</ele>
        <time>2024-05-08T15:08:16.000Z</time>
      </trkpt>
      <trkpt lat="43.59311" lon="6.45603">
        <ele>428</ele>
        <time>2024-05-08T15:08:20.000Z</time>
      </trkpt>
      <trkpt lat="43.59312" lon="6.45612">
        <ele>431</ele>
        <time>2024-05-08T15:08:26.000Z</time>
      </trkpt>
      <trkpt lat="43.59313" lon="6.45624">
        <ele>429</ele>
        <time>2024-05-08T15:08:34.000Z</time>
      </trkpt>
      <trkpt lat="43.59315" lon="6.45633">
        <ele>428</ele>
        <time>2024-05-08T15:08:39.000Z</time>
      </trkpt>
      <trkpt lat="43.59317" lon="6.45635">
        <ele>428</ele>
        <time>2024-05-08T15:08:41.000Z</time>
      </trkpt>
      <trkpt lat="43.59318" lon="6.45637">
        <ele>428</ele>
        <time>2024-05-08T15:08:43.000Z</time>
      </trkpt>
      <trkpt lat="43.59319" lon="6.45644">
        <ele>428</ele>
        <time>2024-05-08T15:08:46.000Z</time>
      </trkpt>
      <trkpt lat="43.59321" lon="6.4565">
        <ele>428</ele>
        <time>2024-05-08T15:08:50.000Z</time>
      </trkpt>
      <trkpt lat="43.59322" lon="6.45656">
        <ele>429</ele>
        <time>2024-05-08T15:08:54.000Z</time>
      </trkpt>
      <trkpt lat="43.59325" lon="6.45666">
        <ele>431</ele>
        <time>2024-05-08T15:09:02.000Z</time>
      </trkpt>
      <trkpt lat="43.59326" lon="6.4567">
        <ele>432</ele>
        <time>2024-05-08T15:09:04.000Z</time>
      </trkpt>
      <trkpt lat="43.59328" lon="6.45673">
        <ele>432</ele>
        <time>2024-05-08T15:09:06.000Z</time>
      </trkpt>
      <trkpt lat="43.59331" lon="6.45684">
        <ele>432</ele>
        <time>2024-05-08T15:09:14.000Z</time>
      </trkpt>
      <trkpt lat="43.59332" lon="6.45687">
        <ele>431</ele>
        <time>2024-05-08T15:09:16.000Z</time>
      </trkpt>
      <trkpt lat="43.59333" lon="6.45689">
        <ele>431</ele>
        <time>2024-05-08T15:09:18.000Z</time>
      </trkpt>
      <trkpt lat="43.59334" lon="6.45692">
        <ele>430</ele>
        <time>2024-05-08T15:09:20.000Z</time>
      </trkpt>
      <trkpt lat="43.59335" lon="6.45699">
        <ele>428</ele>
        <time>2024-05-08T15:09:24.000Z</time>
      </trkpt>
      <trkpt lat="43.59337" lon="6.45704">
        <ele>427</ele>
        <time>2024-05-08T15:09:28.000Z</time>
      </trkpt>
      <trkpt lat="43.59338" lon="6.45707">
        <ele>427</ele>
        <time>2024-05-08T15:09:30.000Z</time>
      </trkpt>
      <trkpt lat="43.5934" lon="6.45718">
        <ele>427</ele>
        <time>2024-05-08T15:09:36.000Z</time>
      </trkpt>
      <trkpt lat="43.59342" lon="6.45721">
        <ele>428</ele>
        <time>2024-05-08T15:09:39.000Z</time>
      </trkpt>
      <trkpt lat="43.59346" lon="6.45732">
        <ele>428</ele>
        <time>2024-05-08T15:09:45.000Z</time>
      </trkpt>
      <trkpt lat="43.59348" lon="6.45734">
        <ele>427</ele>
        <time>2024-05-08T15:09:47.000Z</time>
      </trkpt>
      <trkpt lat="43.59349" lon="6.45736">
        <ele>427</ele>
        <time>2024-05-08T15:09:49.000Z</time>
      </trkpt>
      <trkpt lat="43.59349" lon="6.45739">
        <ele>427</ele>
        <time>2024-05-08T15:09:51.000Z</time>
      </trkpt>
      <trkpt lat="43.59351" lon="6.45743">
        <ele>427</ele>
        <time>2024-05-08T15:09:53.000Z</time>
      </trkpt>
      <trkpt lat="43.59355" lon="6.45761">
        <ele>427</ele>
        <time>2024-05-08T15:10:05.000Z</time>
      </trkpt>
      <trkpt lat="43.59353" lon="6.45771">
        <ele>427</ele>
        <time>2024-05-08T15:10:11.000Z</time>
      </trkpt>
      <trkpt lat="43.59349" lon="6.4578">
        <ele>425</ele>
        <time>2024-05-08T15:10:16.000Z</time>
      </trkpt>
      <trkpt lat="43.59349" lon="6.45783">
        <ele>424</ele>
        <time>2024-05-08T15:10:19.000Z</time>
      </trkpt>
      <trkpt lat="43.59348" lon="6.45785">
        <ele>424</ele>
        <time>2024-05-08T15:10:21.000Z</time>
      </trkpt>
      <trkpt lat="43.59341" lon="6.45794">
        <ele>422</ele>
        <time>2024-05-08T15:10:27.000Z</time>
      </trkpt>
      <trkpt lat="43.5934" lon="6.45797">
        <ele>422</ele>
        <time>2024-05-08T15:10:29.000Z</time>
      </trkpt>
      <trkpt lat="43.59333" lon="6.45808">
        <ele>420</ele>
        <time>2024-05-08T15:10:38.000Z</time>
      </trkpt>
      <trkpt lat="43.59332" lon="6.45811">
        <ele>421</ele>
        <time>2024-05-08T15:10:40.000Z</time>
      </trkpt>
      <trkpt lat="43.59328" lon="6.45813">
        <ele>422</ele>
        <time>2024-05-08T15:10:44.000Z</time>
      </trkpt>
      <trkpt lat="43.59326" lon="6.45816">
        <ele>422</ele>
        <time>2024-05-08T15:10:46.000Z</time>
      </trkpt>
      <trkpt lat="43.59327" lon="6.45824">
        <ele>425</ele>
        <time>2024-05-08T15:10:50.000Z</time>
      </trkpt>
      <trkpt lat="43.59322" lon="6.45832">
        <ele>429</ele>
        <time>2024-05-08T15:10:56.000Z</time>
      </trkpt>
      <trkpt lat="43.59318" lon="6.45848">
        <ele>432</ele>
        <time>2024-05-08T15:11:06.000Z</time>
      </trkpt>
      <trkpt lat="43.59317" lon="6.45849">
        <ele>432</ele>
        <time>2024-05-08T15:11:08.000Z</time>
      </trkpt>
      <trkpt lat="43.59316" lon="6.45853">
        <ele>433</ele>
        <time>2024-05-08T15:11:10.000Z</time>
      </trkpt>
      <trkpt lat="43.59314" lon="6.45861">
        <ele>435</ele>
        <time>2024-05-08T15:11:14.000Z</time>
      </trkpt>
      <trkpt lat="43.59315" lon="6.45865">
        <ele>435</ele>
        <time>2024-05-08T15:11:16.000Z</time>
      </trkpt>
      <trkpt lat="43.59315" lon="6.45872">
        <ele>436</ele>
        <time>2024-05-08T15:11:20.000Z</time>
      </trkpt>
      <trkpt lat="43.59315" lon="6.45875">
        <ele>437</ele>
        <time>2024-05-08T15:11:22.000Z</time>
      </trkpt>
      <trkpt lat="43.59315" lon="6.45887">
        <ele>437</ele>
        <time>2024-05-08T15:11:28.000Z</time>
      </trkpt>
      <trkpt lat="43.59315" lon="6.45891">
        <ele>436</ele>
        <time>2024-05-08T15:11:30.000Z</time>
      </trkpt>
      <trkpt lat="43.59315" lon="6.459">
        <ele>435</ele>
        <time>2024-05-08T15:11:36.000Z</time>
      </trkpt>
      <trkpt lat="43.59317" lon="6.45901">
        <ele>435</ele>
        <time>2024-05-08T15:11:39.000Z</time>
      </trkpt>
      <trkpt lat="43.59317" lon="6.45907">
        <ele>434</ele>
        <time>2024-05-08T15:11:43.000Z</time>
      </trkpt>
      <trkpt lat="43.59318" lon="6.4591">
        <ele>432</ele>
        <time>2024-05-08T15:11:45.000Z</time>
      </trkpt>
      <trkpt lat="43.59318" lon="6.45913">
        <ele>431</ele>
        <time>2024-05-08T15:11:48.000Z</time>
      </trkpt>
      <trkpt lat="43.59318" lon="6.45924">
        <ele>430</ele>
        <time>2024-05-08T15:11:57.000Z</time>
      </trkpt>
      <trkpt lat="43.59317" lon="6.45928">
        <ele>430</ele>
        <time>2024-05-08T15:11:59.000Z</time>
      </trkpt>
      <trkpt lat="43.59314" lon="6.45934">
        <ele>431</ele>
        <time>2024-05-08T15:12:03.000Z</time>
      </trkpt>
      <trkpt lat="43.59313" lon="6.45937">
        <ele>431</ele>
        <time>2024-05-08T15:12:05.000Z</time>
      </trkpt>
      <trkpt lat="43.59311" lon="6.45946">
        <ele>429</ele>
        <time>2024-05-08T15:12:11.000Z</time>
      </trkpt>
      <trkpt lat="43.59311" lon="6.4595">
        <ele>428</ele>
        <time>2024-05-08T15:12:14.000Z</time>
      </trkpt>
      <trkpt lat="43.59308" lon="6.45959">
        <ele>428</ele>
        <time>2024-05-08T15:12:21.000Z</time>
      </trkpt>
      <trkpt lat="43.59307" lon="6.45962">
        <ele>428</ele>
        <time>2024-05-08T15:12:23.000Z</time>
      </trkpt>
      <trkpt lat="43.59308" lon="6.45972">
        <ele>428</ele>
        <time>2024-05-08T15:12:29.000Z</time>
      </trkpt>
      <trkpt lat="43.59308" lon="6.45975">
        <ele>429</ele>
        <time>2024-05-08T15:12:31.000Z</time>
      </trkpt>
      <trkpt lat="43.59305" lon="6.45982">
        <ele>428</ele>
        <time>2024-05-08T15:12:35.000Z</time>
      </trkpt>
      <trkpt lat="43.59304" lon="6.45985">
        <ele>427</ele>
        <time>2024-05-08T15:12:37.000Z</time>
      </trkpt>
      <trkpt lat="43.59305" lon="6.45988">
        <ele>427</ele>
        <time>2024-05-08T15:12:39.000Z</time>
      </trkpt>
      <trkpt lat="43.59307" lon="6.4599">
        <ele>427</ele>
        <time>2024-05-08T15:12:42.000Z</time>
      </trkpt>
      <trkpt lat="43.59309" lon="6.4599">
        <ele>426</ele>
        <time>2024-05-08T15:12:44.000Z</time>
      </trkpt>
      <trkpt lat="43.59312" lon="6.4599">
        <ele>427</ele>
        <time>2024-05-08T15:12:46.000Z</time>
      </trkpt>
      <trkpt lat="43.59311" lon="6.45992">
        <ele>427</ele>
        <time>2024-05-08T15:12:53.000Z</time>
      </trkpt>
      <trkpt lat="43.5931" lon="6.45996">
        <ele>428</ele>
        <time>2024-05-08T15:12:55.000Z</time>
      </trkpt>
      <trkpt lat="43.5931" lon="6.45998">
        <ele>428</ele>
        <time>2024-05-08T15:13:00.000Z</time>
      </trkpt>
      <trkpt lat="43.59306" lon="6.46005">
        <ele>429</ele>
        <time>2024-05-08T15:13:04.000Z</time>
      </trkpt>
      <trkpt lat="43.59306" lon="6.46009">
        <ele>429</ele>
        <time>2024-05-08T15:13:06.000Z</time>
      </trkpt>
      <trkpt lat="43.59305" lon="6.46012">
        <ele>429</ele>
        <time>2024-05-08T15:13:08.000Z</time>
      </trkpt>
      <trkpt lat="43.59306" lon="6.46015">
        <ele>429</ele>
        <time>2024-05-08T15:13:11.000Z</time>
      </trkpt>
      <trkpt lat="43.59298" lon="6.46018">
        <ele>432</ele>
        <time>2024-05-08T15:13:36.000Z</time>
      </trkpt>
      <trkpt lat="43.59297" lon="6.46018">
        <ele>432</ele>
        <time>2024-05-08T15:13:37.000Z</time>
      </trkpt>
      <trkpt lat="43.59294" lon="6.46021">
        <ele>431</ele>
        <time>2024-05-08T15:13:39.000Z</time>
      </trkpt>
      <trkpt lat="43.59293" lon="6.46023">
        <ele>431</ele>
        <time>2024-05-08T15:13:40.000Z</time>
      </trkpt>
      <trkpt lat="43.59288" lon="6.46032">
        <ele>431</ele>
        <time>2024-05-08T15:13:45.000Z</time>
      </trkpt>
      <trkpt lat="43.59288" lon="6.46034">
        <ele>430</ele>
        <time>2024-05-08T15:13:47.000Z</time>
      </trkpt>
      <trkpt lat="43.59288" lon="6.46037">
        <ele>430</ele>
        <time>2024-05-08T15:13:49.000Z</time>
      </trkpt>
      <trkpt lat="43.59289" lon="6.46039">
        <ele>430</ele>
        <time>2024-05-08T15:13:51.000Z</time>
      </trkpt>
      <trkpt lat="43.59288" lon="6.46049">
        <ele>430</ele>
        <time>2024-05-08T15:13:57.000Z</time>
      </trkpt>
      <trkpt lat="43.59285" lon="6.46055">
        <ele>429</ele>
        <time>2024-05-08T15:14:01.000Z</time>
      </trkpt>
      <trkpt lat="43.59284" lon="6.46062">
        <ele>430</ele>
        <time>2024-05-08T15:14:04.000Z</time>
      </trkpt>
      <trkpt lat="43.59281" lon="6.46069">
        <ele>430</ele>
        <time>2024-05-08T15:14:08.000Z</time>
      </trkpt>
      <trkpt lat="43.59278" lon="6.46069">
        <ele>430</ele>
        <time>2024-05-08T15:14:10.000Z</time>
      </trkpt>
      <trkpt lat="43.59276" lon="6.46071">
        <ele>430</ele>
        <time>2024-05-08T15:14:11.000Z</time>
      </trkpt>
      <trkpt lat="43.59273" lon="6.46075">
        <ele>431</ele>
        <time>2024-05-08T15:14:15.000Z</time>
      </trkpt>
      <trkpt lat="43.59272" lon="6.46078">
        <ele>431</ele>
        <time>2024-05-08T15:14:17.000Z</time>
      </trkpt>
      <trkpt lat="43.59271" lon="6.4608">
        <ele>432</ele>
        <time>2024-05-08T15:14:19.000Z</time>
      </trkpt>
      <trkpt lat="43.59269" lon="6.46088">
        <ele>432</ele>
        <time>2024-05-08T15:14:27.000Z</time>
      </trkpt>
      <trkpt lat="43.59269" lon="6.46091">
        <ele>432</ele>
        <time>2024-05-08T15:14:29.000Z</time>
      </trkpt>
      <trkpt lat="43.59271" lon="6.46101">
        <ele>431</ele>
        <time>2024-05-08T15:14:35.000Z</time>
      </trkpt>
      <trkpt lat="43.59273" lon="6.4611">
        <ele>430</ele>
        <time>2024-05-08T15:14:39.000Z</time>
      </trkpt>
      <trkpt lat="43.59274" lon="6.46114">
        <ele>429</ele>
        <time>2024-05-08T15:14:41.000Z</time>
      </trkpt>
      <trkpt lat="43.59277" lon="6.46121">
        <ele>429</ele>
        <time>2024-05-08T15:14:45.000Z</time>
      </trkpt>
      <trkpt lat="43.59278" lon="6.46123">
        <ele>430</ele>
        <time>2024-05-08T15:14:47.000Z</time>
      </trkpt>
      <trkpt lat="43.59277" lon="6.46127">
        <ele>430</ele>
        <time>2024-05-08T15:14:50.000Z</time>
      </trkpt>
      <trkpt lat="43.59279" lon="6.46138">
        <ele>430</ele>
        <time>2024-05-08T15:14:56.000Z</time>
      </trkpt>
      <trkpt lat="43.59279" lon="6.46148">
        <ele>429</ele>
        <time>2024-05-08T15:15:04.000Z</time>
      </trkpt>
      <trkpt lat="43.59279" lon="6.46153">
        <ele>429</ele>
        <time>2024-05-08T15:15:06.000Z</time>
      </trkpt>
      <trkpt lat="43.59282" lon="6.46161">
        <ele>429</ele>
        <time>2024-05-08T15:15:10.000Z</time>
      </trkpt>
      <trkpt lat="43.59284" lon="6.4618">
        <ele>431</ele>
        <time>2024-05-08T15:15:24.000Z</time>
      </trkpt>
      <trkpt lat="43.59284" lon="6.46183">
        <ele>431</ele>
        <time>2024-05-08T15:15:27.000Z</time>
      </trkpt>
      <trkpt lat="43.59286" lon="6.46191">
        <ele>431</ele>
        <time>2024-05-08T15:15:32.000Z</time>
      </trkpt>
      <trkpt lat="43.59292" lon="6.46196">
        <ele>431</ele>
        <time>2024-05-08T15:15:36.000Z</time>
      </trkpt>
      <trkpt lat="43.59293" lon="6.46199">
        <ele>431</ele>
        <time>2024-05-08T15:15:38.000Z</time>
      </trkpt>
      <trkpt lat="43.59297" lon="6.46203">
        <ele>432</ele>
        <time>2024-05-08T15:15:42.000Z</time>
      </trkpt>
      <trkpt lat="43.59298" lon="6.46206">
        <ele>432</ele>
        <time>2024-05-08T15:15:44.000Z</time>
      </trkpt>
      <trkpt lat="43.59311" lon="6.46223">
        <ele>430</ele>
        <time>2024-05-08T15:15:59.000Z</time>
      </trkpt>
      <trkpt lat="43.59312" lon="6.46225">
        <ele>430</ele>
        <time>2024-05-08T15:16:02.000Z</time>
      </trkpt>
      <trkpt lat="43.59314" lon="6.46227">
        <ele>431</ele>
        <time>2024-05-08T15:16:04.000Z</time>
      </trkpt>
      <trkpt lat="43.59315" lon="6.46229">
        <ele>431</ele>
        <time>2024-05-08T15:16:06.000Z</time>
      </trkpt>
      <trkpt lat="43.59318" lon="6.46234">
        <ele>432</ele>
        <time>2024-05-08T15:16:10.000Z</time>
      </trkpt>
      <trkpt lat="43.59319" lon="6.46236">
        <ele>433</ele>
        <time>2024-05-08T15:16:12.000Z</time>
      </trkpt>
      <trkpt lat="43.59322" lon="6.46242">
        <ele>433</ele>
        <time>2024-05-08T15:16:16.000Z</time>
      </trkpt>
      <trkpt lat="43.59323" lon="6.46246">
        <ele>432</ele>
        <time>2024-05-08T15:16:18.000Z</time>
      </trkpt>
      <trkpt lat="43.59324" lon="6.46249">
        <ele>432</ele>
        <time>2024-05-08T15:16:20.000Z</time>
      </trkpt>
      <trkpt lat="43.59326" lon="6.46252">
        <ele>432</ele>
        <time>2024-05-08T15:16:22.000Z</time>
      </trkpt>
      <trkpt lat="43.5933" lon="6.46261">
        <ele>434</ele>
        <time>2024-05-08T15:16:29.000Z</time>
      </trkpt>
      <trkpt lat="43.59336" lon="6.46279">
        <ele>434</ele>
        <time>2024-05-08T15:16:40.000Z</time>
      </trkpt>
      <trkpt lat="43.59336" lon="6.46291">
        <ele>433</ele>
        <time>2024-05-08T15:16:46.000Z</time>
      </trkpt>
      <trkpt lat="43.59337" lon="6.46295">
        <ele>432</ele>
        <time>2024-05-08T15:16:48.000Z</time>
      </trkpt>
      <trkpt lat="43.59338" lon="6.46302">
        <ele>431</ele>
        <time>2024-05-08T15:16:53.000Z</time>
      </trkpt>
      <trkpt lat="43.59337" lon="6.46306">
        <ele>431</ele>
        <time>2024-05-08T15:16:55.000Z</time>
      </trkpt>
      <trkpt lat="43.59338" lon="6.46309">
        <ele>430</ele>
        <time>2024-05-08T15:16:57.000Z</time>
      </trkpt>
      <trkpt lat="43.59337" lon="6.46318">
        <ele>431</ele>
        <time>2024-05-08T15:17:04.000Z</time>
      </trkpt>
      <trkpt lat="43.59334" lon="6.46326">
        <ele>430</ele>
        <time>2024-05-08T15:17:08.000Z</time>
      </trkpt>
      <trkpt lat="43.59334" lon="6.46334">
        <ele>429</ele>
        <time>2024-05-08T15:17:12.000Z</time>
      </trkpt>
      <trkpt lat="43.59334" lon="6.46336">
        <ele>429</ele>
        <time>2024-05-08T15:17:14.000Z</time>
      </trkpt>
      <trkpt lat="43.59335" lon="6.46352">
        <ele>428</ele>
        <time>2024-05-08T15:17:23.000Z</time>
      </trkpt>
      <trkpt lat="43.59334" lon="6.46359">
        <ele>427</ele>
        <time>2024-05-08T15:17:27.000Z</time>
      </trkpt>
      <trkpt lat="43.59334" lon="6.46366">
        <ele>427</ele>
        <time>2024-05-08T15:17:32.000Z</time>
      </trkpt>
      <trkpt lat="43.59335" lon="6.46377">
        <ele>426</ele>
        <time>2024-05-08T15:17:37.000Z</time>
      </trkpt>
      <trkpt lat="43.59335" lon="6.4638">
        <ele>425</ele>
        <time>2024-05-08T15:17:39.000Z</time>
      </trkpt>
      <trkpt lat="43.59336" lon="6.46382">
        <ele>425</ele>
        <time>2024-05-08T15:17:42.000Z</time>
      </trkpt>
      <trkpt lat="43.59336" lon="6.46385">
        <ele>426</ele>
        <time>2024-05-08T15:17:44.000Z</time>
      </trkpt>
      <trkpt lat="43.59337" lon="6.46405">
        <ele>427</ele>
        <time>2024-05-08T15:17:55.000Z</time>
      </trkpt>
      <trkpt lat="43.5934" lon="6.46413">
        <ele>429</ele>
        <time>2024-05-08T15:18:00.000Z</time>
      </trkpt>
      <trkpt lat="43.59341" lon="6.46423">
        <ele>430</ele>
        <time>2024-05-08T15:18:05.000Z</time>
      </trkpt>
      <trkpt lat="43.5934" lon="6.46426">
        <ele>430</ele>
        <time>2024-05-08T15:18:08.000Z</time>
      </trkpt>
      <trkpt lat="43.59341" lon="6.46428">
        <ele>430</ele>
        <time>2024-05-08T15:18:10.000Z</time>
      </trkpt>
      <trkpt lat="43.59345" lon="6.46443">
        <ele>431</ele>
        <time>2024-05-08T15:18:18.000Z</time>
      </trkpt>
      <trkpt lat="43.59347" lon="6.46446">
        <ele>431</ele>
        <time>2024-05-08T15:18:20.000Z</time>
      </trkpt>
      <trkpt lat="43.59348" lon="6.46448">
        <ele>432</ele>
        <time>2024-05-08T15:18:22.000Z</time>
      </trkpt>
      <trkpt lat="43.5935" lon="6.46454">
        <ele>432</ele>
        <time>2024-05-08T15:18:26.000Z</time>
      </trkpt>
      <trkpt lat="43.59351" lon="6.46458">
        <ele>432</ele>
        <time>2024-05-08T15:18:28.000Z</time>
      </trkpt>
      <trkpt lat="43.59352" lon="6.46461">
        <ele>432</ele>
        <time>2024-05-08T15:18:30.000Z</time>
      </trkpt>
      <trkpt lat="43.59353" lon="6.46464">
        <ele>433</ele>
        <time>2024-05-08T15:18:32.000Z</time>
      </trkpt>
      <trkpt lat="43.59353" lon="6.46467">
        <ele>433</ele>
        <time>2024-05-08T15:18:34.000Z</time>
      </trkpt>
      <trkpt lat="43.59357" lon="6.46475">
        <ele>434</ele>
        <time>2024-05-08T15:18:39.000Z</time>
      </trkpt>
      <trkpt lat="43.59361" lon="6.46484">
        <ele>435</ele>
        <time>2024-05-08T15:18:46.000Z</time>
      </trkpt>
      <trkpt lat="43.59363" lon="6.4649">
        <ele>435</ele>
        <time>2024-05-08T15:18:50.000Z</time>
      </trkpt>
      <trkpt lat="43.59364" lon="6.46493">
        <ele>435</ele>
        <time>2024-05-08T15:18:52.000Z</time>
      </trkpt>
      <trkpt lat="43.59365" lon="6.465">
        <ele>434</ele>
        <time>2024-05-08T15:18:55.000Z</time>
      </trkpt>
      <trkpt lat="43.59366" lon="6.46503">
        <ele>434</ele>
        <time>2024-05-08T15:18:57.000Z</time>
      </trkpt>
      <trkpt lat="43.59366" lon="6.46516">
        <ele>435</ele>
        <time>2024-05-08T15:19:05.000Z</time>
      </trkpt>
      <trkpt lat="43.59367" lon="6.4652">
        <ele>435</ele>
        <time>2024-05-08T15:19:07.000Z</time>
      </trkpt>
      <trkpt lat="43.59368" lon="6.46523">
        <ele>436</ele>
        <time>2024-05-08T15:19:10.000Z</time>
      </trkpt>
      <trkpt lat="43.59367" lon="6.46531">
        <ele>438</ele>
        <time>2024-05-08T15:19:14.000Z</time>
      </trkpt>
      <trkpt lat="43.59367" lon="6.46535">
        <ele>438</ele>
        <time>2024-05-08T15:19:16.000Z</time>
      </trkpt>
      <trkpt lat="43.59367" lon="6.46542">
        <ele>439</ele>
        <time>2024-05-08T15:19:20.000Z</time>
      </trkpt>
      <trkpt lat="43.59367" lon="6.46549">
        <ele>440</ele>
        <time>2024-05-08T15:19:25.000Z</time>
      </trkpt>
      <trkpt lat="43.59367" lon="6.46553">
        <ele>439</ele>
        <time>2024-05-08T15:19:27.000Z</time>
      </trkpt>
      <trkpt lat="43.59366" lon="6.46558">
        <ele>437</ele>
        <time>2024-05-08T15:19:30.000Z</time>
      </trkpt>
      <trkpt lat="43.59364" lon="6.46577">
        <ele>437</ele>
        <time>2024-05-08T15:19:42.000Z</time>
      </trkpt>
      <trkpt lat="43.59364" lon="6.4658">
        <ele>438</ele>
        <time>2024-05-08T15:19:44.000Z</time>
      </trkpt>
      <trkpt lat="43.59362" lon="6.46583">
        <ele>438</ele>
        <time>2024-05-08T15:19:46.000Z</time>
      </trkpt>
      <trkpt lat="43.59363" lon="6.46591">
        <ele>439</ele>
        <time>2024-05-08T15:19:50.000Z</time>
      </trkpt>
      <trkpt lat="43.59363" lon="6.46595">
        <ele>439</ele>
        <time>2024-05-08T15:19:52.000Z</time>
      </trkpt>
      <trkpt lat="43.59362" lon="6.46614">
        <ele>439</ele>
        <time>2024-05-08T15:20:04.000Z</time>
      </trkpt>
      <trkpt lat="43.59361" lon="6.46617">
        <ele>439</ele>
        <time>2024-05-08T15:20:06.000Z</time>
      </trkpt>
      <trkpt lat="43.59363" lon="6.46623">
        <ele>438</ele>
        <time>2024-05-08T15:20:10.000Z</time>
      </trkpt>
      <trkpt lat="43.59362" lon="6.46625">
        <ele>437</ele>
        <time>2024-05-08T15:20:13.000Z</time>
      </trkpt>
      <trkpt lat="43.59361" lon="6.46628">
        <ele>437</ele>
        <time>2024-05-08T15:20:15.000Z</time>
      </trkpt>
      <trkpt lat="43.59362" lon="6.46633">
        <ele>437</ele>
        <time>2024-05-08T15:20:18.000Z</time>
      </trkpt>
      <trkpt lat="43.59362" lon="6.4664">
        <ele>438</ele>
        <time>2024-05-08T15:20:23.000Z</time>
      </trkpt>
      <trkpt lat="43.59362" lon="6.46642">
        <ele>438</ele>
        <time>2024-05-08T15:20:27.000Z</time>
      </trkpt>
      <trkpt lat="43.59361" lon="6.46645">
        <ele>437</ele>
        <time>2024-05-08T15:20:35.000Z</time>
      </trkpt>
      <trkpt lat="43.59359" lon="6.46648">
        <ele>437</ele>
        <time>2024-05-08T15:20:38.000Z</time>
      </trkpt>
      <trkpt lat="43.59358" lon="6.46651">
        <ele>437</ele>
        <time>2024-05-08T15:20:41.000Z</time>
      </trkpt>
      <trkpt lat="43.59358" lon="6.46654">
        <ele>438</ele>
        <time>2024-05-08T15:20:45.000Z</time>
      </trkpt>
      <trkpt lat="43.59359" lon="6.4666">
        <ele>438</ele>
        <time>2024-05-08T15:20:50.000Z</time>
      </trkpt>
      <trkpt lat="43.5936" lon="6.46663">
        <ele>437</ele>
        <time>2024-05-08T15:20:53.000Z</time>
      </trkpt>
      <trkpt lat="43.59363" lon="6.46668">
        <ele>437</ele>
        <time>2024-05-08T15:20:58.000Z</time>
      </trkpt>
      <trkpt lat="43.59364" lon="6.46673">
        <ele>437</ele>
        <time>2024-05-08T15:21:04.000Z</time>
      </trkpt>
      <trkpt lat="43.59368" lon="6.46685">
        <ele>440</ele>
        <time>2024-05-08T15:21:15.000Z</time>
      </trkpt>
      <trkpt lat="43.5937" lon="6.46687">
        <ele>440</ele>
        <time>2024-05-08T15:21:17.000Z</time>
      </trkpt>
      <trkpt lat="43.59371" lon="6.46689">
        <ele>441</ele>
        <time>2024-05-08T15:21:20.000Z</time>
      </trkpt>
      <trkpt lat="43.59374" lon="6.46694">
        <ele>442</ele>
        <time>2024-05-08T15:21:24.000Z</time>
      </trkpt>
      <trkpt lat="43.59381" lon="6.46705">
        <ele>443</ele>
        <time>2024-05-08T15:21:32.000Z</time>
      </trkpt>
      <trkpt lat="43.59385" lon="6.46719">
        <ele>446</ele>
        <time>2024-05-08T15:21:44.000Z</time>
      </trkpt>
      <trkpt lat="43.59384" lon="6.46721">
        <ele>446</ele>
        <time>2024-05-08T15:21:47.000Z</time>
      </trkpt>
      <trkpt lat="43.59384" lon="6.46724">
        <ele>447</ele>
        <time>2024-05-08T15:21:51.000Z</time>
      </trkpt>
      <trkpt lat="43.59384" lon="6.46728">
        <ele>442</ele>
        <time>2024-05-08T15:24:35.000Z</time>
      </trkpt>
      <trkpt lat="43.59381" lon="6.46728">
        <ele>441</ele>
        <time>2024-05-08T15:24:37.000Z</time>
      </trkpt>
      <trkpt lat="43.59369" lon="6.46737">
        <ele>442</ele>
        <time>2024-05-08T15:24:48.000Z</time>
      </trkpt>
      <trkpt lat="43.59368" lon="6.46739">
        <ele>442</ele>
        <time>2024-05-08T15:24:49.000Z</time>
      </trkpt>
      <trkpt lat="43.59364" lon="6.46744">
        <ele>443</ele>
        <time>2024-05-08T15:24:55.000Z</time>
      </trkpt>
      <trkpt lat="43.59363" lon="6.46746">
        <ele>442</ele>
        <time>2024-05-08T15:24:57.000Z</time>
      </trkpt>
      <trkpt lat="43.59361" lon="6.46748">
        <ele>441</ele>
        <time>2024-05-08T15:25:01.000Z</time>
      </trkpt>
      <trkpt lat="43.5936" lon="6.46752">
        <ele>442</ele>
        <time>2024-05-08T15:25:03.000Z</time>
      </trkpt>
      <trkpt lat="43.59356" lon="6.46758">
        <ele>443</ele>
        <time>2024-05-08T15:25:09.000Z</time>
      </trkpt>
      <trkpt lat="43.59355" lon="6.46762">
        <ele>445</ele>
        <time>2024-05-08T15:25:11.000Z</time>
      </trkpt>
      <trkpt lat="43.59354" lon="6.46765">
        <ele>447</ele>
        <time>2024-05-08T15:25:13.000Z</time>
      </trkpt>
      <trkpt lat="43.59352" lon="6.46768">
        <ele>448</ele>
        <time>2024-05-08T15:25:15.000Z</time>
      </trkpt>
      <trkpt lat="43.5935" lon="6.46769">
        <ele>450</ele>
        <time>2024-05-08T15:25:18.000Z</time>
      </trkpt>
      <trkpt lat="43.59342" lon="6.4678">
        <ele>453</ele>
        <time>2024-05-08T15:25:28.000Z</time>
      </trkpt>
      <trkpt lat="43.5934" lon="6.46784">
        <ele>453</ele>
        <time>2024-05-08T15:25:30.000Z</time>
      </trkpt>
      <trkpt lat="43.59338" lon="6.46785">
        <ele>453</ele>
        <time>2024-05-08T15:25:33.000Z</time>
      </trkpt>
      <trkpt lat="43.59337" lon="6.46791">
        <ele>453</ele>
        <time>2024-05-08T15:25:37.000Z</time>
      </trkpt>
      <trkpt lat="43.59338" lon="6.46795">
        <ele>454</ele>
        <time>2024-05-08T15:25:39.000Z</time>
      </trkpt>
      <trkpt lat="43.59337" lon="6.46799">
        <ele>454</ele>
        <time>2024-05-08T15:25:41.000Z</time>
      </trkpt>
      <trkpt lat="43.59329" lon="6.46807">
        <ele>456</ele>
        <time>2024-05-08T15:25:48.000Z</time>
      </trkpt>
      <trkpt lat="43.59324" lon="6.46813">
        <ele>456</ele>
        <time>2024-05-08T15:25:55.000Z</time>
      </trkpt>
      <trkpt lat="43.59317" lon="6.46822">
        <ele>454</ele>
        <time>2024-05-08T15:26:02.000Z</time>
      </trkpt>
      <trkpt lat="43.59315" lon="6.46824">
        <ele>453</ele>
        <time>2024-05-08T15:26:04.000Z</time>
      </trkpt>
      <trkpt lat="43.59314" lon="6.46825">
        <ele>453</ele>
        <time>2024-05-08T15:26:06.000Z</time>
      </trkpt>
      <trkpt lat="43.59313" lon="6.46828">
        <ele>453</ele>
        <time>2024-05-08T15:26:08.000Z</time>
      </trkpt>
      <trkpt lat="43.59311" lon="6.46829">
        <ele>453</ele>
        <time>2024-05-08T15:26:11.000Z</time>
      </trkpt>
      <trkpt lat="43.5931" lon="6.46831">
        <ele>454</ele>
        <time>2024-05-08T15:26:13.000Z</time>
      </trkpt>
      <trkpt lat="43.59309" lon="6.46839">
        <ele>456</ele>
        <time>2024-05-08T15:26:17.000Z</time>
      </trkpt>
      <trkpt lat="43.59307" lon="6.46839">
        <ele>457</ele>
        <time>2024-05-08T15:26:20.000Z</time>
      </trkpt>
      <trkpt lat="43.59305" lon="6.46841">
        <ele>459</ele>
        <time>2024-05-08T15:26:22.000Z</time>
      </trkpt>
      <trkpt lat="43.59303" lon="6.46845">
        <ele>459</ele>
        <time>2024-05-08T15:26:24.000Z</time>
      </trkpt>
      <trkpt lat="43.59302" lon="6.46847">
        <ele>459</ele>
        <time>2024-05-08T15:26:26.000Z</time>
      </trkpt>
      <trkpt lat="43.59299" lon="6.46853">
        <ele>460</ele>
        <time>2024-05-08T15:26:31.000Z</time>
      </trkpt>
      <trkpt lat="43.59298" lon="6.46856">
        <ele>460</ele>
        <time>2024-05-08T15:26:33.000Z</time>
      </trkpt>
      <trkpt lat="43.59296" lon="6.46861">
        <ele>460</ele>
        <time>2024-05-08T15:26:37.000Z</time>
      </trkpt>
      <trkpt lat="43.59294" lon="6.46863">
        <ele>461</ele>
        <time>2024-05-08T15:26:39.000Z</time>
      </trkpt>
      <trkpt lat="43.59293" lon="6.46866">
        <ele>461</ele>
        <time>2024-05-08T15:26:43.000Z</time>
      </trkpt>
      <trkpt lat="43.59293" lon="6.4687">
        <ele>461</ele>
        <time>2024-05-08T15:26:45.000Z</time>
      </trkpt>
      <trkpt lat="43.59292" lon="6.46873">
        <ele>461</ele>
        <time>2024-05-08T15:26:47.000Z</time>
      </trkpt>
      <trkpt lat="43.5929" lon="6.46875">
        <ele>461</ele>
        <time>2024-05-08T15:26:50.000Z</time>
      </trkpt>
      <trkpt lat="43.59287" lon="6.46877">
        <ele>461</ele>
        <time>2024-05-08T15:26:52.000Z</time>
      </trkpt>
      <trkpt lat="43.59281" lon="6.46879">
        <ele>461</ele>
        <time>2024-05-08T15:26:56.000Z</time>
      </trkpt>
      <trkpt lat="43.59273" lon="6.46883">
        <ele>461</ele>
        <time>2024-05-08T15:27:02.000Z</time>
      </trkpt>
      <trkpt lat="43.5927" lon="6.46883">
        <ele>461</ele>
        <time>2024-05-08T15:27:04.000Z</time>
      </trkpt>
      <trkpt lat="43.59266" lon="6.46885">
        <ele>463</ele>
        <time>2024-05-08T15:27:09.000Z</time>
      </trkpt>
      <trkpt lat="43.59263" lon="6.46886">
        <ele>463</ele>
        <time>2024-05-08T15:27:11.000Z</time>
      </trkpt>
      <trkpt lat="43.59261" lon="6.46886">
        <ele>464</ele>
        <time>2024-05-08T15:27:13.000Z</time>
      </trkpt>
      <trkpt lat="43.59259" lon="6.46888">
        <ele>464</ele>
        <time>2024-05-08T15:27:15.000Z</time>
      </trkpt>
      <trkpt lat="43.59258" lon="6.4689">
        <ele>464</ele>
        <time>2024-05-08T15:27:17.000Z</time>
      </trkpt>
      <trkpt lat="43.59255" lon="6.46892">
        <ele>464</ele>
        <time>2024-05-08T15:27:19.000Z</time>
      </trkpt>
      <trkpt lat="43.59251" lon="6.46893">
        <ele>465</ele>
        <time>2024-05-08T15:27:23.000Z</time>
      </trkpt>
      <trkpt lat="43.59249" lon="6.46894">
        <ele>465</ele>
        <time>2024-05-08T15:27:25.000Z</time>
      </trkpt>
      <trkpt lat="43.59246" lon="6.46892">
        <ele>464</ele>
        <time>2024-05-08T15:27:27.000Z</time>
      </trkpt>
      <trkpt lat="43.5924" lon="6.46891">
        <ele>465</ele>
        <time>2024-05-08T15:27:31.000Z</time>
      </trkpt>
      <trkpt lat="43.5923" lon="6.46891">
        <ele>465</ele>
        <time>2024-05-08T15:27:38.000Z</time>
      </trkpt>
      <trkpt lat="43.59228" lon="6.46892">
        <ele>466</ele>
        <time>2024-05-08T15:27:40.000Z</time>
      </trkpt>
      <trkpt lat="43.59221" lon="6.46896">
        <ele>467</ele>
        <time>2024-05-08T15:27:47.000Z</time>
      </trkpt>
      <trkpt lat="43.59218" lon="6.469">
        <ele>468</ele>
        <time>2024-05-08T15:27:51.000Z</time>
      </trkpt>
      <trkpt lat="43.59216" lon="6.46902">
        <ele>468</ele>
        <time>2024-05-08T15:27:53.000Z</time>
      </trkpt>
      <trkpt lat="43.59213" lon="6.46903">
        <ele>468</ele>
        <time>2024-05-08T15:27:55.000Z</time>
      </trkpt>
      <trkpt lat="43.59211" lon="6.46904">
        <ele>468</ele>
        <time>2024-05-08T15:27:57.000Z</time>
      </trkpt>
      <trkpt lat="43.5921" lon="6.46907">
        <ele>468</ele>
        <time>2024-05-08T15:27:59.000Z</time>
      </trkpt>
      <trkpt lat="43.59205" lon="6.46911">
        <ele>468</ele>
        <time>2024-05-08T15:28:03.000Z</time>
      </trkpt>
      <trkpt lat="43.59204" lon="6.46913">
        <ele>468</ele>
        <time>2024-05-08T15:28:05.000Z</time>
      </trkpt>
      <trkpt lat="43.59202" lon="6.46913">
        <ele>468</ele>
        <time>2024-05-08T15:28:08.000Z</time>
      </trkpt>
      <trkpt lat="43.592" lon="6.46915">
        <ele>469</ele>
        <time>2024-05-08T15:28:10.000Z</time>
      </trkpt>
      <trkpt lat="43.59199" lon="6.46918">
        <ele>469</ele>
        <time>2024-05-08T15:28:12.000Z</time>
      </trkpt>
      <trkpt lat="43.59196" lon="6.4692">
        <ele>469</ele>
        <time>2024-05-08T15:28:14.000Z</time>
      </trkpt>
      <trkpt lat="43.59195" lon="6.46921">
        <ele>471</ele>
        <time>2024-05-08T15:28:16.000Z</time>
      </trkpt>
      <trkpt lat="43.59193" lon="6.46924">
        <ele>471</ele>
        <time>2024-05-08T15:28:18.000Z</time>
      </trkpt>
      <trkpt lat="43.59192" lon="6.46927">
        <ele>471</ele>
        <time>2024-05-08T15:28:20.000Z</time>
      </trkpt>
      <trkpt lat="43.59187" lon="6.46933">
        <ele>473</ele>
        <time>2024-05-08T15:28:26.000Z</time>
      </trkpt>
      <trkpt lat="43.59185" lon="6.46935">
        <ele>472</ele>
        <time>2024-05-08T15:28:28.000Z</time>
      </trkpt>
      <trkpt lat="43.59182" lon="6.46936">
        <ele>472</ele>
        <time>2024-05-08T15:28:30.000Z</time>
      </trkpt>
      <trkpt lat="43.59179" lon="6.46941">
        <ele>471</ele>
        <time>2024-05-08T15:28:32.000Z</time>
      </trkpt>
      <trkpt lat="43.59175" lon="6.46946">
        <ele>469</ele>
        <time>2024-05-08T15:28:36.000Z</time>
      </trkpt>
      <trkpt lat="43.59173" lon="6.4695">
        <ele>469</ele>
        <time>2024-05-08T15:28:41.000Z</time>
      </trkpt>
      <trkpt lat="43.59172" lon="6.46953">
        <ele>469</ele>
        <time>2024-05-08T15:28:43.000Z</time>
      </trkpt>
      <trkpt lat="43.59168" lon="6.46959">
        <ele>470</ele>
        <time>2024-05-08T15:28:48.000Z</time>
      </trkpt>
      <trkpt lat="43.59166" lon="6.46958">
        <ele>471</ele>
        <time>2024-05-08T15:28:52.000Z</time>
      </trkpt>
      <trkpt lat="43.59165" lon="6.46956">
        <ele>471</ele>
        <time>2024-05-08T15:28:54.000Z</time>
      </trkpt>
      <trkpt lat="43.59164" lon="6.46954">
        <ele>473</ele>
        <time>2024-05-08T15:29:00.000Z</time>
      </trkpt>
      <trkpt lat="43.59164" lon="6.46952">
        <ele>474</ele>
        <time>2024-05-08T15:29:03.000Z</time>
      </trkpt>
    </trkseg>
  </trk>
</gpx>